﻿<?xml version="1.0" encoding="utf-8"?><gpx creator="Garmin Desktop App" version="1.1" xsi:schemaLocation="http://www.topografix.com/GPX/1/1 http://www.topografix.com/GPX/1/1/gpx.xsd http://www.garmin.com/xmlschemas/WaypointExtension/v1 http://www8.garmin.com/xmlschemas/WaypointExtensionv1.xsd http://www.garmin.com/xmlschemas/TrackPointExtension/v1 http://www.garmin.com/xmlschemas/TrackPointExtensionv1.xsd http://www.garmin.com/xmlschemas/GpxExtensions/v3 http://www8.garmin.com/xmlschemas/GpxExtensionsv3.xsd http://www.garmin.com/xmlschemas/ActivityExtension/v1 http://www8.garmin.com/xmlschemas/ActivityExtensionv1.xsd http://www.garmin.com/xmlschemas/AdventuresExtensions/v1 http://www8.garmin.com/xmlschemas/AdventuresExtensionv1.xsd http://www.garmin.com/xmlschemas/PressureExtension/v1 http://www.garmin.com/xmlschemas/PressureExtensionv1.xsd http://www.garmin.com/xmlschemas/TripExtensions/v1 http://www.garmin.com/xmlschemas/TripExtensionsv1.xsd http://www.garmin.com/xmlschemas/TripMetaDataExtensions/v1 http://www.garmin.com/xmlschemas/TripMetaDataExtensionsv1.xsd http://www.garmin.com/xmlschemas/ViaPointTransportationModeExtensions/v1 http://www.garmin.com/xmlschemas/ViaPointTransportationModeExtensionsv1.xsd http://www.garmin.com/xmlschemas/CreationTimeExtension/v1 http://www.garmin.com/xmlschemas/CreationTimeExtensionsv1.xsd http://www.garmin.com/xmlschemas/AccelerationExtension/v1 http://www.garmin.com/xmlschemas/AccelerationExtensionv1.xsd http://www.garmin.com/xmlschemas/PowerExtension/v1 http://www.garmin.com/xmlschemas/PowerExtensionv1.xsd http://www.garmin.com/xmlschemas/VideoExtension/v1 http://www.garmin.com/xmlschemas/VideoExtensionv1.xsd" xmlns="http://www.topografix.com/GPX/1/1" xmlns:xsi="http://www.w3.org/2001/XMLSchema-instance" xmlns:wptx1="http://www.garmin.com/xmlschemas/WaypointExtension/v1" xmlns:gpxtrx="http://www.garmin.com/xmlschemas/GpxExtensions/v3" xmlns:gpxtpx="http://www.garmin.com/xmlschemas/TrackPointExtension/v1" xmlns:gpxx="http://www.garmin.com/xmlschemas/GpxExtensions/v3" xmlns:trp="http://www.garmin.com/xmlschemas/TripExtensions/v1" xmlns:adv="http://www.garmin.com/xmlschemas/AdventuresExtensions/v1" xmlns:prs="http://www.garmin.com/xmlschemas/PressureExtension/v1" xmlns:tmd="http://www.garmin.com/xmlschemas/TripMetaDataExtensions/v1" xmlns:vptm="http://www.garmin.com/xmlschemas/ViaPointTransportationModeExtensions/v1" xmlns:ctx="http://www.garmin.com/xmlschemas/CreationTimeExtension/v1" xmlns:gpxacc="http://www.garmin.com/xmlschemas/AccelerationExtension/v1" xmlns:gpxpx="http://www.garmin.com/xmlschemas/PowerExtension/v1" xmlns:vidx1="http://www.garmin.com/xmlschemas/VideoExtension/v1">

  <metadata>
    <link href="http://www.garmin.com">
      <text>Garmin International</text>
    </link>
    <time>2022-02-07T07:57:11Z</time>
    <bounds maxlat="51.296976255252957" maxlon="4.849155116826296" minlat="51.257262546569109" minlon="4.807756394147873" />
  </metadata>

  <trk>
    <name>Boskant 20 km</name>
    <extensions>
      <gpxx:TrackExtension>
        <gpxx:DisplayColor>DarkMagenta</gpxx:DisplayColor>
      </gpxx:TrackExtension>
    </extensions>
    <trkseg>
      <trkpt lat="51.292657982558012" lon="4.837156590074301">
        <ele>25.02</ele>
        <time>2022-02-05T09:26:59Z</time>
      </trkpt>
      <trkpt lat="51.292708776891232" lon="4.837260693311691">
        <ele>24.75</ele>
        <time>2022-02-05T09:33:58Z</time>
      </trkpt>
      <trkpt lat="51.292636608704925" lon="4.837317690253258">
        <ele>24.739999999999998</ele>
        <time>2022-02-05T09:34:05Z</time>
      </trkpt>
      <trkpt lat="51.292410716414452" lon="4.837409975007176">
        <ele>24.699999999999999</ele>
        <time>2022-02-05T09:34:22Z</time>
      </trkpt>
      <trkpt lat="51.292402083054185" lon="4.837421122938395">
        <ele>24.699999999999999</ele>
        <time>2022-02-05T09:34:23Z</time>
      </trkpt>
      <trkpt lat="51.292288843542337" lon="4.837652463465929">
        <ele>24.629999999999999</ele>
        <time>2022-02-05T09:34:39Z</time>
      </trkpt>
      <trkpt lat="51.29225816577673" lon="4.83769747428596">
        <ele>24.620000000000001</ele>
        <time>2022-02-05T09:34:42Z</time>
      </trkpt>
      <trkpt lat="51.292191529646516" lon="4.837771905586124">
        <ele>24.600000000000001</ele>
        <time>2022-02-05T09:34:48Z</time>
      </trkpt>
      <trkpt lat="51.29204417578876" lon="4.837968293577433">
        <ele>24.510000000000002</ele>
        <time>2022-02-05T09:35:03Z</time>
      </trkpt>
      <trkpt lat="51.291911825537682" lon="4.838076084852219">
        <ele>24.420000000000002</ele>
        <time>2022-02-05T09:35:20Z</time>
      </trkpt>
      <trkpt lat="51.291727088391781" lon="4.838317232206464">
        <ele>24.27</ele>
        <time>2022-02-05T09:35:39Z</time>
      </trkpt>
      <trkpt lat="51.291652405634522" lon="4.838390992954373">
        <ele>24.18</ele>
        <time>2022-02-05T09:35:47Z</time>
      </trkpt>
      <trkpt lat="51.291628014296293" lon="4.838421000167728">
        <ele>24.170000000000002</ele>
        <time>2022-02-05T09:35:49Z</time>
      </trkpt>
      <trkpt lat="51.2915482185781" lon="4.838516972959042">
        <ele>24.07</ele>
        <time>2022-02-05T09:35:57Z</time>
      </trkpt>
      <trkpt lat="51.291429027915001" lon="4.838638007640839">
        <ele>23.949999999999999</ele>
        <time>2022-02-05T09:36:08Z</time>
      </trkpt>
      <trkpt lat="51.291247308254242" lon="4.838847890496254">
        <ele>23.850000000000001</ele>
        <time>2022-02-05T09:36:23Z</time>
      </trkpt>
      <trkpt lat="51.291100792586803" lon="4.839018043130636">
        <ele>23.780000000000001</ele>
        <time>2022-02-05T09:36:36Z</time>
      </trkpt>
      <trkpt lat="51.290952851995826" lon="4.839219711720944">
        <ele>23.75</ele>
        <time>2022-02-05T09:36:50Z</time>
      </trkpt>
      <trkpt lat="51.290818406268954" lon="4.839402856305242">
        <ele>23.68</ele>
        <time>2022-02-05T09:37:03Z</time>
      </trkpt>
      <trkpt lat="51.290648002177477" lon="4.839594969525933">
        <ele>23.640000000000001</ele>
        <time>2022-02-05T09:37:18Z</time>
      </trkpt>
      <trkpt lat="51.290511628612876" lon="4.839742071926594">
        <ele>23.600000000000001</ele>
        <time>2022-02-05T09:37:31Z</time>
      </trkpt>
      <trkpt lat="51.290472149848938" lon="4.839789681136608">
        <ele>23.57</ele>
        <time>2022-02-05T09:37:35Z</time>
      </trkpt>
      <trkpt lat="51.290315324440598" lon="4.839971233159304">
        <ele>23.539999999999999</ele>
        <time>2022-02-05T09:37:49Z</time>
      </trkpt>
      <trkpt lat="51.290100244805217" lon="4.840229228138924">
        <ele>23.460000000000001</ele>
        <time>2022-02-05T09:38:06Z</time>
      </trkpt>
      <trkpt lat="51.290017431601882" lon="4.840327799320221">
        <ele>23.449999999999999</ele>
        <time>2022-02-05T09:38:13Z</time>
      </trkpt>
      <trkpt lat="51.289919447153807" lon="4.84034825116396">
        <ele>23.420000000000002</ele>
        <time>2022-02-05T09:38:20Z</time>
      </trkpt>
      <trkpt lat="51.289831856265664" lon="4.840243812650442">
        <ele>23.390000000000001</ele>
        <time>2022-02-05T09:38:28Z</time>
      </trkpt>
      <trkpt lat="51.289747031405568" lon="4.840082712471485">
        <ele>23.289999999999999</ele>
        <time>2022-02-05T09:38:40Z</time>
      </trkpt>
      <trkpt lat="51.289682574570179" lon="4.839980034157634">
        <ele>23.25</ele>
        <time>2022-02-05T09:38:46Z</time>
      </trkpt>
      <trkpt lat="51.289550308138132" lon="4.8397072032094">
        <ele>23.18</ele>
        <time>2022-02-05T09:39:02Z</time>
      </trkpt>
      <trkpt lat="51.289445031434298" lon="4.839453063905239">
        <ele>23.170000000000002</ele>
        <time>2022-02-05T09:39:16Z</time>
      </trkpt>
      <trkpt lat="51.289357859641314" lon="4.839295819401741">
        <ele>23.16</ele>
        <time>2022-02-05T09:39:29Z</time>
      </trkpt>
      <trkpt lat="51.289236322045326" lon="4.839034890756011">
        <ele>23.16</ele>
        <time>2022-02-05T09:39:43Z</time>
      </trkpt>
      <trkpt lat="51.289230119436979" lon="4.839016366750002">
        <ele>23.149999999999999</ele>
        <time>2022-02-05T09:39:44Z</time>
      </trkpt>
      <trkpt lat="51.289111934602261" lon="4.838800113648176">
        <ele>23.120000000000001</ele>
        <time>2022-02-05T09:39:57Z</time>
      </trkpt>
      <trkpt lat="51.288997521623969" lon="4.838602636009455">
        <ele>23.120000000000001</ele>
        <time>2022-02-05T09:40:08Z</time>
      </trkpt>
      <trkpt lat="51.28890129737556" lon="4.838390490040183">
        <ele>23.09</ele>
        <time>2022-02-05T09:40:22Z</time>
      </trkpt>
      <trkpt lat="51.288784705102444" lon="4.838167279958725">
        <ele>23.039999999999999</ele>
        <time>2022-02-05T09:40:35Z</time>
      </trkpt>
      <trkpt lat="51.288639865815639" lon="4.837929988279939">
        <ele>22.940000000000001</ele>
        <time>2022-02-05T09:40:50Z</time>
      </trkpt>
      <trkpt lat="51.288589825853705" lon="4.837918588891625">
        <ele>22.93</ele>
        <time>2022-02-05T09:40:55Z</time>
      </trkpt>
      <trkpt lat="51.288420930504799" lon="4.837998971343041">
        <ele>22.850000000000001</ele>
        <time>2022-02-05T09:41:10Z</time>
      </trkpt>
      <trkpt lat="51.28828757442534" lon="4.838074743747711">
        <ele>22.789999999999999</ele>
        <time>2022-02-05T09:41:22Z</time>
      </trkpt>
      <trkpt lat="51.288111135363579" lon="4.838001066818833">
        <ele>22.719999999999999</ele>
        <time>2022-02-05T09:41:37Z</time>
      </trkpt>
      <trkpt lat="51.287905192002654" lon="4.837900819256902">
        <ele>22.600000000000001</ele>
        <time>2022-02-05T09:41:49Z</time>
      </trkpt>
      <trkpt lat="51.287818858399987" lon="4.837871817871928">
        <ele>22.52</ele>
        <time>2022-02-05T09:41:53Z</time>
      </trkpt>
      <trkpt lat="51.287796059623361" lon="4.837868884205818">
        <ele>22.489999999999998</ele>
        <time>2022-02-05T09:41:54Z</time>
      </trkpt>
      <trkpt lat="51.287775272503495" lon="4.837868884205818">
        <ele>22.48</ele>
        <time>2022-02-05T09:41:55Z</time>
      </trkpt>
      <trkpt lat="51.287752306088805" lon="4.837864525616169">
        <ele>22.48</ele>
        <time>2022-02-05T09:41:56Z</time>
      </trkpt>
      <trkpt lat="51.287576286122203" lon="4.837779281660914">
        <ele>20.109999999999999</ele>
        <time>2022-02-05T09:42:02Z</time>
      </trkpt>
      <trkpt lat="51.28750235773623" lon="4.837724380195141">
        <ele>20.09</ele>
        <time>2022-02-05T09:42:05Z</time>
      </trkpt>
      <trkpt lat="51.287475368008018" lon="4.837716333568096">
        <ele>20.09</ele>
        <time>2022-02-05T09:42:06Z</time>
      </trkpt>
      <trkpt lat="51.287447204813361" lon="4.83769747428596">
        <ele>20.079999999999998</ele>
        <time>2022-02-05T09:42:07Z</time>
      </trkpt>
      <trkpt lat="51.287417784333229" lon="4.837674340233207">
        <ele>20.079999999999998</ele>
        <time>2022-02-05T09:42:08Z</time>
      </trkpt>
      <trkpt lat="51.287388782948256" lon="4.837651289999485">
        <ele>20.07</ele>
        <time>2022-02-05T09:42:09Z</time>
      </trkpt>
      <trkpt lat="51.287364475429058" lon="4.837633268907666">
        <ele>20.07</ele>
        <time>2022-02-05T09:42:10Z</time>
      </trkpt>
      <trkpt lat="51.287340167909861" lon="4.837617762386799">
        <ele>20.079999999999998</ele>
        <time>2022-02-05T09:42:11Z</time>
      </trkpt>
      <trkpt lat="51.287313597276807" lon="4.837599154561758">
        <ele>20.07</ele>
        <time>2022-02-05T09:42:12Z</time>
      </trkpt>
      <trkpt lat="51.287285685539246" lon="4.837580714374781">
        <ele>20.079999999999998</ele>
        <time>2022-02-05T09:42:13Z</time>
      </trkpt>
      <trkpt lat="51.286900788545609" lon="4.837331352755427">
        <ele>20.079999999999998</ele>
        <time>2022-02-05T09:42:26Z</time>
      </trkpt>
      <trkpt lat="51.286534750834107" lon="4.837104957550764">
        <ele>20</ele>
        <time>2022-02-05T09:42:38Z</time>
      </trkpt>
      <trkpt lat="51.286271391436458" lon="4.836949724704027">
        <ele>19.989999999999998</ele>
        <time>2022-02-05T09:42:49Z</time>
      </trkpt>
      <trkpt lat="51.286178100854158" lon="4.836873281747103">
        <ele>19.989999999999998</ele>
        <time>2022-02-05T09:42:53Z</time>
      </trkpt>
      <trkpt lat="51.286152703687549" lon="4.83685408718884">
        <ele>19.989999999999998</ele>
        <time>2022-02-05T09:42:54Z</time>
      </trkpt>
      <trkpt lat="51.286120852455497" lon="4.836827851831913">
        <ele>19.989999999999998</ele>
        <time>2022-02-05T09:42:55Z</time>
      </trkpt>
      <trkpt lat="51.286086989566684" lon="4.836810836568475">
        <ele>19.98</ele>
        <time>2022-02-05T09:42:56Z</time>
      </trkpt>
      <trkpt lat="51.286057401448488" lon="4.836797090247273">
        <ele>19.98</ele>
        <time>2022-02-05T09:42:57Z</time>
      </trkpt>
      <trkpt lat="51.285790773108602" lon="4.836671613156796">
        <ele>19.98</ele>
        <time>2022-02-05T09:43:06Z</time>
      </trkpt>
      <trkpt lat="51.285394728183746" lon="4.836495509371162">
        <ele>19.93</ele>
        <time>2022-02-05T09:43:17Z</time>
      </trkpt>
      <trkpt lat="51.284969933331013" lon="4.836207507178187">
        <ele>19.870000000000001</ele>
        <time>2022-02-05T09:43:30Z</time>
      </trkpt>
      <trkpt lat="51.28469567745924" lon="4.836010364815593">
        <ele>19.850000000000001</ele>
        <time>2022-02-05T09:43:40Z</time>
      </trkpt>
      <trkpt lat="51.284493757411838" lon="4.835932161659002">
        <ele>19.75</ele>
        <time>2022-02-05T09:43:51Z</time>
      </trkpt>
      <trkpt lat="51.284430474042892" lon="4.835891090333462">
        <ele>19.710000000000001</ele>
        <time>2022-02-05T09:43:56Z</time>
      </trkpt>
      <trkpt lat="51.284277001395822" lon="4.835854629054666">
        <ele>19.600000000000001</ele>
        <time>2022-02-05T09:44:07Z</time>
      </trkpt>
      <trkpt lat="51.28421489149332" lon="4.835798386484385">
        <ele>19.559999999999999</ele>
        <time>2022-02-05T09:44:11Z</time>
      </trkpt>
      <trkpt lat="51.284199049696326" lon="4.835787741467357">
        <ele>19.550000000000001</ele>
        <time>2022-02-05T09:44:12Z</time>
      </trkpt>
      <trkpt lat="51.284179938957095" lon="4.835782879963517">
        <ele>19.52</ele>
        <time>2022-02-05T09:44:13Z</time>
      </trkpt>
      <trkpt lat="51.284163678064942" lon="4.835772654041648">
        <ele>19.510000000000002</ele>
        <time>2022-02-05T09:44:14Z</time>
      </trkpt>
      <trkpt lat="51.284149345010519" lon="4.83575907535851">
        <ele>19.489999999999998</ele>
        <time>2022-02-05T09:44:15Z</time>
      </trkpt>
      <trkpt lat="51.28413618542254" lon="4.835747173056006">
        <ele>19.48</ele>
        <time>2022-02-05T09:44:16Z</time>
      </trkpt>
      <trkpt lat="51.28398179076612" lon="4.835577271878719">
        <ele>18.579999999999998</ele>
        <time>2022-02-05T09:44:30Z</time>
      </trkpt>
      <trkpt lat="51.283965362235904" lon="4.835560508072376">
        <ele>18.57</ele>
        <time>2022-02-05T09:44:31Z</time>
      </trkpt>
      <trkpt lat="51.283940551802516" lon="4.835521364584565">
        <ele>18.550000000000001</ele>
        <time>2022-02-05T09:44:33Z</time>
      </trkpt>
      <trkpt lat="51.283820858225226" lon="4.835320198908448">
        <ele>18.460000000000001</ele>
        <time>2022-02-05T09:44:45Z</time>
      </trkpt>
      <trkpt lat="51.283719604834914" lon="4.835210228338838">
        <ele>18.93</ele>
        <time>2022-02-05T09:44:54Z</time>
      </trkpt>
      <trkpt lat="51.283706109970808" lon="4.835198828950524">
        <ele>18.91</ele>
        <time>2022-02-05T09:44:55Z</time>
      </trkpt>
      <trkpt lat="51.283693620935082" lon="4.835186591371894">
        <ele>18.899999999999999</ele>
        <time>2022-02-05T09:44:56Z</time>
      </trkpt>
      <trkpt lat="51.283675516024232" lon="4.835176449269056">
        <ele>18.91</ele>
        <time>2022-02-05T09:44:57Z</time>
      </trkpt>
      <trkpt lat="51.283648274838924" lon="4.835150549188256">
        <ele>18.899999999999999</ele>
        <time>2022-02-05T09:44:59Z</time>
      </trkpt>
      <trkpt lat="51.283634779974818" lon="4.835121799260378">
        <ele>18.890000000000001</ele>
        <time>2022-02-05T09:45:00Z</time>
      </trkpt>
      <trkpt lat="51.283625978976488" lon="4.835106628015637">
        <ele>18.890000000000001</ele>
        <time>2022-02-05T09:45:01Z</time>
      </trkpt>
      <trkpt lat="51.283614663407207" lon="4.835093468427658">
        <ele>18.879999999999999</ele>
        <time>2022-02-05T09:45:02Z</time>
      </trkpt>
      <trkpt lat="51.283600246533751" lon="4.835075782611966">
        <ele>18.870000000000001</ele>
        <time>2022-02-05T09:45:03Z</time>
      </trkpt>
      <trkpt lat="51.283584823831916" lon="4.835054660215974">
        <ele>18.870000000000001</ele>
        <time>2022-02-05T09:45:04Z</time>
      </trkpt>
      <trkpt lat="51.283566383644938" lon="4.835030771791935">
        <ele>18.870000000000001</ele>
        <time>2022-02-05T09:45:05Z</time>
      </trkpt>
      <trkpt lat="51.283549536019564" lon="4.835014678537846">
        <ele>18.859999999999999</ele>
        <time>2022-02-05T09:45:06Z</time>
      </trkpt>
      <trkpt lat="51.283398997038603" lon="4.83488199301064">
        <ele>18.789999999999999</ele>
        <time>2022-02-05T09:45:19Z</time>
      </trkpt>
      <trkpt lat="51.283269328996539" lon="4.834680240601301">
        <ele>18.710000000000001</ele>
        <time>2022-02-05T09:45:32Z</time>
      </trkpt>
      <trkpt lat="51.283151898533106" lon="4.834446469321847">
        <ele>18.66</ele>
        <time>2022-02-05T09:45:45Z</time>
      </trkpt>
      <trkpt lat="51.283003455027938" lon="4.834204651415348">
        <ele>18.649999999999999</ele>
        <time>2022-02-05T09:46:01Z</time>
      </trkpt>
      <trkpt lat="51.282859537750483" lon="4.833868034183979">
        <ele>18.57</ele>
        <time>2022-02-05T09:46:18Z</time>
      </trkpt>
      <trkpt lat="51.282793069258332" lon="4.833724619820714">
        <ele>14.73</ele>
        <time>2022-02-05T09:46:26Z</time>
      </trkpt>
      <trkpt lat="51.282713944092393" lon="4.833485567942262">
        <ele>17.510000000000002</ele>
        <time>2022-02-05T09:46:39Z</time>
      </trkpt>
      <trkpt lat="51.282541947439313" lon="4.833161858841777">
        <ele>17.420000000000002</ele>
        <time>2022-02-05T09:46:58Z</time>
      </trkpt>
      <trkpt lat="51.282437844201922" lon="4.832822810858488">
        <ele>17.300000000000001</ele>
        <time>2022-02-05T09:47:19Z</time>
      </trkpt>
      <trkpt lat="51.282468438148499" lon="4.832771848887205">
        <ele>17.280000000000001</ele>
        <time>2022-02-05T09:47:22Z</time>
      </trkpt>
      <trkpt lat="51.282473299652338" lon="4.8327393271029">
        <ele>17.280000000000001</ele>
        <time>2022-02-05T09:47:23Z</time>
      </trkpt>
      <trkpt lat="51.282481262460351" lon="4.832720467820764">
        <ele>17.27</ele>
        <time>2022-02-05T09:47:24Z</time>
      </trkpt>
      <trkpt lat="51.282492326572537" lon="4.832684006541967">
        <ele>17.25</ele>
        <time>2022-02-05T09:47:25Z</time>
      </trkpt>
      <trkpt lat="51.282503139227629" lon="4.832664728164673">
        <ele>17.260000000000002</ele>
        <time>2022-02-05T09:47:26Z</time>
      </trkpt>
      <trkpt lat="51.282514706254005" lon="4.832634050399065">
        <ele>17.25</ele>
        <time>2022-02-05T09:47:27Z</time>
      </trkpt>
      <trkpt lat="51.282542534172535" lon="4.832588285207748">
        <ele>17.239999999999998</ele>
        <time>2022-02-05T09:47:29Z</time>
      </trkpt>
      <trkpt lat="51.282555609941483" lon="4.832556853070855">
        <ele>17.239999999999998</ele>
        <time>2022-02-05T09:47:30Z</time>
      </trkpt>
      <trkpt lat="51.282567093148828" lon="4.83253413811326">
        <ele>17.23</ele>
        <time>2022-02-05T09:47:31Z</time>
      </trkpt>
      <trkpt lat="51.282580504193902" lon="4.832523660734296">
        <ele>17.219999999999999</ele>
        <time>2022-02-05T09:47:32Z</time>
      </trkpt>
      <trkpt lat="51.282590059563518" lon="4.832502538338304">
        <ele>17.219999999999999</ele>
        <time>2022-02-05T09:47:33Z</time>
      </trkpt>
      <trkpt lat="51.282602213323116" lon="4.832488624379039">
        <ele>17.210000000000001</ele>
        <time>2022-02-05T09:47:34Z</time>
      </trkpt>
      <trkpt lat="51.282801954075694" lon="4.832008928060532">
        <ele>17.809999999999999</ele>
        <time>2022-02-05T09:48:04Z</time>
      </trkpt>
      <trkpt lat="51.282811928540468" lon="4.831976657733321">
        <ele>17.809999999999999</ele>
        <time>2022-02-05T09:48:05Z</time>
      </trkpt>
      <trkpt lat="51.282821819186211" lon="4.83194824308157">
        <ele>17.800000000000001</ele>
        <time>2022-02-05T09:48:06Z</time>
      </trkpt>
      <trkpt lat="51.282828357070684" lon="4.831900214776397">
        <ele>17.780000000000001</ele>
        <time>2022-02-05T09:48:07Z</time>
      </trkpt>
      <trkpt lat="51.282839085906744" lon="4.831862831488252">
        <ele>17.77</ele>
        <time>2022-02-05T09:48:08Z</time>
      </trkpt>
      <trkpt lat="51.282904883846641" lon="4.831767696887255">
        <ele>17.710000000000001</ele>
        <time>2022-02-05T09:48:14Z</time>
      </trkpt>
      <trkpt lat="51.282919133082032" lon="4.831753028556705">
        <ele>17.690000000000001</ele>
        <time>2022-02-05T09:48:15Z</time>
      </trkpt>
      <trkpt lat="51.282937154173851" lon="4.831750597804785">
        <ele>17.670000000000002</ele>
        <time>2022-02-05T09:48:16Z</time>
      </trkpt>
      <trkpt lat="51.28296984359622" lon="4.831707933917642">
        <ele>17.66</ele>
        <time>2022-02-05T09:48:19Z</time>
      </trkpt>
      <trkpt lat="51.282981662079692" lon="4.83168538659811">
        <ele>17.649999999999999</ele>
        <time>2022-02-05T09:48:20Z</time>
      </trkpt>
      <trkpt lat="51.282995576038957" lon="4.831669796258211">
        <ele>17.640000000000001</ele>
        <time>2022-02-05T09:48:21Z</time>
      </trkpt>
      <trkpt lat="51.283010831102729" lon="4.831652445718646">
        <ele>17.620000000000001</ele>
        <time>2022-02-05T09:48:22Z</time>
      </trkpt>
      <trkpt lat="51.283143432810903" lon="4.831486735492945">
        <ele>17.48</ele>
        <time>2022-02-05T09:48:34Z</time>
      </trkpt>
      <trkpt lat="51.28315256908536" lon="4.831462176516652">
        <ele>17.48</ele>
        <time>2022-02-05T09:48:35Z</time>
      </trkpt>
      <trkpt lat="51.283263545483351" lon="4.831260172650218">
        <ele>17.329999999999998</ele>
        <time>2022-02-05T09:48:48Z</time>
      </trkpt>
      <trkpt lat="51.283345771953464" lon="4.831026149913669">
        <ele>17.16</ele>
        <time>2022-02-05T09:49:01Z</time>
      </trkpt>
      <trkpt lat="51.283346526324749" lon="4.831008799374104">
        <ele>17.16</ele>
        <time>2022-02-05T09:49:02Z</time>
      </trkpt>
      <trkpt lat="51.283348118886352" lon="4.830986252054572">
        <ele>17.140000000000001</ele>
        <time>2022-02-05T09:49:03Z</time>
      </trkpt>
      <trkpt lat="51.283353818580508" lon="4.830874186009169">
        <ele>17.100000000000001</ele>
        <time>2022-02-05T09:49:07Z</time>
      </trkpt>
      <trkpt lat="51.283337641507387" lon="4.830833030864596">
        <ele>17.09</ele>
        <time>2022-02-05T09:49:08Z</time>
      </trkpt>
      <trkpt lat="51.283323224633932" lon="4.830796150490642">
        <ele>17.079999999999998</ele>
        <time>2022-02-05T09:49:09Z</time>
      </trkpt>
      <trkpt lat="51.283297827467322" lon="4.830667320638895">
        <ele>17.02</ele>
        <time>2022-02-05T09:49:13Z</time>
      </trkpt>
      <trkpt lat="51.283237561583519" lon="4.83037973754108">
        <ele>16.890000000000001</ele>
        <time>2022-02-05T09:49:27Z</time>
      </trkpt>
      <trkpt lat="51.283194059506059" lon="4.830196844413877">
        <ele>19.34</ele>
        <time>2022-02-05T09:49:36Z</time>
      </trkpt>
      <trkpt lat="51.283187353983521" lon="4.830180667340756">
        <ele>19.329999999999998</ele>
        <time>2022-02-05T09:49:37Z</time>
      </trkpt>
      <trkpt lat="51.283162040635943" lon="4.830106068402529">
        <ele>16.890000000000001</ele>
        <time>2022-02-05T09:49:39Z</time>
      </trkpt>
      <trkpt lat="51.283107306808233" lon="4.829769786447287">
        <ele>16.800000000000001</ele>
        <time>2022-02-05T09:49:53Z</time>
      </trkpt>
      <trkpt lat="51.283094650134444" lon="4.82958965934813">
        <ele>16.77</ele>
        <time>2022-02-05T09:50:01Z</time>
      </trkpt>
      <trkpt lat="51.283092889934778" lon="4.829559316858649">
        <ele>16.760000000000002</ele>
        <time>2022-02-05T09:50:02Z</time>
      </trkpt>
      <trkpt lat="51.283088950440288" lon="4.829529980197549">
        <ele>16.760000000000002</ele>
        <time>2022-02-05T09:50:03Z</time>
      </trkpt>
      <trkpt lat="51.283078975975513" lon="4.829472061246634">
        <ele>16.75</ele>
        <time>2022-02-05T09:50:04Z</time>
      </trkpt>
      <trkpt lat="51.28307051025331" lon="4.829437276348472">
        <ele>16.75</ele>
        <time>2022-02-05T09:50:05Z</time>
      </trkpt>
      <trkpt lat="51.283004796132445" lon="4.829157823696733">
        <ele>16.719999999999999</ele>
        <time>2022-02-05T09:50:17Z</time>
      </trkpt>
      <trkpt lat="51.282968753948808" lon="4.828995047137141">
        <ele>16.710000000000001</ele>
        <time>2022-02-05T09:50:24Z</time>
      </trkpt>
      <trkpt lat="51.282964227721095" lon="4.828974846750498">
        <ele>16.710000000000001</ele>
        <time>2022-02-05T09:50:25Z</time>
      </trkpt>
      <trkpt lat="51.282960874959826" lon="4.82895347289741">
        <ele>16.710000000000001</ele>
        <time>2022-02-05T09:50:26Z</time>
      </trkpt>
      <trkpt lat="51.28289457410574" lon="4.828755827620626">
        <ele>15.92</ele>
        <time>2022-02-05T09:50:36Z</time>
      </trkpt>
      <trkpt lat="51.282852999866009" lon="4.828539742156863">
        <ele>15.9</ele>
        <time>2022-02-05T09:50:47Z</time>
      </trkpt>
      <trkpt lat="51.282823495566845" lon="4.828349640592933">
        <ele>15.869999999999999</ele>
        <time>2022-02-05T09:50:55Z</time>
      </trkpt>
      <trkpt lat="51.282815700396895" lon="4.828320303931832">
        <ele>15.859999999999999</ele>
        <time>2022-02-05T09:50:56Z</time>
      </trkpt>
      <trkpt lat="51.282808072865009" lon="4.82828987762332">
        <ele>15.869999999999999</ele>
        <time>2022-02-05T09:50:57Z</time>
      </trkpt>
      <trkpt lat="51.282800948247313" lon="4.828252661973238">
        <ele>15.869999999999999</ele>
        <time>2022-02-05T09:50:58Z</time>
      </trkpt>
      <trkpt lat="51.282797092571855" lon="4.828215865418315">
        <ele>15.869999999999999</ele>
        <time>2022-02-05T09:50:59Z</time>
      </trkpt>
      <trkpt lat="51.282743448391557" lon="4.827816132456064">
        <ele>15.85</ele>
        <time>2022-02-05T09:51:08Z</time>
      </trkpt>
      <trkpt lat="51.282660132274032" lon="4.827299723401666">
        <ele>15.800000000000001</ele>
        <time>2022-02-05T09:51:20Z</time>
      </trkpt>
      <trkpt lat="51.282589305192232" lon="4.826736627146602">
        <ele>15.85</ele>
        <time>2022-02-05T09:51:33Z</time>
      </trkpt>
      <trkpt lat="51.282512610778213" lon="4.8262151889503">
        <ele>15.74</ele>
        <time>2022-02-05T09:51:43Z</time>
      </trkpt>
      <trkpt lat="51.282425271347165" lon="4.825645135715604">
        <ele>15.69</ele>
        <time>2022-02-05T09:51:54Z</time>
      </trkpt>
      <trkpt lat="51.282301470637321" lon="4.825116572901607">
        <ele>15.66</ele>
        <time>2022-02-05T09:52:04Z</time>
      </trkpt>
      <trkpt lat="51.282087564468384" lon="4.824513997882605">
        <ele>15.609999999999999</ele>
        <time>2022-02-05T09:52:16Z</time>
      </trkpt>
      <trkpt lat="51.281944401562214" lon="4.824021980166435">
        <ele>15.58</ele>
        <time>2022-02-05T09:52:25Z</time>
      </trkpt>
      <trkpt lat="51.281796796247363" lon="4.823495177552104">
        <ele>15.550000000000001</ele>
        <time>2022-02-05T09:52:34Z</time>
      </trkpt>
      <trkpt lat="51.281598061323166" lon="4.822958232834935">
        <ele>15.56</ele>
        <time>2022-02-05T09:52:46Z</time>
      </trkpt>
      <trkpt lat="51.281464453786612" lon="4.82260862365365">
        <ele>15.59</ele>
        <time>2022-02-05T09:52:55Z</time>
      </trkpt>
      <trkpt lat="51.281400918960571" lon="4.82230419293046">
        <ele>15.6</ele>
        <time>2022-02-05T09:53:01Z</time>
      </trkpt>
      <trkpt lat="51.281409719958901" lon="4.822268234565854">
        <ele>15.6</ele>
        <time>2022-02-05T09:53:02Z</time>
      </trkpt>
      <trkpt lat="51.281424555927515" lon="4.822231940925121">
        <ele>15.609999999999999</ele>
        <time>2022-02-05T09:53:03Z</time>
      </trkpt>
      <trkpt lat="51.281446097418666" lon="4.822202268987894">
        <ele>15.609999999999999</ele>
        <time>2022-02-05T09:53:04Z</time>
      </trkpt>
      <trkpt lat="51.28146780654788" lon="4.822179721668363">
        <ele>15.609999999999999</ele>
        <time>2022-02-05T09:53:05Z</time>
      </trkpt>
      <trkpt lat="51.281490689143538" lon="4.822156252339482">
        <ele>14.81</ele>
        <time>2022-02-05T09:53:06Z</time>
      </trkpt>
      <trkpt lat="51.281538717448711" lon="4.822109481319785">
        <ele>17.120000000000001</ele>
        <time>2022-02-05T09:53:08Z</time>
      </trkpt>
      <trkpt lat="51.281795622780919" lon="4.821721063926816">
        <ele>17.100000000000001</ele>
        <time>2022-02-05T09:53:17Z</time>
      </trkpt>
      <trkpt lat="51.281831078231335" lon="4.821672448888421">
        <ele>17.100000000000001</ele>
        <time>2022-02-05T09:53:18Z</time>
      </trkpt>
      <trkpt lat="51.282031154260039" lon="4.821388889104128">
        <ele>17.09</ele>
        <time>2022-02-05T09:53:23Z</time>
      </trkpt>
      <trkpt lat="51.28228235989809" lon="4.821089068427682">
        <ele>17.079999999999998</ele>
        <time>2022-02-05T09:53:29Z</time>
      </trkpt>
      <trkpt lat="51.282321503385901" lon="4.821046488359571">
        <ele>17.07</ele>
        <time>2022-02-05T09:53:30Z</time>
      </trkpt>
      <trkpt lat="51.282354863360524" lon="4.82099904678762">
        <ele>17.07</ele>
        <time>2022-02-05T09:53:31Z</time>
      </trkpt>
      <trkpt lat="51.282390570268035" lon="4.820955377072096">
        <ele>17.07</ele>
        <time>2022-02-05T09:53:32Z</time>
      </trkpt>
      <trkpt lat="51.282424684613943" lon="4.820925872772932">
        <ele>17.059999999999999</ele>
        <time>2022-02-05T09:53:33Z</time>
      </trkpt>
      <trkpt lat="51.28245871514082" lon="4.820896033197641">
        <ele>17.059999999999999</ele>
        <time>2022-02-05T09:53:34Z</time>
      </trkpt>
      <trkpt lat="51.282497104257345" lon="4.820866696536541">
        <ele>17.059999999999999</ele>
        <time>2022-02-05T09:53:35Z</time>
      </trkpt>
      <trkpt lat="51.282525267452002" lon="4.820832582190633">
        <ele>17.050000000000001</ele>
        <time>2022-02-05T09:53:36Z</time>
      </trkpt>
      <trkpt lat="51.282546892762184" lon="4.82080752030015">
        <ele>17.039999999999999</ele>
        <time>2022-02-05T09:53:37Z</time>
      </trkpt>
      <trkpt lat="51.282571032643318" lon="4.82078748755157">
        <ele>17.039999999999999</ele>
        <time>2022-02-05T09:53:38Z</time>
      </trkpt>
      <trkpt lat="51.282588886097074" lon="4.820759240537882">
        <ele>17.039999999999999</ele>
        <time>2022-02-05T09:53:39Z</time>
      </trkpt>
      <trkpt lat="51.282604979351163" lon="4.820734597742558">
        <ele>17.030000000000001</ele>
        <time>2022-02-05T09:53:40Z</time>
      </trkpt>
      <trkpt lat="51.282622748985887" lon="4.820705596357584">
        <ele>17.02</ele>
        <time>2022-02-05T09:53:41Z</time>
      </trkpt>
      <trkpt lat="51.282841013744473" lon="4.82047869823873">
        <ele>16.960000000000001</ele>
        <time>2022-02-05T09:53:52Z</time>
      </trkpt>
      <trkpt lat="51.283154748380184" lon="4.820195641368628">
        <ele>16.82</ele>
        <time>2022-02-05T09:54:03Z</time>
      </trkpt>
      <trkpt lat="51.283383993431926" lon="4.819953739643097">
        <ele>16.620000000000001</ele>
        <time>2022-02-05T09:54:14Z</time>
      </trkpt>
      <trkpt lat="51.283504189923406" lon="4.819820467382669">
        <ele>16.43</ele>
        <time>2022-02-05T09:54:22Z</time>
      </trkpt>
      <trkpt lat="51.28351517021656" lon="4.819797165691853">
        <ele>16.399999999999999</ele>
        <time>2022-02-05T09:54:23Z</time>
      </trkpt>
      <trkpt lat="51.283576525747776" lon="4.819675795733929">
        <ele>16.27</ele>
        <time>2022-02-05T09:54:28Z</time>
      </trkpt>
      <trkpt lat="51.283640982583165" lon="4.819594407454133">
        <ele>16.050000000000001</ele>
        <time>2022-02-05T09:54:37Z</time>
      </trkpt>
      <trkpt lat="51.283694878220558" lon="4.819597760215402">
        <ele>15.99</ele>
        <time>2022-02-05T09:54:39Z</time>
      </trkpt>
      <trkpt lat="51.28374332562089" lon="4.819564651697874">
        <ele>15.880000000000001</ele>
        <time>2022-02-05T09:54:43Z</time>
      </trkpt>
      <trkpt lat="51.283865198493004" lon="4.819468511268497">
        <ele>15.630000000000001</ele>
        <time>2022-02-05T09:54:52Z</time>
      </trkpt>
      <trkpt lat="51.283877352252603" lon="4.819459794089198">
        <ele>15.6</ele>
        <time>2022-02-05T09:54:53Z</time>
      </trkpt>
      <trkpt lat="51.283935103565454" lon="4.819386620074511">
        <ele>15.43</ele>
        <time>2022-02-05T09:54:59Z</time>
      </trkpt>
      <trkpt lat="51.28394172526896" lon="4.819369688630104">
        <ele>15.4</ele>
        <time>2022-02-05T09:55:00Z</time>
      </trkpt>
      <trkpt lat="51.283957064151764" lon="4.819335406646133">
        <ele>15.34</ele>
        <time>2022-02-05T09:55:02Z</time>
      </trkpt>
      <trkpt lat="51.283971900120378" lon="4.81930154375732">
        <ele>15.26</ele>
        <time>2022-02-05T09:55:05Z</time>
      </trkpt>
      <trkpt lat="51.283974833786488" lon="4.819270530715585">
        <ele>15.19</ele>
        <time>2022-02-05T09:55:07Z</time>
      </trkpt>
      <trkpt lat="51.283974414691329" lon="4.819265250116587">
        <ele>15.16</ele>
        <time>2022-02-05T09:55:08Z</time>
      </trkpt>
      <trkpt lat="51.283988496288657" lon="4.819271871820092">
        <ele>15.130000000000001</ele>
        <time>2022-02-05T09:55:09Z</time>
      </trkpt>
      <trkpt lat="51.284002829343081" lon="4.81927371583879">
        <ele>15.09</ele>
        <time>2022-02-05T09:55:10Z</time>
      </trkpt>
      <trkpt lat="51.284002242609859" lon="4.819260640069842">
        <ele>15.06</ele>
        <time>2022-02-05T09:55:11Z</time>
      </trkpt>
      <trkpt lat="51.28398715518415" lon="4.819238008931279">
        <ele>15.039999999999999</ele>
        <time>2022-02-05T09:55:12Z</time>
      </trkpt>
      <trkpt lat="51.283974582329392" lon="4.81921412050724">
        <ele>15.01</ele>
        <time>2022-02-05T09:55:13Z</time>
      </trkpt>
      <trkpt lat="51.283966787159443" lon="4.819198530167341">
        <ele>14.99</ele>
        <time>2022-02-05T09:55:14Z</time>
      </trkpt>
      <trkpt lat="51.283951699733734" lon="4.819184616208077">
        <ele>14.970000000000001</ele>
        <time>2022-02-05T09:55:15Z</time>
      </trkpt>
      <trkpt lat="51.283935690298676" lon="4.819111861288548">
        <ele>14.890000000000001</ele>
        <time>2022-02-05T09:55:18Z</time>
      </trkpt>
      <trkpt lat="51.283876011148095" lon="4.819022845476866">
        <ele>14.77</ele>
        <time>2022-02-05T09:55:23Z</time>
      </trkpt>
      <trkpt lat="51.283790431916714" lon="4.81892729178071">
        <ele>14.56</ele>
        <time>2022-02-05T09:55:33Z</time>
      </trkpt>
      <trkpt lat="51.283675096929073" lon="4.818764347583056">
        <ele>14.32</ele>
        <time>2022-02-05T09:55:46Z</time>
      </trkpt>
      <trkpt lat="51.283596223220229" lon="4.818583549931645">
        <ele>14.199999999999999</ele>
        <time>2022-02-05T09:55:54Z</time>
      </trkpt>
      <trkpt lat="51.283492874354124" lon="4.818374253809452">
        <ele>14.050000000000001</ele>
        <time>2022-02-05T09:56:09Z</time>
      </trkpt>
      <trkpt lat="51.283443002030253" lon="4.818327818065882">
        <ele>14.039999999999999</ele>
        <time>2022-02-05T09:56:13Z</time>
      </trkpt>
      <trkpt lat="51.283278381451964" lon="4.818121623247862">
        <ele>14.779999999999999</ele>
        <time>2022-02-05T09:56:28Z</time>
      </trkpt>
      <trkpt lat="51.283220294862986" lon="4.818053226917982">
        <ele>14.779999999999999</ele>
        <time>2022-02-05T09:56:33Z</time>
      </trkpt>
      <trkpt lat="51.283177463337779" lon="4.818016178905964">
        <ele>14.800000000000001</ele>
        <time>2022-02-05T09:56:37Z</time>
      </trkpt>
      <trkpt lat="51.283011836931109" lon="4.817849295213819">
        <ele>14.869999999999999</ele>
        <time>2022-02-05T09:56:51Z</time>
      </trkpt>
      <trkpt lat="51.282881917431951" lon="4.817733876407147">
        <ele>14.91</ele>
        <time>2022-02-05T09:57:01Z</time>
      </trkpt>
      <trkpt lat="51.282723415642977" lon="4.817610243335366">
        <ele>14.949999999999999</ele>
        <time>2022-02-05T09:57:14Z</time>
      </trkpt>
      <trkpt lat="51.282535912469029" lon="4.817659026011825">
        <ele>14.960000000000001</ele>
        <time>2022-02-05T09:57:28Z</time>
      </trkpt>
      <trkpt lat="51.282360227778554" lon="4.817758183926344">
        <ele>14.94</ele>
        <time>2022-02-05T09:57:41Z</time>
      </trkpt>
      <trkpt lat="51.282228380441666" lon="4.817832028493285">
        <ele>14.92</ele>
        <time>2022-02-05T09:57:53Z</time>
      </trkpt>
      <trkpt lat="51.282067866995931" lon="4.817937640473247">
        <ele>14.890000000000001</ele>
        <time>2022-02-05T09:58:06Z</time>
      </trkpt>
      <trkpt lat="51.281855050474405" lon="4.818043000996113">
        <ele>14.83</ele>
        <time>2022-02-05T09:58:20Z</time>
      </trkpt>
      <trkpt lat="51.28168473020196" lon="4.818150540813804">
        <ele>14.77</ele>
        <time>2022-02-05T09:58:36Z</time>
      </trkpt>
      <trkpt lat="51.281625889241695" lon="4.81823343783617">
        <ele>14.67</ele>
        <time>2022-02-05T09:59:07Z</time>
      </trkpt>
      <trkpt lat="51.281500495970249" lon="4.818317508324981">
        <ele>14.65</ele>
        <time>2022-02-05T09:59:21Z</time>
      </trkpt>
      <trkpt lat="51.281477864831686" lon="4.818329326808453">
        <ele>14.640000000000001</ele>
        <time>2022-02-05T09:59:23Z</time>
      </trkpt>
      <trkpt lat="51.281341994181275" lon="4.818413648754358">
        <ele>14.609999999999999</ele>
        <time>2022-02-05T09:59:37Z</time>
      </trkpt>
      <trkpt lat="51.281150300055742" lon="4.818500485271215">
        <ele>16.68</ele>
        <time>2022-02-05T09:59:56Z</time>
      </trkpt>
      <trkpt lat="51.281131189316511" lon="4.81852269731462">
        <ele>13.960000000000001</ele>
        <time>2022-02-05T09:59:58Z</time>
      </trkpt>
      <trkpt lat="51.280892975628376" lon="4.818695615977049">
        <ele>13.82</ele>
        <time>2022-02-05T10:00:18Z</time>
      </trkpt>
      <trkpt lat="51.280586365610361" lon="4.818816147744656">
        <ele>13.59</ele>
        <time>2022-02-05T10:00:39Z</time>
      </trkpt>
      <trkpt lat="51.280339937657118" lon="4.818933242931962">
        <ele>13.32</ele>
        <time>2022-02-05T10:00:59Z</time>
      </trkpt>
      <trkpt lat="51.28019199706614" lon="4.819005494937301">
        <ele>11.56</ele>
        <time>2022-02-05T10:01:10Z</time>
      </trkpt>
      <trkpt lat="51.279810201376677" lon="4.819308500736952">
        <ele>11.34</ele>
        <time>2022-02-05T10:01:25Z</time>
      </trkpt>
      <trkpt lat="51.279588500037789" lon="4.819332389160991">
        <ele>11.220000000000001</ele>
        <time>2022-02-05T10:01:35Z</time>
      </trkpt>
      <trkpt lat="51.279312316328287" lon="4.819420231506228">
        <ele>11.039999999999999</ele>
        <time>2022-02-05T10:01:46Z</time>
      </trkpt>
      <trkpt lat="51.279289098456502" lon="4.819423165172339">
        <ele>11.02</ele>
        <time>2022-02-05T10:01:47Z</time>
      </trkpt>
      <trkpt lat="51.279265964403749" lon="4.819438336417079">
        <ele>10.99</ele>
        <time>2022-02-05T10:01:48Z</time>
      </trkpt>
      <trkpt lat="51.2792391423136" lon="4.819459961727262">
        <ele>10.970000000000001</ele>
        <time>2022-02-05T10:01:49Z</time>
      </trkpt>
      <trkpt lat="51.279201088473201" lon="4.819498099386692">
        <ele>10.949999999999999</ele>
        <time>2022-02-05T10:01:50Z</time>
      </trkpt>
      <trkpt lat="51.279177200049162" lon="4.819522155448794">
        <ele>10.92</ele>
        <time>2022-02-05T10:01:51Z</time>
      </trkpt>
      <trkpt lat="51.279151886701584" lon="4.819554006680846">
        <ele>10.9</ele>
        <time>2022-02-05T10:01:52Z</time>
      </trkpt>
      <trkpt lat="51.279111485928297" lon="4.819593317806721">
        <ele>10.880000000000001</ele>
        <time>2022-02-05T10:01:53Z</time>
      </trkpt>
      <trkpt lat="51.279076533392072" lon="4.819639250636101">
        <ele>10.85</ele>
        <time>2022-02-05T10:01:54Z</time>
      </trkpt>
      <trkpt lat="51.279044933617115" lon="4.819671185687184">
        <ele>10.83</ele>
        <time>2022-02-05T10:01:55Z</time>
      </trkpt>
      <trkpt lat="51.279008472338319" lon="4.819714268669486">
        <ele>10.81</ele>
        <time>2022-02-05T10:01:56Z</time>
      </trkpt>
      <trkpt lat="51.278607314452529" lon="4.820097405463457">
        <ele>10.56</ele>
        <time>2022-02-05T10:02:08Z</time>
      </trkpt>
      <trkpt lat="51.278374381363392" lon="4.820373170077801">
        <ele>10.380000000000001</ele>
        <time>2022-02-05T10:02:17Z</time>
      </trkpt>
      <trkpt lat="51.278102975338697" lon="4.820681205019355">
        <ele>10.18</ele>
        <time>2022-02-05T10:02:26Z</time>
      </trkpt>
      <trkpt lat="51.277719754725695" lon="4.821087056770921">
        <ele>9.960000000000001</ele>
        <time>2022-02-05T10:02:38Z</time>
      </trkpt>
      <trkpt lat="51.277317339554429" lon="4.821519646793604">
        <ele>9.710000000000001</ele>
        <time>2022-02-05T10:02:51Z</time>
      </trkpt>
      <trkpt lat="51.27695725299418" lon="4.821864394471049">
        <ele>9.449999999999999</ele>
        <time>2022-02-05T10:03:03Z</time>
      </trkpt>
      <trkpt lat="51.276627173647285" lon="4.822196820750833">
        <ele>9.17</ele>
        <time>2022-02-05T10:03:14Z</time>
      </trkpt>
      <trkpt lat="51.276363143697381" lon="4.82257978990674">
        <ele>8.9</ele>
        <time>2022-02-05T10:03:24Z</time>
      </trkpt>
      <trkpt lat="51.276141777634621" lon="4.822803921997547">
        <ele>8.52</ele>
        <time>2022-02-05T10:03:37Z</time>
      </trkpt>
      <trkpt lat="51.276139598339796" lon="4.822827307507396">
        <ele>8.49</ele>
        <time>2022-02-05T10:03:38Z</time>
      </trkpt>
      <trkpt lat="51.276153931394219" lon="4.822875168174505">
        <ele>8.4</ele>
        <time>2022-02-05T10:03:41Z</time>
      </trkpt>
      <trkpt lat="51.276205061003566" lon="4.823073651641607">
        <ele>8.18</ele>
        <time>2022-02-05T10:03:48Z</time>
      </trkpt>
      <trkpt lat="51.27621210180223" lon="4.823225531727076">
        <ele>8.029999999999999</ele>
        <time>2022-02-05T10:03:53Z</time>
      </trkpt>
      <trkpt lat="51.276210341602564" lon="4.823447400704026">
        <ele>7.92</ele>
        <time>2022-02-05T10:03:57Z</time>
      </trkpt>
      <trkpt lat="51.276208581402898" lon="4.823573799803853">
        <ele>7.83</ele>
        <time>2022-02-05T10:04:01Z</time>
      </trkpt>
      <trkpt lat="51.27624336630106" lon="4.823951488360763">
        <ele>9.529999999999999</ele>
        <time>2022-02-05T10:04:18Z</time>
      </trkpt>
      <trkpt lat="51.276250155642629" lon="4.823972191661596">
        <ele>9.52</ele>
        <time>2022-02-05T10:04:19Z</time>
      </trkpt>
      <trkpt lat="51.276242025196552" lon="4.824049221351743">
        <ele>9.48</ele>
        <time>2022-02-05T10:04:22Z</time>
      </trkpt>
      <trkpt lat="51.276250490918756" lon="4.82409255579114">
        <ele>9.460000000000001</ele>
        <time>2022-02-05T10:04:24Z</time>
      </trkpt>
      <trkpt lat="51.276250910013914" lon="4.824263798072934">
        <ele>9.4</ele>
        <time>2022-02-05T10:04:32Z</time>
      </trkpt>
      <trkpt lat="51.276259291917086" lon="4.824501173570752">
        <ele>9.35</ele>
        <time>2022-02-05T10:04:43Z</time>
      </trkpt>
      <trkpt lat="51.276262309402227" lon="4.824557080864906">
        <ele>9.35</ele>
        <time>2022-02-05T10:04:45Z</time>
      </trkpt>
      <trkpt lat="51.276321904733777" lon="4.824717342853546">
        <ele>9.33</ele>
        <time>2022-02-05T10:04:53Z</time>
      </trkpt>
      <trkpt lat="51.27638409845531" lon="4.824845166876912">
        <ele>9.33</ele>
        <time>2022-02-05T10:05:00Z</time>
      </trkpt>
      <trkpt lat="51.27649256028235" lon="4.825136438012123">
        <ele>9.32</ele>
        <time>2022-02-05T10:05:15Z</time>
      </trkpt>
      <trkpt lat="51.276532877236605" lon="4.825399294495583">
        <ele>9.300000000000001</ele>
        <time>2022-02-05T10:05:27Z</time>
      </trkpt>
      <trkpt lat="51.276585599407554" lon="4.825622336938977">
        <ele>9.279999999999999</ele>
        <time>2022-02-05T10:05:39Z</time>
      </trkpt>
      <trkpt lat="51.276595992967486" lon="4.825739935040474">
        <ele>9.26</ele>
        <time>2022-02-05T10:05:46Z</time>
      </trkpt>
      <trkpt lat="51.276687607169151" lon="4.826009832322598">
        <ele>9.199999999999999</ele>
        <time>2022-02-05T10:05:59Z</time>
      </trkpt>
      <trkpt lat="51.276689702644944" lon="4.826049311086536">
        <ele>9.19</ele>
        <time>2022-02-05T10:06:01Z</time>
      </trkpt>
      <trkpt lat="51.276693809777498" lon="4.826089711859822">
        <ele>9.18</ele>
        <time>2022-02-05T10:06:03Z</time>
      </trkpt>
      <trkpt lat="51.276720380410552" lon="4.82615701854229">
        <ele>9.16</ele>
        <time>2022-02-05T10:06:07Z</time>
      </trkpt>
      <trkpt lat="51.276784753426909" lon="4.826362542808056">
        <ele>9.1</ele>
        <time>2022-02-05T10:06:17Z</time>
      </trkpt>
      <trkpt lat="51.276907632127404" lon="4.826678708195686">
        <ele>8.99</ele>
        <time>2022-02-05T10:06:32Z</time>
      </trkpt>
      <trkpt lat="51.27692255191505" lon="4.826825140044093">
        <ele>8.92</ele>
        <time>2022-02-05T10:06:42Z</time>
      </trkpt>
      <trkpt lat="51.277054063975811" lon="4.827051116153598">
        <ele>8.83</ele>
        <time>2022-02-05T10:06:53Z</time>
      </trkpt>
      <trkpt lat="51.277093626558781" lon="4.827145328745246">
        <ele>8.800000000000001</ele>
        <time>2022-02-05T10:06:57Z</time>
      </trkpt>
      <trkpt lat="51.277124220505357" lon="4.827171815559268">
        <ele>8.779999999999999</ele>
        <time>2022-02-05T10:06:59Z</time>
      </trkpt>
      <trkpt lat="51.277151294052601" lon="4.827190674841404">
        <ele>8.76</ele>
        <time>2022-02-05T10:07:01Z</time>
      </trkpt>
      <trkpt lat="51.277289343997836" lon="4.827355295419693">
        <ele>8.640000000000001</ele>
        <time>2022-02-05T10:07:16Z</time>
      </trkpt>
      <trkpt lat="51.277242237702012" lon="4.827389242127538">
        <ele>8.619999999999999</ele>
        <time>2022-02-05T10:07:19Z</time>
      </trkpt>
      <trkpt lat="51.277232598513365" lon="4.827421680092812">
        <ele>8.58</ele>
        <time>2022-02-05T10:07:25Z</time>
      </trkpt>
      <trkpt lat="51.27724508754909" lon="4.827550174668431">
        <ele>8.550000000000001</ele>
        <time>2022-02-05T10:07:30Z</time>
      </trkpt>
      <trkpt lat="51.277412055060267" lon="4.827907411381602">
        <ele>8.5</ele>
        <time>2022-02-05T10:07:44Z</time>
      </trkpt>
      <trkpt lat="51.277472656220198" lon="4.828052334487438">
        <ele>8.49</ele>
        <time>2022-02-05T10:07:49Z</time>
      </trkpt>
      <trkpt lat="51.277478272095323" lon="4.828083766624332">
        <ele>8.49</ele>
        <time>2022-02-05T10:07:50Z</time>
      </trkpt>
      <trkpt lat="51.27748791128397" lon="4.828114025294781">
        <ele>8.49</ele>
        <time>2022-02-05T10:07:51Z</time>
      </trkpt>
      <trkpt lat="51.277498388662934" lon="4.828134644776583">
        <ele>8.49</ele>
        <time>2022-02-05T10:07:52Z</time>
      </trkpt>
      <trkpt lat="51.277503669261932" lon="4.828150570392609">
        <ele>8.49</ele>
        <time>2022-02-05T10:07:53Z</time>
      </trkpt>
      <trkpt lat="51.277563264593482" lon="4.828357268124819">
        <ele>8.49</ele>
        <time>2022-02-05T10:08:05Z</time>
      </trkpt>
      <trkpt lat="51.277574831619859" lon="4.828400099650025">
        <ele>8.49</ele>
        <time>2022-02-05T10:08:07Z</time>
      </trkpt>
      <trkpt lat="51.277586817741394" lon="4.828426083549857">
        <ele>8.49</ele>
        <time>2022-02-05T10:08:08Z</time>
      </trkpt>
      <trkpt lat="51.277599558234215" lon="4.828449552878737">
        <ele>8.49</ele>
        <time>2022-02-05T10:08:09Z</time>
      </trkpt>
      <trkpt lat="51.27772830426693" lon="4.828714840114117">
        <ele>8.52</ele>
        <time>2022-02-05T10:08:22Z</time>
      </trkpt>
      <trkpt lat="51.277734590694308" lon="4.828733783215284">
        <ele>8.52</ele>
        <time>2022-02-05T10:08:23Z</time>
      </trkpt>
      <trkpt lat="51.27774003893137" lon="4.828752893954516">
        <ele>8.51</ele>
        <time>2022-02-05T10:08:24Z</time>
      </trkpt>
      <trkpt lat="51.277746828272939" lon="4.828772926703095">
        <ele>8.51</ele>
        <time>2022-02-05T10:08:25Z</time>
      </trkpt>
      <trkpt lat="51.277755713090301" lon="4.828792875632644">
        <ele>8.51</ele>
        <time>2022-02-05T10:08:26Z</time>
      </trkpt>
      <trkpt lat="51.277766022831202" lon="4.828813998028636">
        <ele>8.52</ele>
        <time>2022-02-05T10:08:27Z</time>
      </trkpt>
      <trkpt lat="51.277773734182119" lon="4.828834198415279">
        <ele>8.52</ele>
        <time>2022-02-05T10:08:28Z</time>
      </trkpt>
      <trkpt lat="51.277781948447227" lon="4.828853644430637">
        <ele>8.52</ele>
        <time>2022-02-05T10:08:29Z</time>
      </trkpt>
      <trkpt lat="51.277845231816173" lon="4.829042572528124">
        <ele>8.539999999999999</ele>
        <time>2022-02-05T10:08:39Z</time>
      </trkpt>
      <trkpt lat="51.277855122461915" lon="4.829064114019275">
        <ele>8.539999999999999</ele>
        <time>2022-02-05T10:08:40Z</time>
      </trkpt>
      <trkpt lat="51.277864761650562" lon="4.829082973301411">
        <ele>8.550000000000001</ele>
        <time>2022-02-05T10:08:41Z</time>
      </trkpt>
      <trkpt lat="51.27796333283186" lon="4.829281624406576">
        <ele>8.58</ele>
        <time>2022-02-05T10:08:53Z</time>
      </trkpt>
      <trkpt lat="51.277974229305983" lon="4.829302243888378">
        <ele>8.58</ele>
        <time>2022-02-05T10:08:54Z</time>
      </trkpt>
      <trkpt lat="51.277986215427518" lon="4.829319762066007">
        <ele>8.58</ele>
        <time>2022-02-05T10:08:55Z</time>
      </trkpt>
      <trkpt lat="51.277998201549053" lon="4.829335939139128">
        <ele>8.58</ele>
        <time>2022-02-05T10:08:56Z</time>
      </trkpt>
      <trkpt lat="51.278010522946715" lon="4.829350272193551">
        <ele>8.59</ele>
        <time>2022-02-05T10:08:57Z</time>
      </trkpt>
      <trkpt lat="51.278144549578428" lon="4.829502068459988">
        <ele>8.630000000000001</ele>
        <time>2022-02-05T10:09:09Z</time>
      </trkpt>
      <trkpt lat="51.278269188478589" lon="4.829503241926432">
        <ele>8.67</ele>
        <time>2022-02-05T10:09:17Z</time>
      </trkpt>
      <trkpt lat="51.278279665857553" lon="4.829492177814245">
        <ele>8.67</ele>
        <time>2022-02-05T10:09:18Z</time>
      </trkpt>
      <trkpt lat="51.278295423835516" lon="4.82948019169271">
        <ele>8.68</ele>
        <time>2022-02-05T10:09:19Z</time>
      </trkpt>
      <trkpt lat="51.278365748003125" lon="4.829443478956819">
        <ele>8.69</ele>
        <time>2022-02-05T10:09:23Z</time>
      </trkpt>
      <trkpt lat="51.278381757438183" lon="4.829429145902395">
        <ele>8.69</ele>
        <time>2022-02-05T10:09:24Z</time>
      </trkpt>
      <trkpt lat="51.278397599235177" lon="4.829417243599892">
        <ele>8.69</ele>
        <time>2022-02-05T10:09:25Z</time>
      </trkpt>
      <trkpt lat="51.278511425480247" lon="4.829206606373191">
        <ele>8.69</ele>
        <time>2022-02-05T10:09:38Z</time>
      </trkpt>
      <trkpt lat="51.278475048020482" lon="4.828917263075709">
        <ele>8.699999999999999</ele>
        <time>2022-02-05T10:09:51Z</time>
      </trkpt>
      <trkpt lat="51.278497176244855" lon="4.82874283567071">
        <ele>8.68</ele>
        <time>2022-02-05T10:09:59Z</time>
      </trkpt>
      <trkpt lat="51.278508240357041" lon="4.828729508444667">
        <ele>8.68</ele>
        <time>2022-02-05T10:10:00Z</time>
      </trkpt>
      <trkpt lat="51.278637573122978" lon="4.828529935330153">
        <ele>8.640000000000001</ele>
        <time>2022-02-05T10:10:09Z</time>
      </trkpt>
      <trkpt lat="51.278644781559706" lon="4.828513255342841">
        <ele>8.640000000000001</ele>
        <time>2022-02-05T10:10:10Z</time>
      </trkpt>
      <trkpt lat="51.278658108785748" lon="4.828495150431991">
        <ele>8.640000000000001</ele>
        <time>2022-02-05T10:10:11Z</time>
      </trkpt>
      <trkpt lat="51.27867135219276" lon="4.828474363312125">
        <ele>8.630000000000001</ele>
        <time>2022-02-05T10:10:12Z</time>
      </trkpt>
      <trkpt lat="51.278684595599771" lon="4.828454917296767">
        <ele>8.630000000000001</ele>
        <time>2022-02-05T10:10:13Z</time>
      </trkpt>
      <trkpt lat="51.278696665540338" lon="4.828439746052027">
        <ele>8.630000000000001</ele>
        <time>2022-02-05T10:10:14Z</time>
      </trkpt>
      <trkpt lat="51.278855418786407" lon="4.828290212899447">
        <ele>8.57</ele>
        <time>2022-02-05T10:10:28Z</time>
      </trkpt>
      <trkpt lat="51.279054488986731" lon="4.828129028901458">
        <ele>8.51</ele>
        <time>2022-02-05T10:10:43Z</time>
      </trkpt>
      <trkpt lat="51.279251296073198" lon="4.8280059825629">
        <ele>9.32</ele>
        <time>2022-02-05T10:10:59Z</time>
      </trkpt>
      <trkpt lat="51.279428824782372" lon="4.828101871535182">
        <ele>9.24</ele>
        <time>2022-02-05T10:11:11Z</time>
      </trkpt>
      <trkpt lat="51.279431255534291" lon="4.828120144084096">
        <ele>9.23</ele>
        <time>2022-02-05T10:11:12Z</time>
      </trkpt>
      <trkpt lat="51.279435362666845" lon="4.828141601756215">
        <ele>9.23</ele>
        <time>2022-02-05T10:11:13Z</time>
      </trkpt>
      <trkpt lat="51.279493113979697" lon="4.828256517648697">
        <ele>9.199999999999999</ele>
        <time>2022-02-05T10:11:20Z</time>
      </trkpt>
      <trkpt lat="51.279498897492886" lon="4.828274119645357">
        <ele>9.220000000000001</ele>
        <time>2022-02-05T10:11:21Z</time>
      </trkpt>
      <trkpt lat="51.279505267739296" lon="4.828291470184922">
        <ele>9.19</ele>
        <time>2022-02-05T10:11:22Z</time>
      </trkpt>
      <trkpt lat="51.279511889442801" lon="4.828310497105122">
        <ele>9.199999999999999</ele>
        <time>2022-02-05T10:11:23Z</time>
      </trkpt>
      <trkpt lat="51.279518343508244" lon="4.828328602015972">
        <ele>9.199999999999999</ele>
        <time>2022-02-05T10:11:24Z</time>
      </trkpt>
      <trkpt lat="51.279580537229776" lon="4.828472267836332">
        <ele>9.220000000000001</ele>
        <time>2022-02-05T10:11:33Z</time>
      </trkpt>
      <trkpt lat="51.27960610203445" lon="4.828557847067714">
        <ele>9.210000000000001</ele>
        <time>2022-02-05T10:11:37Z</time>
      </trkpt>
      <trkpt lat="51.279618004336953" lon="4.828584501519799">
        <ele>9.199999999999999</ele>
        <time>2022-02-05T10:11:38Z</time>
      </trkpt>
      <trkpt lat="51.279625883325934" lon="4.82860654592514">
        <ele>9.199999999999999</ele>
        <time>2022-02-05T10:11:39Z</time>
      </trkpt>
      <trkpt lat="51.279682880267501" lon="4.82885817065835">
        <ele>9.16</ele>
        <time>2022-02-05T10:11:53Z</time>
      </trkpt>
      <trkpt lat="51.279701068997383" lon="4.828881220892072">
        <ele>9.16</ele>
        <time>2022-02-05T10:11:54Z</time>
      </trkpt>
      <trkpt lat="51.279781870543957" lon="4.829188836738467">
        <ele>9.1</ele>
        <time>2022-02-05T10:12:11Z</time>
      </trkpt>
      <trkpt lat="51.279798382893205" lon="4.829243905842304">
        <ele>9.1</ele>
        <time>2022-02-05T10:12:13Z</time>
      </trkpt>
      <trkpt lat="51.279771057888865" lon="4.829370472580195">
        <ele>9.1</ele>
        <time>2022-02-05T10:12:20Z</time>
      </trkpt>
      <trkpt lat="51.279857391491532" lon="4.829782778397203">
        <ele>8.92</ele>
        <time>2022-02-05T10:12:37Z</time>
      </trkpt>
      <trkpt lat="51.27994230017066" lon="4.830018477514386">
        <ele>8.93</ele>
        <time>2022-02-05T10:12:47Z</time>
      </trkpt>
      <trkpt lat="51.279948251321912" lon="4.830042198300362">
        <ele>8.9</ele>
        <time>2022-02-05T10:12:48Z</time>
      </trkpt>
      <trkpt lat="51.279972475022078" lon="4.830157533288002">
        <ele>8.890000000000001</ele>
        <time>2022-02-05T10:12:54Z</time>
      </trkpt>
      <trkpt lat="51.279997117817402" lon="4.830201286822557">
        <ele>8.9</ele>
        <time>2022-02-05T10:12:57Z</time>
      </trkpt>
      <trkpt lat="51.28000826574862" lon="4.830207321792841">
        <ele>8.890000000000001</ele>
        <time>2022-02-05T10:12:58Z</time>
      </trkpt>
      <trkpt lat="51.280121924355626" lon="4.830243950709701">
        <ele>8.880000000000001</ele>
        <time>2022-02-05T10:13:07Z</time>
      </trkpt>
      <trkpt lat="51.28013382665813" lon="4.830251494422555">
        <ele>8.880000000000001</ele>
        <time>2022-02-05T10:13:08Z</time>
      </trkpt>
      <trkpt lat="51.280152434483171" lon="4.830304551869631">
        <ele>8.85</ele>
        <time>2022-02-05T10:13:13Z</time>
      </trkpt>
      <trkpt lat="51.280198032036424" lon="4.8303406778723">
        <ele>8.84</ele>
        <time>2022-02-05T10:13:23Z</time>
      </trkpt>
      <trkpt lat="51.280251005664468" lon="4.830375295132399">
        <ele>8.82</ele>
        <time>2022-02-05T10:13:46Z</time>
      </trkpt>
      <trkpt lat="51.280274474993348" lon="4.830374205484986">
        <ele>10.83</ele>
        <time>2022-02-05T10:14:14Z</time>
      </trkpt>
      <trkpt lat="51.28028629347682" lon="4.830437069758773">
        <ele>7.57</ele>
        <time>2022-02-05T10:14:21Z</time>
      </trkpt>
      <trkpt lat="51.280293585732579" lon="4.830454755574465">
        <ele>7.58</ele>
        <time>2022-02-05T10:14:22Z</time>
      </trkpt>
      <trkpt lat="51.280296184122562" lon="4.830473531037569">
        <ele>7.59</ele>
        <time>2022-02-05T10:14:23Z</time>
      </trkpt>
      <trkpt lat="51.280294759199023" lon="4.830485433340073">
        <ele>7.59</ele>
        <time>2022-02-05T10:14:24Z</time>
      </trkpt>
      <trkpt lat="51.280334321781993" lon="4.83063924126327">
        <ele>7.62</ele>
        <time>2022-02-05T10:14:33Z</time>
      </trkpt>
      <trkpt lat="51.280338680371642" lon="4.830655250698328">
        <ele>7.59</ele>
        <time>2022-02-05T10:14:34Z</time>
      </trkpt>
      <trkpt lat="51.280337171629071" lon="4.830721383914352">
        <ele>7.62</ele>
        <time>2022-02-05T10:14:38Z</time>
      </trkpt>
      <trkpt lat="51.280347229912877" lon="4.830897990614176">
        <ele>7.62</ele>
        <time>2022-02-05T10:14:46Z</time>
      </trkpt>
      <trkpt lat="51.280344212427735" lon="4.831139640882611">
        <ele>7.61</ele>
        <time>2022-02-05T10:14:57Z</time>
      </trkpt>
      <trkpt lat="51.280328202992678" lon="4.831387577578425">
        <ele>9.44</ele>
        <time>2022-02-05T10:15:08Z</time>
      </trkpt>
      <trkpt lat="51.280355527997017" lon="4.831554712727666">
        <ele>6.82</ele>
        <time>2022-02-05T10:15:15Z</time>
      </trkpt>
      <trkpt lat="51.280409088358283" lon="4.831833494827151">
        <ele>6.68</ele>
        <time>2022-02-05T10:15:27Z</time>
      </trkpt>
      <trkpt lat="51.280448734760284" lon="4.831936424598098">
        <ele>9.810000000000001</ele>
        <time>2022-02-05T10:15:33Z</time>
      </trkpt>
      <trkpt lat="51.280458709225059" lon="4.831963330507278">
        <ele>9.789999999999999</ele>
        <time>2022-02-05T10:15:34Z</time>
      </trkpt>
      <trkpt lat="51.280525512993336" lon="4.832100877538323">
        <ele>9.75</ele>
        <time>2022-02-05T10:15:42Z</time>
      </trkpt>
      <trkpt lat="51.280756769701838" lon="4.832400027662516">
        <ele>9.640000000000001</ele>
        <time>2022-02-05T10:16:03Z</time>
      </trkpt>
      <trkpt lat="51.280838493257761" lon="4.832434812560678">
        <ele>9.619999999999999</ele>
        <time>2022-02-05T10:16:08Z</time>
      </trkpt>
      <trkpt lat="51.280870009213686" lon="4.83243640512228">
        <ele>9.609999999999999</ele>
        <time>2022-02-05T10:16:10Z</time>
      </trkpt>
      <trkpt lat="51.280883671715856" lon="4.832437410950661">
        <ele>9.6</ele>
        <time>2022-02-05T10:16:11Z</time>
      </trkpt>
      <trkpt lat="51.280897501856089" lon="4.832439590245485">
        <ele>9.59</ele>
        <time>2022-02-05T10:16:12Z</time>
      </trkpt>
      <trkpt lat="51.280913511291146" lon="4.832443362101913">
        <ele>9.6</ele>
        <time>2022-02-05T10:16:13Z</time>
      </trkpt>
      <trkpt lat="51.280931867659092" lon="4.832447217777371">
        <ele>9.59</ele>
        <time>2022-02-05T10:16:14Z</time>
      </trkpt>
      <trkpt lat="51.281113084405661" lon="4.832489714026451">
        <ele>9.52</ele>
        <time>2022-02-05T10:16:26Z</time>
      </trkpt>
      <trkpt lat="51.281186593696475" lon="4.832502622157335">
        <ele>7.21</ele>
        <time>2022-02-05T10:16:32Z</time>
      </trkpt>
      <trkpt lat="51.281250547617674" lon="4.832511758431792">
        <ele>7.22</ele>
        <time>2022-02-05T10:16:35Z</time>
      </trkpt>
      <trkpt lat="51.281270999461412" lon="4.832509746775031">
        <ele>7.24</ele>
        <time>2022-02-05T10:16:36Z</time>
      </trkpt>
      <trkpt lat="51.281441152095795" lon="4.832572275772691">
        <ele>7.19</ele>
        <time>2022-02-05T10:16:47Z</time>
      </trkpt>
      <trkpt lat="51.281653884798288" lon="4.832649892196059">
        <ele>7.12</ele>
        <time>2022-02-05T10:16:59Z</time>
      </trkpt>
      <trkpt lat="51.282067783176899" lon="4.832750307396054">
        <ele>7.06</ele>
        <time>2022-02-05T10:17:24Z</time>
      </trkpt>
      <trkpt lat="51.282090079039335" lon="4.832748379558325">
        <ele>7.06</ele>
        <time>2022-02-05T10:17:26Z</time>
      </trkpt>
      <trkpt lat="51.282100221142173" lon="4.832751983776689">
        <ele>7.06</ele>
        <time>2022-02-05T10:17:27Z</time>
      </trkpt>
      <trkpt lat="51.282275570556521" lon="4.832764891907573">
        <ele>7.09</ele>
        <time>2022-02-05T10:17:41Z</time>
      </trkpt>
      <trkpt lat="51.282380595803261" lon="4.832941247150302">
        <ele>7.08</ele>
        <time>2022-02-05T10:17:52Z</time>
      </trkpt>
      <trkpt lat="51.282407082617283" lon="4.832987012341619">
        <ele>7.07</ele>
        <time>2022-02-05T10:17:54Z</time>
      </trkpt>
      <trkpt lat="51.282487129792571" lon="4.833219861611724">
        <ele>7.04</ele>
        <time>2022-02-05T10:18:05Z</time>
      </trkpt>
      <trkpt lat="51.28250758163631" lon="4.83328272588551">
        <ele>7.04</ele>
        <time>2022-02-05T10:18:08Z</time>
      </trkpt>
      <trkpt lat="51.282517137005925" lon="4.833303513005376">
        <ele>7.02</ele>
        <time>2022-02-05T10:18:09Z</time>
      </trkpt>
      <trkpt lat="51.28253155387938" lon="4.833318516612053">
        <ele>7.02</ele>
        <time>2022-02-05T10:18:10Z</time>
      </trkpt>
      <trkpt lat="51.282549072057009" lon="4.833383979275823">
        <ele>7.03</ele>
        <time>2022-02-05T10:18:13Z</time>
      </trkpt>
      <trkpt lat="51.282560722902417" lon="4.83340535312891">
        <ele>7.03</ele>
        <time>2022-02-05T10:18:14Z</time>
      </trkpt>
      <trkpt lat="51.282772282138467" lon="4.833988230675459">
        <ele>6.99</ele>
        <time>2022-02-05T10:18:44Z</time>
      </trkpt>
      <trkpt lat="51.282908068969846" lon="4.83422527089715">
        <ele>6.96</ele>
        <time>2022-02-05T10:18:56Z</time>
      </trkpt>
      <trkpt lat="51.282983254641294" lon="4.83436306938529">
        <ele>6.97</ele>
        <time>2022-02-05T10:19:01Z</time>
      </trkpt>
      <trkpt lat="51.283000437542796" lon="4.83438310213387">
        <ele>6.97</ele>
        <time>2022-02-05T10:19:02Z</time>
      </trkpt>
      <trkpt lat="51.283015608787537" lon="4.834401458501816">
        <ele>6.98</ele>
        <time>2022-02-05T10:19:03Z</time>
      </trkpt>
      <trkpt lat="51.283025834709406" lon="4.834420485422015">
        <ele>6.97</ele>
        <time>2022-02-05T10:19:04Z</time>
      </trkpt>
      <trkpt lat="51.283036144450307" lon="4.834441104903817">
        <ele>6.96</ele>
        <time>2022-02-05T10:19:05Z</time>
      </trkpt>
      <trkpt lat="51.283051399514079" lon="4.834474716335535">
        <ele>6.97</ele>
        <time>2022-02-05T10:19:07Z</time>
      </trkpt>
      <trkpt lat="51.283062295988202" lon="4.834496006369591">
        <ele>6.96</ele>
        <time>2022-02-05T10:19:08Z</time>
      </trkpt>
      <trkpt lat="51.283076712861657" lon="4.83451696112752">
        <ele>6.96</ele>
        <time>2022-02-05T10:19:09Z</time>
      </trkpt>
      <trkpt lat="51.283088363707066" lon="4.834538418799639">
        <ele>6.97</ele>
        <time>2022-02-05T10:19:10Z</time>
      </trkpt>
      <trkpt lat="51.28315893933177" lon="4.83468116261065">
        <ele>6.96</ele>
        <time>2022-02-05T10:19:19Z</time>
      </trkpt>
      <trkpt lat="51.283180397003889" lon="4.834964219480753">
        <ele>6.94</ele>
        <time>2022-02-05T10:19:30Z</time>
      </trkpt>
      <trkpt lat="51.283154161646962" lon="4.83508232049644">
        <ele>6.93</ele>
        <time>2022-02-05T10:19:36Z</time>
      </trkpt>
      <trkpt lat="51.28314821049571" lon="4.835101934149861">
        <ele>6.93</ele>
        <time>2022-02-05T10:19:37Z</time>
      </trkpt>
      <trkpt lat="51.283145193010569" lon="4.83512288890779">
        <ele>6.92</ele>
        <time>2022-02-05T10:19:38Z</time>
      </trkpt>
      <trkpt lat="51.283143097534776" lon="4.835141496732831">
        <ele>6.93</ele>
        <time>2022-02-05T10:19:39Z</time>
      </trkpt>
      <trkpt lat="51.283138990402222" lon="4.835169659927487">
        <ele>6.93</ele>
        <time>2022-02-05T10:19:40Z</time>
      </trkpt>
      <trkpt lat="51.283134547993541" lon="4.835188938304782">
        <ele>6.92</ele>
        <time>2022-02-05T10:19:41Z</time>
      </trkpt>
      <trkpt lat="51.28306807950139" lon="4.835491105914116">
        <ele>6.93</ele>
        <time>2022-02-05T10:19:53Z</time>
      </trkpt>
      <trkpt lat="51.283014100044966" lon="4.835661174729466">
        <ele>6.94</ele>
        <time>2022-02-05T10:20:03Z</time>
      </trkpt>
      <trkpt lat="51.282994821667671" lon="4.835740467533469">
        <ele>6.94</ele>
        <time>2022-02-05T10:20:07Z</time>
      </trkpt>
      <trkpt lat="51.282983925193548" lon="4.835757566615939">
        <ele>6.95</ele>
        <time>2022-02-05T10:20:08Z</time>
      </trkpt>
      <trkpt lat="51.282972190529108" lon="4.835989158600569">
        <ele>6.97</ele>
        <time>2022-02-05T10:20:20Z</time>
      </trkpt>
      <trkpt lat="51.282894322648644" lon="4.836045149713755">
        <ele>6.96</ele>
        <time>2022-02-05T10:20:27Z</time>
      </trkpt>
      <trkpt lat="51.282871942967176" lon="4.836047580465674">
        <ele>6.97</ele>
        <time>2022-02-05T10:20:28Z</time>
      </trkpt>
      <trkpt lat="51.282655103132129" lon="4.836168447509408">
        <ele>6.91</ele>
        <time>2022-02-05T10:20:40Z</time>
      </trkpt>
      <trkpt lat="51.282422505319118" lon="4.836281687021256">
        <ele>6.89</ele>
        <time>2022-02-05T10:20:52Z</time>
      </trkpt>
      <trkpt lat="51.282265512272716" lon="4.836415629833937">
        <ele>6.87</ele>
        <time>2022-02-05T10:21:05Z</time>
      </trkpt>
      <trkpt lat="51.282201055437326" lon="4.836579915136099">
        <ele>6.04</ele>
        <time>2022-02-05T10:21:22Z</time>
      </trkpt>
      <trkpt lat="51.28219242207706" lon="4.83659609220922">
        <ele>6.03</ele>
        <time>2022-02-05T10:21:23Z</time>
      </trkpt>
      <trkpt lat="51.281831078231335" lon="4.837404359132052">
        <ele>5.73</ele>
        <time>2022-02-05T10:22:08Z</time>
      </trkpt>
      <trkpt lat="51.281747343018651" lon="4.837747262790799">
        <ele>5.58</ele>
        <time>2022-02-05T10:22:23Z</time>
      </trkpt>
      <trkpt lat="51.28166863694787" lon="4.837899059057236">
        <ele>5.56</ele>
        <time>2022-02-05T10:22:31Z</time>
      </trkpt>
      <trkpt lat="51.281614657491446" lon="4.838032918050885">
        <ele>5.54</ele>
        <time>2022-02-05T10:22:38Z</time>
      </trkpt>
      <trkpt lat="51.281554643064737" lon="4.838126376271248">
        <ele>5.52</ele>
        <time>2022-02-05T10:22:43Z</time>
      </trkpt>
      <trkpt lat="51.28149563446641" lon="4.838239364326">
        <ele>5.52</ele>
        <time>2022-02-05T10:22:49Z</time>
      </trkpt>
      <trkpt lat="51.281321961432695" lon="4.838611772283912">
        <ele>5.47</ele>
        <time>2022-02-05T10:23:05Z</time>
      </trkpt>
      <trkpt lat="51.281213667243719" lon="4.83885794878006">
        <ele>5.5</ele>
        <time>2022-02-05T10:23:16Z</time>
      </trkpt>
      <trkpt lat="51.281101182103157" lon="4.839088367298245">
        <ele>5.54</ele>
        <time>2022-02-05T10:23:29Z</time>
      </trkpt>
      <trkpt lat="51.28098014742136" lon="4.839344769716263">
        <ele>5.6</ele>
        <time>2022-02-05T10:23:44Z</time>
      </trkpt>
      <trkpt lat="51.280825920403004" lon="4.839613074436784">
        <ele>5.6</ele>
        <time>2022-02-05T10:24:00Z</time>
      </trkpt>
      <trkpt lat="51.280694575980306" lon="4.839806444942951">
        <ele>5.56</ele>
        <time>2022-02-05T10:24:12Z</time>
      </trkpt>
      <trkpt lat="51.280594998970628" lon="4.840113474056125">
        <ele>5.51</ele>
        <time>2022-02-05T10:24:47Z</time>
      </trkpt>
      <trkpt lat="51.280550239607692" lon="4.840203663334251">
        <ele>5.51</ele>
        <time>2022-02-05T10:24:53Z</time>
      </trkpt>
      <trkpt lat="51.280533391982317" lon="4.840241800993681">
        <ele>5.5</ele>
        <time>2022-02-05T10:24:55Z</time>
      </trkpt>
      <trkpt lat="51.280438927933574" lon="4.840468196198344">
        <ele>5.48</ele>
        <time>2022-02-05T10:25:09Z</time>
      </trkpt>
      <trkpt lat="51.280433144420385" lon="4.840488564223051">
        <ele>5.48</ele>
        <time>2022-02-05T10:25:10Z</time>
      </trkpt>
      <trkpt lat="51.280345804989338" lon="4.840671122074127">
        <ele>5.42</ele>
        <time>2022-02-05T10:25:21Z</time>
      </trkpt>
      <trkpt lat="51.280313534662127" lon="4.840776231139898">
        <ele>5.46</ele>
        <time>2022-02-05T10:25:25Z</time>
      </trkpt>
      <trkpt lat="51.280252514407039" lon="4.841100107878447">
        <ele>5.49</ele>
        <time>2022-02-05T10:25:39Z</time>
      </trkpt>
      <trkpt lat="51.280305068939924" lon="4.841295490041375">
        <ele>5.54</ele>
        <time>2022-02-05T10:25:51Z</time>
      </trkpt>
      <trkpt lat="51.280308924615383" lon="4.841327089816332">
        <ele>5.54</ele>
        <time>2022-02-05T10:25:53Z</time>
      </trkpt>
      <trkpt lat="51.280316803604364" lon="4.841365814208984">
        <ele>5.55</ele>
        <time>2022-02-05T10:25:55Z</time>
      </trkpt>
      <trkpt lat="51.280420403927565" lon="4.841563878580928">
        <ele>5.57</ele>
        <time>2022-02-05T10:26:07Z</time>
      </trkpt>
      <trkpt lat="51.28044169396162" lon="4.84161090105772">
        <ele>7.85</ele>
        <time>2022-02-05T10:26:10Z</time>
      </trkpt>
      <trkpt lat="51.280460469424725" lon="4.841669574379921">
        <ele>7.86</ele>
        <time>2022-02-05T10:26:14Z</time>
      </trkpt>
      <trkpt lat="51.280537499114871" lon="4.841907033696771">
        <ele>8.68</ele>
        <time>2022-02-05T10:26:27Z</time>
      </trkpt>
      <trkpt lat="51.28055208362639" lon="4.841958582401276">
        <ele>8.69</ele>
        <time>2022-02-05T10:26:30Z</time>
      </trkpt>
      <trkpt lat="51.280561555176973" lon="4.842012310400605">
        <ele>8.699999999999999</ele>
        <time>2022-02-05T10:26:33Z</time>
      </trkpt>
      <trkpt lat="51.280532972887158" lon="4.842133764177561">
        <ele>10.23</ele>
        <time>2022-02-05T10:26:41Z</time>
      </trkpt>
      <trkpt lat="51.28044462762773" lon="4.842299222946167">
        <ele>10.199999999999999</ele>
        <time>2022-02-05T10:26:54Z</time>
      </trkpt>
      <trkpt lat="51.2803356628865" lon="4.842483708634973">
        <ele>10.949999999999999</ele>
        <time>2022-02-05T10:27:11Z</time>
      </trkpt>
      <trkpt lat="51.280129803344607" lon="4.842779505997896">
        <ele>11.789999999999999</ele>
        <time>2022-02-05T10:27:24Z</time>
      </trkpt>
      <trkpt lat="51.280030142515898" lon="4.842966673895717">
        <ele>12.5</ele>
        <time>2022-02-05T10:27:35Z</time>
      </trkpt>
      <trkpt lat="51.27999016083777" lon="4.843059964478016">
        <ele>12.48</ele>
        <time>2022-02-05T10:27:42Z</time>
      </trkpt>
      <trkpt lat="51.279867785051465" lon="4.843273619189858">
        <ele>13.44</ele>
        <time>2022-02-05T10:27:55Z</time>
      </trkpt>
      <trkpt lat="51.279857475310564" lon="4.843289712443948">
        <ele>13.42</ele>
        <time>2022-02-05T10:27:56Z</time>
      </trkpt>
      <trkpt lat="51.279771812260151" lon="4.843437736853957">
        <ele>13.44</ele>
        <time>2022-02-05T10:28:04Z</time>
      </trkpt>
      <trkpt lat="51.279599815607071" lon="4.84369246289134">
        <ele>14.210000000000001</ele>
        <time>2022-02-05T10:28:20Z</time>
      </trkpt>
      <trkpt lat="51.279426226392388" lon="4.843927407637239">
        <ele>14.970000000000001</ele>
        <time>2022-02-05T10:28:34Z</time>
      </trkpt>
      <trkpt lat="51.279279878363013" lon="4.84413561411202">
        <ele>14.970000000000001</ele>
        <time>2022-02-05T10:28:47Z</time>
      </trkpt>
      <trkpt lat="51.279134703800082" lon="4.844372402876616">
        <ele>15.02</ele>
        <time>2022-02-05T10:29:01Z</time>
      </trkpt>
      <trkpt lat="51.279116347432137" lon="4.844406684860587">
        <ele>15.01</ele>
        <time>2022-02-05T10:29:03Z</time>
      </trkpt>
      <trkpt lat="51.278956001624465" lon="4.844629224389792">
        <ele>12.75</ele>
        <time>2022-02-05T10:29:17Z</time>
      </trkpt>
      <trkpt lat="51.278898837044835" lon="4.844701644033194">
        <ele>12.77</ele>
        <time>2022-02-05T10:29:22Z</time>
      </trkpt>
      <trkpt lat="51.278838319703937" lon="4.844892667606473">
        <ele>12.050000000000001</ele>
        <time>2022-02-05T10:29:36Z</time>
      </trkpt>
      <trkpt lat="51.278801271691918" lon="4.844973720610142">
        <ele>11.199999999999999</ele>
        <time>2022-02-05T10:29:41Z</time>
      </trkpt>
      <trkpt lat="51.278706723824143" lon="4.845076650381088">
        <ele>11.19</ele>
        <time>2022-02-05T10:29:48Z</time>
      </trkpt>
      <trkpt lat="51.278446298092604" lon="4.845043290406466">
        <ele>10.31</ele>
        <time>2022-02-05T10:30:05Z</time>
      </trkpt>
      <trkpt lat="51.278361557051539" lon="4.845000123605132">
        <ele>8.109999999999999</ele>
        <time>2022-02-05T10:30:11Z</time>
      </trkpt>
      <trkpt lat="51.278198109939694" lon="4.844937678426504">
        <ele>8.18</ele>
        <time>2022-02-05T10:30:21Z</time>
      </trkpt>
      <trkpt lat="51.278140610083938" lon="4.844915634021163">
        <ele>8.23</ele>
        <time>2022-02-05T10:30:25Z</time>
      </trkpt>
      <trkpt lat="51.277984958142042" lon="4.844855535775423">
        <ele>8.19</ele>
        <time>2022-02-05T10:30:36Z</time>
      </trkpt>
      <trkpt lat="51.277794521301985" lon="4.84473810531199">
        <ele>7.37</ele>
        <time>2022-02-05T10:30:49Z</time>
      </trkpt>
      <trkpt lat="51.27766820602119" lon="4.844684964045882">
        <ele>6.42</ele>
        <time>2022-02-05T10:31:04Z</time>
      </trkpt>
      <trkpt lat="51.27755044028163" lon="4.844653448089957">
        <ele>6.43</ele>
        <time>2022-02-05T10:31:12Z</time>
      </trkpt>
      <trkpt lat="51.277500987052917" lon="4.844631990417838">
        <ele>6.45</ele>
        <time>2022-02-05T10:31:16Z</time>
      </trkpt>
      <trkpt lat="51.277387160807848" lon="4.84459443949163">
        <ele>6.45</ele>
        <time>2022-02-05T10:31:24Z</time>
      </trkpt>
      <trkpt lat="51.277136290445924" lon="4.844457898288965">
        <ele>5.62</ele>
        <time>2022-02-05T10:31:40Z</time>
      </trkpt>
      <trkpt lat="51.276923138648272" lon="4.844440128654242">
        <ele>5.64</ele>
        <time>2022-02-05T10:31:53Z</time>
      </trkpt>
      <trkpt lat="51.276888521388173" lon="4.844433590769768">
        <ele>4.88</ele>
        <time>2022-02-05T10:31:55Z</time>
      </trkpt>
      <trkpt lat="51.27669682726264" lon="4.844507686793804">
        <ele>4.91</ele>
        <time>2022-02-05T10:32:09Z</time>
      </trkpt>
      <trkpt lat="51.27655416727066" lon="4.844560408964753">
        <ele>4.96</ele>
        <time>2022-02-05T10:32:21Z</time>
      </trkpt>
      <trkpt lat="51.276373704895377" lon="4.844650011509657">
        <ele>5.01</ele>
        <time>2022-02-05T10:32:35Z</time>
      </trkpt>
      <trkpt lat="51.276202630251646" lon="4.844749588519335">
        <ele>5.04</ele>
        <time>2022-02-05T10:32:47Z</time>
      </trkpt>
      <trkpt lat="51.276037506759167" lon="4.844843549653888">
        <ele>5.1</ele>
        <time>2022-02-05T10:32:59Z</time>
      </trkpt>
      <trkpt lat="51.275946227833629" lon="4.844814296811819">
        <ele>5.15</ele>
        <time>2022-02-05T10:33:11Z</time>
      </trkpt>
      <trkpt lat="51.275967266410589" lon="4.844536604359746">
        <ele>5.19</ele>
        <time>2022-02-05T10:33:25Z</time>
      </trkpt>
      <trkpt lat="51.275983527302742" lon="4.844335857778788">
        <ele>5.21</ele>
        <time>2022-02-05T10:33:29Z</time>
      </trkpt>
      <trkpt lat="51.27599660307169" lon="4.844185402616859">
        <ele>3.94</ele>
        <time>2022-02-05T10:33:31Z</time>
      </trkpt>
      <trkpt lat="51.276027197018266" lon="4.843307565897703">
        <ele>3.97</ele>
        <time>2022-02-05T10:33:43Z</time>
      </trkpt>
      <trkpt lat="51.276023592799902" lon="4.843274792656303">
        <ele>3.97</ele>
        <time>2022-02-05T10:33:44Z</time>
      </trkpt>
      <trkpt lat="51.275914125144482" lon="4.842995004728437">
        <ele>3.92</ele>
        <time>2022-02-05T10:33:59Z</time>
      </trkpt>
      <trkpt lat="51.275899205356836" lon="4.843004141002893">
        <ele>3.92</ele>
        <time>2022-02-05T10:34:00Z</time>
      </trkpt>
      <trkpt lat="51.275886632502079" lon="4.843005733564496">
        <ele>3.92</ele>
        <time>2022-02-05T10:34:01Z</time>
      </trkpt>
      <trkpt lat="51.275868359953165" lon="4.843006571754813">
        <ele>3.91</ele>
        <time>2022-02-05T10:34:02Z</time>
      </trkpt>
      <trkpt lat="51.275811865925789" lon="4.842993831261993">
        <ele>3.91</ele>
        <time>2022-02-05T10:34:05Z</time>
      </trkpt>
      <trkpt lat="51.275789318606257" lon="4.842983018606901">
        <ele>3.91</ele>
        <time>2022-02-05T10:34:06Z</time>
      </trkpt>
      <trkpt lat="51.275748666375875" lon="4.842981761321425">
        <ele>6.16</ele>
        <time>2022-02-05T10:34:09Z</time>
      </trkpt>
      <trkpt lat="51.275553703308105" lon="4.842999530956149">
        <ele>6.14</ele>
        <time>2022-02-05T10:34:15Z</time>
      </trkpt>
      <trkpt lat="51.275499891489744" lon="4.843008331954479">
        <ele>6.14</ele>
        <time>2022-02-05T10:34:16Z</time>
      </trkpt>
      <trkpt lat="51.275314399972558" lon="4.843028699979186">
        <ele>6.15</ele>
        <time>2022-02-05T10:34:19Z</time>
      </trkpt>
      <trkpt lat="51.275259917601943" lon="4.843038422986865">
        <ele>6.15</ele>
        <time>2022-02-05T10:34:20Z</time>
      </trkpt>
      <trkpt lat="51.274926653131843" lon="4.843085864558816">
        <ele>6.19</ele>
        <time>2022-02-05T10:34:26Z</time>
      </trkpt>
      <trkpt lat="51.274400101974607" lon="4.843111932277679">
        <ele>3.87</ele>
        <time>2022-02-05T10:34:35Z</time>
      </trkpt>
      <trkpt lat="51.274286778643727" lon="4.843120817095041">
        <ele>3.89</ele>
        <time>2022-02-05T10:34:37Z</time>
      </trkpt>
      <trkpt lat="51.274232128635049" lon="4.843131294474006">
        <ele>3.89</ele>
        <time>2022-02-05T10:34:38Z</time>
      </trkpt>
      <trkpt lat="51.274082763120532" lon="4.84314470551908">
        <ele>3.88</ele>
        <time>2022-02-05T10:34:41Z</time>
      </trkpt>
      <trkpt lat="51.274027526378632" lon="4.843155182898045">
        <ele>3.9</ele>
        <time>2022-02-05T10:34:42Z</time>
      </trkpt>
      <trkpt lat="51.273382790386677" lon="4.843118973076344">
        <ele>4</ele>
        <time>2022-02-05T10:34:52Z</time>
      </trkpt>
      <trkpt lat="51.273317579180002" lon="4.843100868165493">
        <ele>4.04</ele>
        <time>2022-02-05T10:34:53Z</time>
      </trkpt>
      <trkpt lat="51.273135775700212" lon="4.843076895922422">
        <ele>3.96</ele>
        <time>2022-02-05T10:34:56Z</time>
      </trkpt>
      <trkpt lat="51.272683069109917" lon="4.84302350319922">
        <ele>4.08</ele>
        <time>2022-02-05T10:35:03Z</time>
      </trkpt>
      <trkpt lat="51.272616181522608" lon="4.843025011941791">
        <ele>4.09</ele>
        <time>2022-02-05T10:35:04Z</time>
      </trkpt>
      <trkpt lat="51.272495901212096" lon="4.84305627644062">
        <ele>6.65</ele>
        <time>2022-02-05T10:35:06Z</time>
      </trkpt>
      <trkpt lat="51.272439658641815" lon="4.843076644465327">
        <ele>6.64</ele>
        <time>2022-02-05T10:35:07Z</time>
      </trkpt>
      <trkpt lat="51.272301524877548" lon="4.843165744096041">
        <ele>6.67</ele>
        <time>2022-02-05T10:35:10Z</time>
      </trkpt>
      <trkpt lat="51.272265566512942" lon="4.843205222859979">
        <ele>6.65</ele>
        <time>2022-02-05T10:35:11Z</time>
      </trkpt>
      <trkpt lat="51.272186692804098" lon="4.843320390209556">
        <ele>6.69</ele>
        <time>2022-02-05T10:35:13Z</time>
      </trkpt>
      <trkpt lat="51.272153751924634" lon="4.843388283625245">
        <ele>6.7</ele>
        <time>2022-02-05T10:35:14Z</time>
      </trkpt>
      <trkpt lat="51.272125085815787" lon="4.843461625277996">
        <ele>6.73</ele>
        <time>2022-02-05T10:35:15Z</time>
      </trkpt>
      <trkpt lat="51.272101197391748" lon="4.843538152053952">
        <ele>6.72</ele>
        <time>2022-02-05T10:35:16Z</time>
      </trkpt>
      <trkpt lat="51.272082757204771" lon="4.843615600839257">
        <ele>6.78</ele>
        <time>2022-02-05T10:35:17Z</time>
      </trkpt>
      <trkpt lat="51.272069429978728" lon="4.843693720176816">
        <ele>6.75</ele>
        <time>2022-02-05T10:35:18Z</time>
      </trkpt>
      <trkpt lat="51.27205241471529" lon="4.843785669654608">
        <ele>6.8</ele>
        <time>2022-02-05T10:35:19Z</time>
      </trkpt>
      <trkpt lat="51.272042021155357" lon="4.843885749578476">
        <ele>6.78</ele>
        <time>2022-02-05T10:35:20Z</time>
      </trkpt>
      <trkpt lat="51.271959124132991" lon="4.844290427863598">
        <ele>6.83</ele>
        <time>2022-02-05T10:35:40Z</time>
      </trkpt>
      <trkpt lat="51.271957447752357" lon="4.844286404550076">
        <ele>4.2</ele>
        <time>2022-02-05T10:35:43Z</time>
      </trkpt>
      <trkpt lat="51.2719068210572" lon="4.844330241903663">
        <ele>4.29</ele>
        <time>2022-02-05T10:36:11Z</time>
      </trkpt>
      <trkpt lat="51.271900869905949" lon="4.844314148649573">
        <ele>4.3</ele>
        <time>2022-02-05T10:36:12Z</time>
      </trkpt>
      <trkpt lat="51.271797772496939" lon="4.844038803130388">
        <ele>4.37</ele>
        <time>2022-02-05T10:36:27Z</time>
      </trkpt>
      <trkpt lat="51.271789725869894" lon="4.844018686562777">
        <ele>4.39</ele>
        <time>2022-02-05T10:36:28Z</time>
      </trkpt>
      <trkpt lat="51.271781679242849" lon="4.843996139243245">
        <ele>4.39</ele>
        <time>2022-02-05T10:36:29Z</time>
      </trkpt>
      <trkpt lat="51.271772542968392" lon="4.843976777046919">
        <ele>4.4</ele>
        <time>2022-02-05T10:36:30Z</time>
      </trkpt>
      <trkpt lat="51.27176558598876" lon="4.843956409022212">
        <ele>4.42</ele>
        <time>2022-02-05T10:36:31Z</time>
      </trkpt>
      <trkpt lat="51.271759634837508" lon="4.843931766226888">
        <ele>4.43</ele>
        <time>2022-02-05T10:36:32Z</time>
      </trkpt>
      <trkpt lat="51.271752845495939" lon="4.843907039612532">
        <ele>4.44</ele>
        <time>2022-02-05T10:36:33Z</time>
      </trkpt>
      <trkpt lat="51.271751755848527" lon="4.843884408473969">
        <ele>4.42</ele>
        <time>2022-02-05T10:36:34Z</time>
      </trkpt>
      <trkpt lat="51.271734656766057" lon="4.843710735440254">
        <ele>4.44</ele>
        <time>2022-02-05T10:36:44Z</time>
      </trkpt>
      <trkpt lat="51.271734572947025" lon="4.843687517568469">
        <ele>4.44</ele>
        <time>2022-02-05T10:36:45Z</time>
      </trkpt>
      <trkpt lat="51.271727448329329" lon="4.843662288039923">
        <ele>4.44</ele>
        <time>2022-02-05T10:36:46Z</time>
      </trkpt>
      <trkpt lat="51.271719066426158" lon="4.843638064339757">
        <ele>4.44</ele>
        <time>2022-02-05T10:36:47Z</time>
      </trkpt>
      <trkpt lat="51.271702218800783" lon="4.843449974432588">
        <ele>4.46</ele>
        <time>2022-02-05T10:36:56Z</time>
      </trkpt>
      <trkpt lat="51.271667769178748" lon="4.843234224244952">
        <ele>4.48</ele>
        <time>2022-02-05T10:37:07Z</time>
      </trkpt>
      <trkpt lat="51.271649748086929" lon="4.843196924775839">
        <ele>4.48</ele>
        <time>2022-02-05T10:37:08Z</time>
      </trkpt>
      <trkpt lat="51.271636504679918" lon="4.843164822086692">
        <ele>4.48</ele>
        <time>2022-02-05T10:37:09Z</time>
      </trkpt>
      <trkpt lat="51.271565845236182" lon="4.842895679175854">
        <ele>4.48</ele>
        <time>2022-02-05T10:37:21Z</time>
      </trkpt>
      <trkpt lat="51.271433662623167" lon="4.842641958966851">
        <ele>4.45</ele>
        <time>2022-02-05T10:37:33Z</time>
      </trkpt>
      <trkpt lat="51.271334420889616" lon="4.842497287318111">
        <ele>4.4</ele>
        <time>2022-02-05T10:37:43Z</time>
      </trkpt>
      <trkpt lat="51.271199472248554" lon="4.84230718575418">
        <ele>4.38</ele>
        <time>2022-02-05T10:37:56Z</time>
      </trkpt>
      <trkpt lat="51.271158820018172" lon="4.842212051153183">
        <ele>4.38</ele>
        <time>2022-02-05T10:38:01Z</time>
      </trkpt>
      <trkpt lat="51.271141301840544" lon="4.842183133587241">
        <ele>4.4</ele>
        <time>2022-02-05T10:38:02Z</time>
      </trkpt>
      <trkpt lat="51.271121436730027" lon="4.842154467478395">
        <ele>4.39</ele>
        <time>2022-02-05T10:38:03Z</time>
      </trkpt>
      <trkpt lat="51.271109450608492" lon="4.842131081968546">
        <ele>4.37</ele>
        <time>2022-02-05T10:38:04Z</time>
      </trkpt>
      <trkpt lat="51.271098051220179" lon="4.84210878610611">
        <ele>4.37</ele>
        <time>2022-02-05T10:38:05Z</time>
      </trkpt>
      <trkpt lat="51.271063685417175" lon="4.842067882418633">
        <ele>4.34</ele>
        <time>2022-02-05T10:38:08Z</time>
      </trkpt>
      <trkpt lat="51.271041221916676" lon="4.842039132490754">
        <ele>4.33</ele>
        <time>2022-02-05T10:38:10Z</time>
      </trkpt>
      <trkpt lat="51.271032001823187" lon="4.842026643455029">
        <ele>4.33</ele>
        <time>2022-02-05T10:38:11Z</time>
      </trkpt>
      <trkpt lat="51.270879535004497" lon="4.841879708692431">
        <ele>4.31</ele>
        <time>2022-02-05T10:38:23Z</time>
      </trkpt>
      <trkpt lat="51.270672082901001" lon="4.841663455590606">
        <ele>4.31</ele>
        <time>2022-02-05T10:38:36Z</time>
      </trkpt>
      <trkpt lat="51.270524812862277" lon="4.84158206731081">
        <ele>4.3</ele>
        <time>2022-02-05T10:38:47Z</time>
      </trkpt>
      <trkpt lat="51.270346278324723" lon="4.841447537764907">
        <ele>4.28</ele>
        <time>2022-02-05T10:38:58Z</time>
      </trkpt>
      <trkpt lat="51.270082164555788" lon="4.841310326009989">
        <ele>4.26</ele>
        <time>2022-02-05T10:39:09Z</time>
      </trkpt>
      <trkpt lat="51.269728783518076" lon="4.841137658804655">
        <ele>4.23</ele>
        <time>2022-02-05T10:39:19Z</time>
      </trkpt>
      <trkpt lat="51.269290996715426" lon="4.841161631047726">
        <ele>3.37</ele>
        <time>2022-02-05T10:39:30Z</time>
      </trkpt>
      <trkpt lat="51.268846923485398" lon="4.841328011825681">
        <ele>3.37</ele>
        <time>2022-02-05T10:39:40Z</time>
      </trkpt>
      <trkpt lat="51.268805349245667" lon="4.841352319344878">
        <ele>3.37</ele>
        <time>2022-02-05T10:39:41Z</time>
      </trkpt>
      <trkpt lat="51.26876100897789" lon="4.841369669884443">
        <ele>3.38</ele>
        <time>2022-02-05T10:39:42Z</time>
      </trkpt>
      <trkpt lat="51.268718428909779" lon="4.841385679319501">
        <ele>3.38</ele>
        <time>2022-02-05T10:39:43Z</time>
      </trkpt>
      <trkpt lat="51.268489267677069" lon="4.841530350968242">
        <ele>2.06</ele>
        <time>2022-02-05T10:39:49Z</time>
      </trkpt>
      <trkpt lat="51.268448363989592" lon="4.841549964621663">
        <ele>2.07</ele>
        <time>2022-02-05T10:39:50Z</time>
      </trkpt>
      <trkpt lat="51.268379967659712" lon="4.841603441163898">
        <ele>2.08</ele>
        <time>2022-02-05T10:39:52Z</time>
      </trkpt>
      <trkpt lat="51.268357085064054" lon="4.841649373993278">
        <ele>2.08</ele>
        <time>2022-02-05T10:39:53Z</time>
      </trkpt>
      <trkpt lat="51.268333699554205" lon="4.841694552451372">
        <ele>2.08</ele>
        <time>2022-02-05T10:39:54Z</time>
      </trkpt>
      <trkpt lat="51.268311152234674" lon="4.841740485280752">
        <ele>2.09</ele>
        <time>2022-02-05T10:39:55Z</time>
      </trkpt>
      <trkpt lat="51.268287431448698" lon="4.841787843033671">
        <ele>2.09</ele>
        <time>2022-02-05T10:39:56Z</time>
      </trkpt>
      <trkpt lat="51.268261279910803" lon="4.841835536062717">
        <ele>2.11</ele>
        <time>2022-02-05T10:39:57Z</time>
      </trkpt>
      <trkpt lat="51.268221717327833" lon="4.841928826645017">
        <ele>4.41</ele>
        <time>2022-02-05T10:39:59Z</time>
      </trkpt>
      <trkpt lat="51.268193889409304" lon="4.842040976509452">
        <ele>4.42</ele>
        <time>2022-02-05T10:40:01Z</time>
      </trkpt>
      <trkpt lat="51.268185591325164" lon="4.842097302898765">
        <ele>4.43</ele>
        <time>2022-02-05T10:40:02Z</time>
      </trkpt>
      <trkpt lat="51.268023401498795" lon="4.842552188783884">
        <ele>4.49</ele>
        <time>2022-02-05T10:40:12Z</time>
      </trkpt>
      <trkpt lat="51.267985934391618" lon="4.842564426362515">
        <ele>4.49</ele>
        <time>2022-02-05T10:40:13Z</time>
      </trkpt>
      <trkpt lat="51.267953244969249" lon="4.842571131885052">
        <ele>4.49</ele>
        <time>2022-02-05T10:40:14Z</time>
      </trkpt>
      <trkpt lat="51.267913598567247" lon="4.842574568465352">
        <ele>4.5</ele>
        <time>2022-02-05T10:40:15Z</time>
      </trkpt>
      <trkpt lat="51.267870850861073" lon="4.84257884323597">
        <ele>4.5</ele>
        <time>2022-02-05T10:40:16Z</time>
      </trkpt>
      <trkpt lat="51.267446726560593" lon="4.842633660882711">
        <ele>4.55</ele>
        <time>2022-02-05T10:40:27Z</time>
      </trkpt>
      <trkpt lat="51.267048669978976" lon="4.842698704451323">
        <ele>4.62</ele>
        <time>2022-02-05T10:40:37Z</time>
      </trkpt>
      <trkpt lat="51.266594706103206" lon="4.842690238729119">
        <ele>4.67</ele>
        <time>2022-02-05T10:40:47Z</time>
      </trkpt>
      <trkpt lat="51.266058599576354" lon="4.842694764956832">
        <ele>4.69</ele>
        <time>2022-02-05T10:40:56Z</time>
      </trkpt>
      <trkpt lat="51.265987772494555" lon="4.842707505449653">
        <ele>4.7</ele>
        <time>2022-02-05T10:40:57Z</time>
      </trkpt>
      <trkpt lat="51.265916107222438" lon="4.842718150466681">
        <ele>4.71</ele>
        <time>2022-02-05T10:40:58Z</time>
      </trkpt>
      <trkpt lat="51.265852404758334" lon="4.842724520713091">
        <ele>4.71</ele>
        <time>2022-02-05T10:40:59Z</time>
      </trkpt>
      <trkpt lat="51.26579063013196" lon="4.842722341418266">
        <ele>4.71</ele>
        <time>2022-02-05T10:41:00Z</time>
      </trkpt>
      <trkpt lat="51.265740506350994" lon="4.842718569561839">
        <ele>4.72</ele>
        <time>2022-02-05T10:41:01Z</time>
      </trkpt>
      <trkpt lat="51.265679569914937" lon="4.842713791877031">
        <ele>4.72</ele>
        <time>2022-02-05T10:41:02Z</time>
      </trkpt>
      <trkpt lat="51.265559792518616" lon="4.842733656987548">
        <ele>4.73</ele>
        <time>2022-02-05T10:41:04Z</time>
      </trkpt>
      <trkpt lat="51.265501203015447" lon="4.842741368338466">
        <ele>4.73</ele>
        <time>2022-02-05T10:41:05Z</time>
      </trkpt>
      <trkpt lat="51.265438590198755" lon="4.84274941496551">
        <ele>4.73</ele>
        <time>2022-02-05T10:41:06Z</time>
      </trkpt>
      <trkpt lat="51.265376228839159" lon="4.842761652544141">
        <ele>4.74</ele>
        <time>2022-02-05T10:41:07Z</time>
      </trkpt>
      <trkpt lat="51.265314370393753" lon="4.842771459370852">
        <ele>4.75</ele>
        <time>2022-02-05T10:41:08Z</time>
      </trkpt>
      <trkpt lat="51.265254858881235" lon="4.842774225398898">
        <ele>4.76</ele>
        <time>2022-02-05T10:41:09Z</time>
      </trkpt>
      <trkpt lat="51.265135584399104" lon="4.842795683071017">
        <ele>4.76</ele>
        <time>2022-02-05T10:41:11Z</time>
      </trkpt>
      <trkpt lat="51.265083197504282" lon="4.842806244269013">
        <ele>4.77</ele>
        <time>2022-02-05T10:41:12Z</time>
      </trkpt>
      <trkpt lat="51.265028463676572" lon="4.84281093813479">
        <ele>4.79</ele>
        <time>2022-02-05T10:41:13Z</time>
      </trkpt>
      <trkpt lat="51.264983285218477" lon="4.842821415513754">
        <ele>4.8</ele>
        <time>2022-02-05T10:41:14Z</time>
      </trkpt>
      <trkpt lat="51.264942800626159" lon="4.842832647264004">
        <ele>4.8</ele>
        <time>2022-02-05T10:41:15Z</time>
      </trkpt>
      <trkpt lat="51.264852024614811" lon="4.842861481010914">
        <ele>4.78</ele>
        <time>2022-02-05T10:41:17Z</time>
      </trkpt>
      <trkpt lat="51.264326144009829" lon="4.842955945059657">
        <ele>4.85</ele>
        <time>2022-02-05T10:41:29Z</time>
      </trkpt>
      <trkpt lat="51.264193039387465" lon="4.843435892835259">
        <ele>4.88</ele>
        <time>2022-02-05T10:41:38Z</time>
      </trkpt>
      <trkpt lat="51.264172839000821" lon="4.843598585575819">
        <ele>4.88</ele>
        <time>2022-02-05T10:41:40Z</time>
      </trkpt>
      <trkpt lat="51.264160433784127" lon="4.843682572245598">
        <ele>4.88</ele>
        <time>2022-02-05T10:41:41Z</time>
      </trkpt>
      <trkpt lat="51.26413905993104" lon="4.843869069591165">
        <ele>4.87</ele>
        <time>2022-02-05T10:41:43Z</time>
      </trkpt>
      <trkpt lat="51.264097904786468" lon="4.844322530552745">
        <ele>4.88</ele>
        <time>2022-02-05T10:41:48Z</time>
      </trkpt>
      <trkpt lat="51.264081811532378" lon="4.844415402039886">
        <ele>4.88</ele>
        <time>2022-02-05T10:41:49Z</time>
      </trkpt>
      <trkpt lat="51.264074603095651" lon="4.84450701624155">
        <ele>4.88</ele>
        <time>2022-02-05T10:41:50Z</time>
      </trkpt>
      <trkpt lat="51.263956166803837" lon="4.845163403078914">
        <ele>4.91</ele>
        <time>2022-02-05T10:42:01Z</time>
      </trkpt>
      <trkpt lat="51.263913000002503" lon="4.845357527956367">
        <ele>4.94</ele>
        <time>2022-02-05T10:42:07Z</time>
      </trkpt>
      <trkpt lat="51.263894392177463" lon="4.845629436895251">
        <ele>5</ele>
        <time>2022-02-05T10:42:17Z</time>
      </trkpt>
      <trkpt lat="51.263887686654925" lon="4.84567922540009">
        <ele>5.01</ele>
        <time>2022-02-05T10:42:19Z</time>
      </trkpt>
      <trkpt lat="51.263894392177463" lon="4.845972340553999">
        <ele>5.89</ele>
        <time>2022-02-05T10:42:34Z</time>
      </trkpt>
      <trkpt lat="51.263893218711019" lon="4.84599195420742">
        <ele>5.9</ele>
        <time>2022-02-05T10:42:35Z</time>
      </trkpt>
      <trkpt lat="51.263876790180802" lon="4.846291607245803">
        <ele>5.97</ele>
        <time>2022-02-05T10:42:46Z</time>
      </trkpt>
      <trkpt lat="51.26385323703289" lon="4.846679102629423">
        <ele>6.07</ele>
        <time>2022-02-05T10:43:00Z</time>
      </trkpt>
      <trkpt lat="51.263852063566446" lon="4.846792677417398">
        <ele>6.11</ele>
        <time>2022-02-05T10:43:05Z</time>
      </trkpt>
      <trkpt lat="51.263831527903676" lon="4.847083278000355">
        <ele>6.21</ele>
        <time>2022-02-05T10:43:18Z</time>
      </trkpt>
      <trkpt lat="51.263826247304678" lon="4.847313109785318">
        <ele>6.24</ele>
        <time>2022-02-05T10:43:30Z</time>
      </trkpt>
      <trkpt lat="51.263821134343743" lon="4.847638159990311">
        <ele>6.24</ele>
        <time>2022-02-05T10:43:46Z</time>
      </trkpt>
      <trkpt lat="51.263841167092323" lon="4.847949547693133">
        <ele>6.19</ele>
        <time>2022-02-05T10:44:00Z</time>
      </trkpt>
      <trkpt lat="51.263768244534731" lon="4.848242327570915">
        <ele>6.07</ele>
        <time>2022-02-05T10:44:16Z</time>
      </trkpt>
      <trkpt lat="51.26375156454742" lon="4.848253726959229">
        <ele>6.06</ele>
        <time>2022-02-05T10:44:17Z</time>
      </trkpt>
      <trkpt lat="51.263493150472641" lon="4.848393704742193">
        <ele>5.92</ele>
        <time>2022-02-05T10:44:30Z</time>
      </trkpt>
      <trkpt lat="51.263279160484672" lon="4.848394794389606">
        <ele>5.81</ele>
        <time>2022-02-05T10:44:43Z</time>
      </trkpt>
      <trkpt lat="51.263069696724415" lon="4.84834567643702">
        <ele>5.71</ele>
        <time>2022-02-05T10:44:56Z</time>
      </trkpt>
      <trkpt lat="51.263037426397204" lon="4.848328661173582">
        <ele>5.69</ele>
        <time>2022-02-05T10:44:59Z</time>
      </trkpt>
      <trkpt lat="51.262837685644627" lon="4.848325476050377">
        <ele>5.6</ele>
        <time>2022-02-05T10:45:13Z</time>
      </trkpt>
      <trkpt lat="51.262624952942133" lon="4.84826403670013">
        <ele>5.51</ele>
        <time>2022-02-05T10:45:26Z</time>
      </trkpt>
      <trkpt lat="51.262441221624613" lon="4.848236292600632">
        <ele>5.42</ele>
        <time>2022-02-05T10:45:38Z</time>
      </trkpt>
      <trkpt lat="51.262280540540814" lon="4.848165800794959">
        <ele>5.31</ele>
        <time>2022-02-05T10:45:50Z</time>
      </trkpt>
      <trkpt lat="51.26207166351378" lon="4.848115760833025">
        <ele>5.16</ele>
        <time>2022-02-05T10:46:06Z</time>
      </trkpt>
      <trkpt lat="51.261873012408614" lon="4.848108887672424">
        <ele>4.99</ele>
        <time>2022-02-05T10:46:21Z</time>
      </trkpt>
      <trkpt lat="51.261728676036" lon="4.848134871572256">
        <ele>4.9</ele>
        <time>2022-02-05T10:46:28Z</time>
      </trkpt>
      <trkpt lat="51.261520637199283" lon="4.848193125799298">
        <ele>4.71</ele>
        <time>2022-02-05T10:46:42Z</time>
      </trkpt>
      <trkpt lat="51.26132357865572" lon="4.848326398059726">
        <ele>4.49</ele>
        <time>2022-02-05T10:46:57Z</time>
      </trkpt>
      <trkpt lat="51.261179074645042" lon="4.848406696692109">
        <ele>4.34</ele>
        <time>2022-02-05T10:47:08Z</time>
      </trkpt>
      <trkpt lat="51.260924097150564" lon="4.848553379997611">
        <ele>4.07</ele>
        <time>2022-02-05T10:47:26Z</time>
      </trkpt>
      <trkpt lat="51.260914793238044" lon="4.848561007529497">
        <ele>4.06</ele>
        <time>2022-02-05T10:47:27Z</time>
      </trkpt>
      <trkpt lat="51.260903477668762" lon="4.848559414967895">
        <ele>4.04</ele>
        <time>2022-02-05T10:47:28Z</time>
      </trkpt>
      <trkpt lat="51.260884199291468" lon="4.848572742193937">
        <ele>4.03</ele>
        <time>2022-02-05T10:47:29Z</time>
      </trkpt>
      <trkpt lat="51.260863663628697" lon="4.848582968115807">
        <ele>4.02</ele>
        <time>2022-02-05T10:47:30Z</time>
      </trkpt>
      <trkpt lat="51.260843966156244" lon="4.848594032227993">
        <ele>4</ele>
        <time>2022-02-05T10:47:31Z</time>
      </trkpt>
      <trkpt lat="51.26083005219698" lon="4.848605180159211">
        <ele>3.99</ele>
        <time>2022-02-05T10:47:32Z</time>
      </trkpt>
      <trkpt lat="51.260818652808666" lon="4.848618926480413">
        <ele>3.98</ele>
        <time>2022-02-05T10:47:33Z</time>
      </trkpt>
      <trkpt lat="51.260807337239385" lon="4.848624626174569">
        <ele>3.97</ele>
        <time>2022-02-05T10:47:34Z</time>
      </trkpt>
      <trkpt lat="51.260794345289469" lon="4.848629487678409">
        <ele>3.95</ele>
        <time>2022-02-05T10:47:35Z</time>
      </trkpt>
      <trkpt lat="51.26038153655827" lon="4.84882646240294">
        <ele>3.63</ele>
        <time>2022-02-05T10:48:04Z</time>
      </trkpt>
      <trkpt lat="51.260248431935906" lon="4.848939701914787">
        <ele>3.54</ele>
        <time>2022-02-05T10:48:15Z</time>
      </trkpt>
      <trkpt lat="51.260235439985991" lon="4.848944479599595">
        <ele>3.54</ele>
        <time>2022-02-05T10:48:16Z</time>
      </trkpt>
      <trkpt lat="51.260169977322221" lon="4.848990580067039">
        <ele>3.49</ele>
        <time>2022-02-05T10:48:22Z</time>
      </trkpt>
      <trkpt lat="51.260154386982322" lon="4.848989993333817">
        <ele>3.49</ele>
        <time>2022-02-05T10:48:23Z</time>
      </trkpt>
      <trkpt lat="51.260140975937247" lon="4.8489925917238">
        <ele>3.48</ele>
        <time>2022-02-05T10:48:24Z</time>
      </trkpt>
      <trkpt lat="51.260124715045094" lon="4.848996698856354">
        <ele>3.48</ele>
        <time>2022-02-05T10:48:25Z</time>
      </trkpt>
      <trkpt lat="51.260108621791005" lon="4.849002817645669">
        <ele>3.46</ele>
        <time>2022-02-05T10:48:26Z</time>
      </trkpt>
      <trkpt lat="51.25999454408884" lon="4.849045816808939">
        <ele>3.41</ele>
        <time>2022-02-05T10:48:35Z</time>
      </trkpt>
      <trkpt lat="51.259789187461138" lon="4.849155116826296">
        <ele>4.22</ele>
        <time>2022-02-05T10:48:50Z</time>
      </trkpt>
      <trkpt lat="51.259770998731256" lon="4.849154865369201">
        <ele>4.22</ele>
        <time>2022-02-05T10:48:51Z</time>
      </trkpt>
      <trkpt lat="51.25972674228251" lon="4.849135670810938">
        <ele>4.2</ele>
        <time>2022-02-05T10:48:54Z</time>
      </trkpt>
      <trkpt lat="51.259705787524581" lon="4.849137347191572">
        <ele>4.2</ele>
        <time>2022-02-05T10:48:55Z</time>
      </trkpt>
      <trkpt lat="51.259496826678514" lon="4.849110273644328">
        <ele>4.14</ele>
        <time>2022-02-05T10:49:05Z</time>
      </trkpt>
      <trkpt lat="51.259222151711583" lon="4.84896962530911">
        <ele>4.08</ele>
        <time>2022-02-05T10:49:16Z</time>
      </trkpt>
      <trkpt lat="51.259082425385714" lon="4.848896199837327">
        <ele>1.81</ele>
        <time>2022-02-05T10:49:20Z</time>
      </trkpt>
      <trkpt lat="51.258680429309607" lon="4.848734848201275">
        <ele>1.79</ele>
        <time>2022-02-05T10:49:32Z</time>
      </trkpt>
      <trkpt lat="51.25856383703649" lon="4.848673408851028">
        <ele>0.98</ele>
        <time>2022-02-05T10:49:35Z</time>
      </trkpt>
      <trkpt lat="51.25832193531096" lon="4.848521193489432">
        <ele>0.94</ele>
        <time>2022-02-05T10:49:44Z</time>
      </trkpt>
      <trkpt lat="51.258311541751027" lon="4.848497891798616">
        <ele>0.94</ele>
        <time>2022-02-05T10:49:45Z</time>
      </trkpt>
      <trkpt lat="51.258309613913298" lon="4.848460340872407">
        <ele>0.93</ele>
        <time>2022-02-05T10:49:46Z</time>
      </trkpt>
      <trkpt lat="51.258305590599775" lon="4.848423795774579">
        <ele>0.93</ele>
        <time>2022-02-05T10:49:47Z</time>
      </trkpt>
      <trkpt lat="51.258301986381412" lon="4.848387418314815">
        <ele>0.91</ele>
        <time>2022-02-05T10:49:48Z</time>
      </trkpt>
      <trkpt lat="51.258288826793432" lon="4.848356069996953">
        <ele>0.9</ele>
        <time>2022-02-05T10:49:49Z</time>
      </trkpt>
      <trkpt lat="51.258282791823149" lon="4.848317764699459">
        <ele>0.89</ele>
        <time>2022-02-05T10:49:50Z</time>
      </trkpt>
      <trkpt lat="51.258276589214802" lon="4.848282393068075">
        <ele>0.88</ele>
        <time>2022-02-05T10:49:51Z</time>
      </trkpt>
      <trkpt lat="51.258266279473901" lon="4.848251799121499">
        <ele>0.87</ele>
        <time>2022-02-05T10:49:52Z</time>
      </trkpt>
      <trkpt lat="51.258252700790763" lon="4.848220031708479">
        <ele>0.87</ele>
        <time>2022-02-05T10:49:53Z</time>
      </trkpt>
      <trkpt lat="51.258211042732" lon="4.848091118037701">
        <ele>0.8</ele>
        <time>2022-02-05T10:49:57Z</time>
      </trkpt>
      <trkpt lat="51.258197799324989" lon="4.848029762506485">
        <ele>0.78</ele>
        <time>2022-02-05T10:49:58Z</time>
      </trkpt>
      <trkpt lat="51.25818220898509" lon="4.847951140254736">
        <ele>0.78</ele>
        <time>2022-02-05T10:49:59Z</time>
      </trkpt>
      <trkpt lat="51.25817533582449" lon="4.847902860492468">
        <ele>0.75</ele>
        <time>2022-02-05T10:50:00Z</time>
      </trkpt>
      <trkpt lat="51.258162846788764" lon="4.847849132493138">
        <ele>0.73</ele>
        <time>2022-02-05T10:50:01Z</time>
      </trkpt>
      <trkpt lat="51.258052373304963" lon="4.847330208867788">
        <ele>0.56</ele>
        <time>2022-02-05T10:50:10Z</time>
      </trkpt>
      <trkpt lat="51.258042734116316" lon="4.847266003489494">
        <ele>0.56</ele>
        <time>2022-02-05T10:50:11Z</time>
      </trkpt>
      <trkpt lat="51.258021863177419" lon="4.847205150872469">
        <ele>0.52</ele>
        <time>2022-02-05T10:50:12Z</time>
      </trkpt>
      <trkpt lat="51.258004512637854" lon="4.8471690248698">
        <ele>0.51</ele>
        <time>2022-02-05T10:50:13Z</time>
      </trkpt>
      <trkpt lat="51.257988419383764" lon="4.847119655460119">
        <ele>0.51</ele>
        <time>2022-02-05T10:50:14Z</time>
      </trkpt>
      <trkpt lat="51.25797894783318" lon="4.847066681832075">
        <ele>0.47</ele>
        <time>2022-02-05T10:50:15Z</time>
      </trkpt>
      <trkpt lat="51.257968889549375" lon="4.847037764266133">
        <ele>0.45</ele>
        <time>2022-02-05T10:50:16Z</time>
      </trkpt>
      <trkpt lat="51.257962603121996" lon="4.846993591636419">
        <ele>0.45</ele>
        <time>2022-02-05T10:50:17Z</time>
      </trkpt>
      <trkpt lat="51.257950030267239" lon="4.846944306045771">
        <ele>0.41</ele>
        <time>2022-02-05T10:50:18Z</time>
      </trkpt>
      <trkpt lat="51.257939971983433" lon="4.846900552511215">
        <ele>0.39</ele>
        <time>2022-02-05T10:50:19Z</time>
      </trkpt>
      <trkpt lat="51.257924297824502" lon="4.84686559997499">
        <ele>0.37</ele>
        <time>2022-02-05T10:50:20Z</time>
      </trkpt>
      <trkpt lat="51.257910467684269" lon="4.846833078190684">
        <ele>0.35</ele>
        <time>2022-02-05T10:50:21Z</time>
      </trkpt>
      <trkpt lat="51.257755067199469" lon="4.846399649977684">
        <ele>0.16</ele>
        <time>2022-02-05T10:50:30Z</time>
      </trkpt>
      <trkpt lat="51.257486511021852" lon="4.845986505970359">
        <ele>1.48</ele>
        <time>2022-02-05T10:50:39Z</time>
      </trkpt>
      <trkpt lat="51.257262546569109" lon="4.845469677820802">
        <ele>0.86</ele>
        <time>2022-02-05T10:51:25Z</time>
      </trkpt>
      <trkpt lat="51.257290709763765" lon="4.845435982570052">
        <ele>0.84</ele>
        <time>2022-02-05T10:51:27Z</time>
      </trkpt>
      <trkpt lat="51.257304036989808" lon="4.845419134944677">
        <ele>0.83</ele>
        <time>2022-02-05T10:51:28Z</time>
      </trkpt>
      <trkpt lat="51.257322896271944" lon="4.845414441078901">
        <ele>0.82</ele>
        <time>2022-02-05T10:51:29Z</time>
      </trkpt>
      <trkpt lat="51.257334128022194" lon="4.845403460785747">
        <ele>0.81</ele>
        <time>2022-02-05T10:51:30Z</time>
      </trkpt>
      <trkpt lat="51.257352316752076" lon="4.845389379188418">
        <ele>0.8</ele>
        <time>2022-02-05T10:51:31Z</time>
      </trkpt>
      <trkpt lat="51.257367907091975" lon="4.845377644523978">
        <ele>0.79</ele>
        <time>2022-02-05T10:51:32Z</time>
      </trkpt>
      <trkpt lat="51.257372684776783" lon="4.845350738614798">
        <ele>0.78</ele>
        <time>2022-02-05T10:51:33Z</time>
      </trkpt>
      <trkpt lat="51.257378971204162" lon="4.845326514914632">
        <ele>0.77</ele>
        <time>2022-02-05T10:51:34Z</time>
      </trkpt>
      <trkpt lat="51.25742138363421" lon="4.845143705606461">
        <ele>0.71</ele>
        <time>2022-02-05T10:51:41Z</time>
      </trkpt>
      <trkpt lat="51.257428759709001" lon="4.845123002305627">
        <ele>2.77</ele>
        <time>2022-02-05T10:51:42Z</time>
      </trkpt>
      <trkpt lat="51.257432363927364" lon="4.845097772777081">
        <ele>2.73</ele>
        <time>2022-02-05T10:51:43Z</time>
      </trkpt>
      <trkpt lat="51.25743362121284" lon="4.845075812190771">
        <ele>0.26</ele>
        <time>2022-02-05T10:51:44Z</time>
      </trkpt>
      <trkpt lat="51.257434878498316" lon="4.845051756128669">
        <ele>-1.59</ele>
        <time>2022-02-05T10:51:45Z</time>
      </trkpt>
      <trkpt lat="51.25743848271668" lon="4.845024012029171">
        <ele>-1.58</ele>
        <time>2022-02-05T10:51:46Z</time>
      </trkpt>
      <trkpt lat="51.257443176582456" lon="4.844995262101293">
        <ele>-1.56</ele>
        <time>2022-02-05T10:51:47Z</time>
      </trkpt>
      <trkpt lat="51.257446529343724" lon="4.844946563243866">
        <ele>2.98</ele>
        <time>2022-02-05T10:51:49Z</time>
      </trkpt>
      <trkpt lat="51.257449043914676" lon="4.844916136935353">
        <ele>2.95</ele>
        <time>2022-02-05T10:51:50Z</time>
      </trkpt>
      <trkpt lat="51.257456336170435" lon="4.844855619594455">
        <ele>0.57</ele>
        <time>2022-02-05T10:51:52Z</time>
      </trkpt>
      <trkpt lat="51.257497910410166" lon="4.844665182754397">
        <ele>-0.31</ele>
        <time>2022-02-05T10:52:00Z</time>
      </trkpt>
      <trkpt lat="51.257500341162086" lon="4.844642551615834">
        <ele>-0.32</ele>
        <time>2022-02-05T10:52:01Z</time>
      </trkpt>
      <trkpt lat="51.257504280656576" lon="4.844617741182447">
        <ele>-0.31</ele>
        <time>2022-02-05T10:52:02Z</time>
      </trkpt>
      <trkpt lat="51.257504029199481" lon="4.844595193862915">
        <ele>-0.28</ele>
        <time>2022-02-05T10:52:03Z</time>
      </trkpt>
      <trkpt lat="51.257505705580115" lon="4.844569964334369">
        <ele>-0.27</ele>
        <time>2022-02-05T10:52:04Z</time>
      </trkpt>
      <trkpt lat="51.257510650902987" lon="4.844541298225522">
        <ele>-0.28</ele>
        <time>2022-02-05T10:52:05Z</time>
      </trkpt>
      <trkpt lat="51.25751425512135" lon="4.844512967392802">
        <ele>-0.3</ele>
        <time>2022-02-05T10:52:06Z</time>
      </trkpt>
      <trkpt lat="51.257517272606492" lon="4.844478433951736">
        <ele>-0.32</ele>
        <time>2022-02-05T10:52:07Z</time>
      </trkpt>
      <trkpt lat="51.257522972300649" lon="4.844443565234542">
        <ele>-0.36</ele>
        <time>2022-02-05T10:52:08Z</time>
      </trkpt>
      <trkpt lat="51.257539400830865" lon="4.844355639070272">
        <ele>-0.33</ele>
        <time>2022-02-05T10:52:11Z</time>
      </trkpt>
      <trkpt lat="51.25754551962018" lon="4.844327392056584">
        <ele>-0.35</ele>
        <time>2022-02-05T10:52:12Z</time>
      </trkpt>
      <trkpt lat="51.25754895620048" lon="4.844297217205167">
        <ele>-0.36</ele>
        <time>2022-02-05T10:52:13Z</time>
      </trkpt>
      <trkpt lat="51.257552811875939" lon="4.844267377629876">
        <ele>-0.36</ele>
        <time>2022-02-05T10:52:14Z</time>
      </trkpt>
      <trkpt lat="51.257559768855572" lon="4.844236448407173">
        <ele>-0.36</ele>
        <time>2022-02-05T10:52:15Z</time>
      </trkpt>
      <trkpt lat="51.257566558197141" lon="4.844206357374787">
        <ele>-0.37</ele>
        <time>2022-02-05T10:52:16Z</time>
      </trkpt>
      <trkpt lat="51.257569072768092" lon="4.844180708751082">
        <ele>-0.42</ele>
        <time>2022-02-05T10:52:17Z</time>
      </trkpt>
      <trkpt lat="51.257633781060576" lon="4.843794219195843">
        <ele>-0.49</ele>
        <time>2022-02-05T10:52:33Z</time>
      </trkpt>
      <trkpt lat="51.257672840729356" lon="4.843607973307371">
        <ele>-0.51</ele>
        <time>2022-02-05T10:52:40Z</time>
      </trkpt>
      <trkpt lat="51.257678959518671" lon="4.843579893931747">
        <ele>-0.51</ele>
        <time>2022-02-05T10:52:41Z</time>
      </trkpt>
      <trkpt lat="51.257684240117669" lon="4.843552820384502">
        <ele>-0.52</ele>
        <time>2022-02-05T10:52:42Z</time>
      </trkpt>
      <trkpt lat="51.257733777165413" lon="4.843225507065654">
        <ele>-0.5</ele>
        <time>2022-02-05T10:52:55Z</time>
      </trkpt>
      <trkpt lat="51.257750876247883" lon="4.843055522069335">
        <ele>-0.4</ele>
        <time>2022-02-05T10:53:01Z</time>
      </trkpt>
      <trkpt lat="51.257758252322674" lon="4.843029119074345">
        <ele>-0.43</ele>
        <time>2022-02-05T10:53:02Z</time>
      </trkpt>
      <trkpt lat="51.257761353626847" lon="4.842992406338453">
        <ele>-0.46</ele>
        <time>2022-02-05T10:53:03Z</time>
      </trkpt>
      <trkpt lat="51.257767640054226" lon="4.842951837927103">
        <ele>-0.46</ele>
        <time>2022-02-05T10:53:04Z</time>
      </trkpt>
      <trkpt lat="51.257775016129017" lon="4.842905402183533">
        <ele>-0.46</ele>
        <time>2022-02-05T10:53:05Z</time>
      </trkpt>
      <trkpt lat="51.257784403860569" lon="4.842849913984537">
        <ele>-0.48</ele>
        <time>2022-02-05T10:53:06Z</time>
      </trkpt>
      <trkpt lat="51.257796389982104" lon="4.842779086902738">
        <ele>-3.68</ele>
        <time>2022-02-05T10:53:07Z</time>
      </trkpt>
      <trkpt lat="51.257809465751052" lon="4.842701386660337">
        <ele>-3.72</ele>
        <time>2022-02-05T10:53:08Z</time>
      </trkpt>
      <trkpt lat="51.257899319753051" lon="4.842120939865708">
        <ele>-4.54</ele>
        <time>2022-02-05T10:53:15Z</time>
      </trkpt>
      <trkpt lat="51.257909964770079" lon="4.842039048671722">
        <ele>-4.58</ele>
        <time>2022-02-05T10:53:16Z</time>
      </trkpt>
      <trkpt lat="51.257927315309644" lon="4.841864453628659">
        <ele>-4.58</ele>
        <time>2022-02-05T10:53:18Z</time>
      </trkpt>
      <trkpt lat="51.257939804345369" lon="4.841704107820988">
        <ele>-2.23</ele>
        <time>2022-02-05T10:53:20Z</time>
      </trkpt>
      <trkpt lat="51.257993783801794" lon="4.841464720666409">
        <ele>-2.18</ele>
        <time>2022-02-05T10:53:23Z</time>
      </trkpt>
      <trkpt lat="51.258069891482592" lon="4.841251820325851">
        <ele>-2.15</ele>
        <time>2022-02-05T10:53:26Z</time>
      </trkpt>
      <trkpt lat="51.258160080760717" lon="4.840953089296818">
        <ele>-2.08</ele>
        <time>2022-02-05T10:53:30Z</time>
      </trkpt>
      <trkpt lat="51.258176760748029" lon="4.840866001322866">
        <ele>-2.02</ele>
        <time>2022-02-05T10:53:31Z</time>
      </trkpt>
      <trkpt lat="51.258193524554372" lon="4.840772459283471">
        <ele>-2.02</ele>
        <time>2022-02-05T10:53:32Z</time>
      </trkpt>
      <trkpt lat="51.258236272260547" lon="4.840508261695504">
        <ele>-2.06</ele>
        <time>2022-02-05T10:53:35Z</time>
      </trkpt>
      <trkpt lat="51.258244654163718" lon="4.840412037447095">
        <ele>-2.13</ele>
        <time>2022-02-05T10:53:36Z</time>
      </trkpt>
      <trkpt lat="51.258251862600446" lon="4.840334421023727">
        <ele>-2.11</ele>
        <time>2022-02-05T10:53:37Z</time>
      </trkpt>
      <trkpt lat="51.258257394656539" lon="4.840261666104198">
        <ele>-2.12</ele>
        <time>2022-02-05T10:53:38Z</time>
      </trkpt>
      <trkpt lat="51.258263848721981" lon="4.840188324451447">
        <ele>-2.04</ele>
        <time>2022-02-05T10:53:39Z</time>
      </trkpt>
      <trkpt lat="51.258274493739009" lon="4.840124789625406">
        <ele>-2</ele>
        <time>2022-02-05T10:53:40Z</time>
      </trkpt>
      <trkpt lat="51.258285557851195" lon="4.84005656093359">
        <ele>-1.96</ele>
        <time>2022-02-05T10:53:41Z</time>
      </trkpt>
      <trkpt lat="51.258294358849525" lon="4.839983806014061">
        <ele>-1.96</ele>
        <time>2022-02-05T10:53:42Z</time>
      </trkpt>
      <trkpt lat="51.258300393819809" lon="4.839828908443451">
        <ele>-0.78</ele>
        <time>2022-02-05T10:53:44Z</time>
      </trkpt>
      <trkpt lat="51.258288575336337" lon="4.839739808812738">
        <ele>-0.78</ele>
        <time>2022-02-05T10:53:45Z</time>
      </trkpt>
      <trkpt lat="51.258160835132003" lon="4.838977055624127">
        <ele>-0.71</ele>
        <time>2022-02-05T10:53:53Z</time>
      </trkpt>
      <trkpt lat="51.25813233666122" lon="4.838554272428155">
        <ele>-0.62</ele>
        <time>2022-02-05T10:53:57Z</time>
      </trkpt>
      <trkpt lat="51.258097384124994" lon="4.838324273005128">
        <ele>-0.62</ele>
        <time>2022-02-05T10:53:59Z</time>
      </trkpt>
      <trkpt lat="51.258082967251539" lon="4.838216817006469">
        <ele>-0.68</ele>
        <time>2022-02-05T10:54:00Z</time>
      </trkpt>
      <trkpt lat="51.258059497922659" lon="4.83810449950397">
        <ele>-4.17</ele>
        <time>2022-02-05T10:54:01Z</time>
      </trkpt>
      <trkpt lat="51.258030077442527" lon="4.83800089918077">
        <ele>-4.25</ele>
        <time>2022-02-05T10:54:02Z</time>
      </trkpt>
      <trkpt lat="51.258003003895283" lon="4.837887911126018">
        <ele>-4.25</ele>
        <time>2022-02-05T10:54:03Z</time>
      </trkpt>
      <trkpt lat="51.257857913151383" lon="4.837370663881302">
        <ele>-5.31</ele>
        <time>2022-02-05T10:54:08Z</time>
      </trkpt>
      <trkpt lat="51.257795551791787" lon="4.837064556777477">
        <ele>-1.3</ele>
        <time>2022-02-05T10:54:11Z</time>
      </trkpt>
      <trkpt lat="51.257788594812155" lon="4.836961040273309">
        <ele>-1.4</ele>
        <time>2022-02-05T10:54:12Z</time>
      </trkpt>
      <trkpt lat="51.257791863754392" lon="4.836856937035918">
        <ele>-1.31</ele>
        <time>2022-02-05T10:54:13Z</time>
      </trkpt>
      <trkpt lat="51.25771801918745" lon="4.836326697841287">
        <ele>-0.29</ele>
        <time>2022-02-05T10:54:18Z</time>
      </trkpt>
      <trkpt lat="51.257919352501631" lon="4.835308128967881">
        <ele>1.16</ele>
        <time>2022-02-05T10:54:33Z</time>
      </trkpt>
      <trkpt lat="51.257922369986773" lon="4.83523671515286">
        <ele>1.27</ele>
        <time>2022-02-05T10:54:34Z</time>
      </trkpt>
      <trkpt lat="51.258034016937017" lon="4.834828265011311">
        <ele>1.91</ele>
        <time>2022-02-05T10:54:49Z</time>
      </trkpt>
      <trkpt lat="51.258054636418819" lon="4.834721479564905">
        <ele>-0.22</ele>
        <time>2022-02-05T10:54:53Z</time>
      </trkpt>
      <trkpt lat="51.258070226758718" lon="4.834648808464408">
        <ele>2.97</ele>
        <time>2022-02-05T10:54:56Z</time>
      </trkpt>
      <trkpt lat="51.258077016100287" lon="4.834626093506813">
        <ele>3.06</ele>
        <time>2022-02-05T10:54:57Z</time>
      </trkpt>
      <trkpt lat="51.258194614201784" lon="4.834326524287462">
        <ele>3.1</ele>
        <time>2022-02-05T10:55:11Z</time>
      </trkpt>
      <trkpt lat="51.258222023025155" lon="4.834243124350905">
        <ele>0.67</ele>
        <time>2022-02-05T10:55:15Z</time>
      </trkpt>
      <trkpt lat="51.258231326937675" lon="4.834221918135881">
        <ele>0.67</ele>
        <time>2022-02-05T10:55:16Z</time>
      </trkpt>
      <trkpt lat="51.258283881470561" lon="4.834094764664769">
        <ele>-0.12</ele>
        <time>2022-02-05T10:55:22Z</time>
      </trkpt>
      <trkpt lat="51.258294275030494" lon="4.834076408296824">
        <ele>-0.12</ele>
        <time>2022-02-05T10:55:23Z</time>
      </trkpt>
      <trkpt lat="51.258302824571729" lon="4.834054531529546">
        <ele>-0.12</ele>
        <time>2022-02-05T10:55:24Z</time>
      </trkpt>
      <trkpt lat="51.258327718824148" lon="4.833998372778297">
        <ele>-0.15</ele>
        <time>2022-02-05T10:55:27Z</time>
      </trkpt>
      <trkpt lat="51.258392427116632" lon="4.833833500742912">
        <ele>-0.11</ele>
        <time>2022-02-05T10:55:35Z</time>
      </trkpt>
      <trkpt lat="51.258549001067877" lon="4.833457237109542">
        <ele>-0.12</ele>
        <time>2022-02-05T10:55:53Z</time>
      </trkpt>
      <trkpt lat="51.258680848404765" lon="4.833097737282515">
        <ele>1.42</ele>
        <time>2022-02-05T10:56:09Z</time>
      </trkpt>
      <trkpt lat="51.258690236136317" lon="4.833077201619744">
        <ele>1.42</ele>
        <time>2022-02-05T10:56:10Z</time>
      </trkpt>
      <trkpt lat="51.258868519216776" lon="4.832881819456816">
        <ele>1.44</ele>
        <time>2022-02-05T10:56:23Z</time>
      </trkpt>
      <trkpt lat="51.259006066247821" lon="4.832659866660833">
        <ele>1.46</ele>
        <time>2022-02-05T10:56:35Z</time>
      </trkpt>
      <trkpt lat="51.259023584425449" lon="4.832626506686211">
        <ele>1.46</ele>
        <time>2022-02-05T10:56:37Z</time>
      </trkpt>
      <trkpt lat="51.259031966328621" lon="4.832612928003073">
        <ele>1.47</ele>
        <time>2022-02-05T10:56:38Z</time>
      </trkpt>
      <trkpt lat="51.259040432050824" lon="4.832595158368349">
        <ele>1.47</ele>
        <time>2022-02-05T10:56:39Z</time>
      </trkpt>
      <trkpt lat="51.259056022390723" lon="4.832560624927282">
        <ele>1.45</ele>
        <time>2022-02-05T10:56:41Z</time>
      </trkpt>
      <trkpt lat="51.25907982699573" lon="4.832494826987386">
        <ele>1.48</ele>
        <time>2022-02-05T10:56:46Z</time>
      </trkpt>
      <trkpt lat="51.259091729298234" lon="4.83247839845717">
        <ele>1.47</ele>
        <time>2022-02-05T10:56:47Z</time>
      </trkpt>
      <trkpt lat="51.259269928559661" lon="4.832265330478549">
        <ele>1.47</ele>
        <time>2022-02-05T10:57:02Z</time>
      </trkpt>
      <trkpt lat="51.259615262970328" lon="4.831640711054206">
        <ele>-1.15</ele>
        <time>2022-02-05T10:57:34Z</time>
      </trkpt>
      <trkpt lat="51.259666560217738" lon="4.831496374681592">
        <ele>-1.11</ele>
        <time>2022-02-05T10:57:39Z</time>
      </trkpt>
      <trkpt lat="51.259667314589024" lon="4.831437785178423">
        <ele>-1.13</ele>
        <time>2022-02-05T10:57:40Z</time>
      </trkpt>
      <trkpt lat="51.25967301428318" lon="4.831395288929343">
        <ele>-1.15</ele>
        <time>2022-02-05T10:57:41Z</time>
      </trkpt>
      <trkpt lat="51.259686257690191" lon="4.831370981410146">
        <ele>-1.15</ele>
        <time>2022-02-05T10:57:42Z</time>
      </trkpt>
      <trkpt lat="51.259696651250124" lon="4.831351786851883">
        <ele>-1.16</ele>
        <time>2022-02-05T10:57:43Z</time>
      </trkpt>
      <trkpt lat="51.259789438918233" lon="4.831191021949053">
        <ele>0.99</ele>
        <time>2022-02-05T10:57:50Z</time>
      </trkpt>
      <trkpt lat="51.259893290698528" lon="4.830917939543724">
        <ele>0.88</ele>
        <time>2022-02-05T10:58:03Z</time>
      </trkpt>
      <trkpt lat="51.260008877143264" lon="4.83068224042654">
        <ele>0.8</ele>
        <time>2022-02-05T10:58:14Z</time>
      </trkpt>
      <trkpt lat="51.260021114721894" lon="4.830658938735724">
        <ele>0.78</ele>
        <time>2022-02-05T10:58:15Z</time>
      </trkpt>
      <trkpt lat="51.260030334815383" lon="4.830641001462936">
        <ele>0.78</ele>
        <time>2022-02-05T10:58:16Z</time>
      </trkpt>
      <trkpt lat="51.260184813290834" lon="4.830383257940412">
        <ele>0.7</ele>
        <time>2022-02-05T10:58:29Z</time>
      </trkpt>
      <trkpt lat="51.260291766375303" lon="4.830152336508036">
        <ele>0.72</ele>
        <time>2022-02-05T10:58:42Z</time>
      </trkpt>
      <trkpt lat="51.260296879336238" lon="4.830126855522394">
        <ele>0.72</ele>
        <time>2022-02-05T10:58:43Z</time>
      </trkpt>
      <trkpt lat="51.260303081944585" lon="4.830103302374482">
        <ele>0.71</ele>
        <time>2022-02-05T10:58:44Z</time>
      </trkpt>
      <trkpt lat="51.260372065007687" lon="4.829831393435597">
        <ele>0.72</ele>
        <time>2022-02-05T10:58:57Z</time>
      </trkpt>
      <trkpt lat="51.260379608720541" lon="4.829450603574514">
        <ele>0.72</ele>
        <time>2022-02-05T10:59:11Z</time>
      </trkpt>
      <trkpt lat="51.260388744994998" lon="4.829281875863671">
        <ele>0.75</ele>
        <time>2022-02-05T10:59:17Z</time>
      </trkpt>
      <trkpt lat="51.26039226539433" lon="4.829260166734457">
        <ele>0.74</ele>
        <time>2022-02-05T10:59:18Z</time>
      </trkpt>
      <trkpt lat="51.260394612327218" lon="4.82923736795783">
        <ele>0.72</ele>
        <time>2022-02-05T10:59:19Z</time>
      </trkpt>
      <trkpt lat="51.260395785793662" lon="4.829213479533792">
        <ele>0.75</ele>
        <time>2022-02-05T10:59:20Z</time>
      </trkpt>
      <trkpt lat="51.260399306192994" lon="4.829186908900738">
        <ele>0.77</ele>
        <time>2022-02-05T10:59:21Z</time>
      </trkpt>
      <trkpt lat="51.260401485487819" lon="4.829159583896399">
        <ele>0.8</ele>
        <time>2022-02-05T10:59:22Z</time>
      </trkpt>
      <trkpt lat="51.260403832420707" lon="4.829135360196233">
        <ele>0.8</ele>
        <time>2022-02-05T10:59:23Z</time>
      </trkpt>
      <trkpt lat="51.260421182960272" lon="4.828807627782226">
        <ele>1.63</ele>
        <time>2022-02-05T10:59:36Z</time>
      </trkpt>
      <trkpt lat="51.260438533499837" lon="4.828463131561875">
        <ele>1.69</ele>
        <time>2022-02-05T10:59:50Z</time>
      </trkpt>
      <trkpt lat="51.260453956201673" lon="4.828310245648027">
        <ele>3.46</ele>
        <time>2022-02-05T10:59:56Z</time>
      </trkpt>
      <trkpt lat="51.260461583733559" lon="4.828150318935514">
        <ele>1.04</ele>
        <time>2022-02-05T11:00:03Z</time>
      </trkpt>
      <trkpt lat="51.260450603440404" lon="4.827835410833359">
        <ele>1.16</ele>
        <time>2022-02-05T11:00:16Z</time>
      </trkpt>
      <trkpt lat="51.260429732501507" lon="4.82765419408679">
        <ele>1.21</ele>
        <time>2022-02-05T11:00:30Z</time>
      </trkpt>
      <trkpt lat="51.260413471609354" lon="4.827536595985293">
        <ele>1.23</ele>
        <time>2022-02-05T11:00:49Z</time>
      </trkpt>
      <trkpt lat="51.260381704196334" lon="4.827298382297158">
        <ele>1.3</ele>
        <time>2022-02-05T11:01:07Z</time>
      </trkpt>
      <trkpt lat="51.260343147441745" lon="4.827002417296171">
        <ele>1.3</ele>
        <time>2022-02-05T11:01:15Z</time>
      </trkpt>
      <trkpt lat="51.2602867372334" lon="4.826685581356287">
        <ele>1.28</ele>
        <time>2022-02-05T11:01:36Z</time>
      </trkpt>
      <trkpt lat="51.260278522968292" lon="4.826665045693517">
        <ele>1.28</ele>
        <time>2022-02-05T11:01:37Z</time>
      </trkpt>
      <trkpt lat="51.260285312309861" lon="4.826503610238433">
        <ele>1.21</ele>
        <time>2022-02-05T11:01:45Z</time>
      </trkpt>
      <trkpt lat="51.260192273184657" lon="4.826067583635449">
        <ele>1.16</ele>
        <time>2022-02-05T11:02:12Z</time>
      </trkpt>
      <trkpt lat="51.261053597554564" lon="4.82580816373229">
        <ele>1.03</ele>
        <time>2022-02-05T11:02:36Z</time>
      </trkpt>
      <trkpt lat="51.261431118473411" lon="4.825465427711606">
        <ele>0.29</ele>
        <time>2022-02-05T11:02:48Z</time>
      </trkpt>
      <trkpt lat="51.261776955798268" lon="4.825135180726647">
        <ele>0.25</ele>
        <time>2022-02-05T11:02:59Z</time>
      </trkpt>
      <trkpt lat="51.262058839201927" lon="4.824850950390101">
        <ele>0.17</ele>
        <time>2022-02-05T11:03:08Z</time>
      </trkpt>
      <trkpt lat="51.262239553034306" lon="4.824663447216153">
        <ele>2.51</ele>
        <time>2022-02-05T11:03:15Z</time>
      </trkpt>
      <trkpt lat="51.262509031221271" lon="4.824468484148383">
        <ele>2.47</ele>
        <time>2022-02-05T11:03:23Z</time>
      </trkpt>
      <trkpt lat="51.262997360900044" lon="4.823943106457591">
        <ele>2.41</ele>
        <time>2022-02-05T11:03:35Z</time>
      </trkpt>
      <trkpt lat="51.262975232675672" lon="4.823180185630918">
        <ele>2.25</ele>
        <time>2022-02-05T11:03:55Z</time>
      </trkpt>
      <trkpt lat="51.262984955683351" lon="4.823005171492696">
        <ele>2.11</ele>
        <time>2022-02-05T11:04:00Z</time>
      </trkpt>
      <trkpt lat="51.262978501617908" lon="4.822523463517427">
        <ele>2.04</ele>
        <time>2022-02-05T11:04:06Z</time>
      </trkpt>
      <trkpt lat="51.262477096170187" lon="4.822469484061003">
        <ele>1.82</ele>
        <time>2022-02-05T11:04:33Z</time>
      </trkpt>
      <trkpt lat="51.262458488345146" lon="4.822350712493062">
        <ele>1.78</ele>
        <time>2022-02-05T11:04:38Z</time>
      </trkpt>
      <trkpt lat="51.262494530528784" lon="4.822086431086063">
        <ele>1.7</ele>
        <time>2022-02-05T11:04:48Z</time>
      </trkpt>
      <trkpt lat="51.262499308213592" lon="4.822033792734146">
        <ele>1.7</ele>
        <time>2022-02-05T11:04:49Z</time>
      </trkpt>
      <trkpt lat="51.262505427002907" lon="4.821983920410276">
        <ele>1.68</ele>
        <time>2022-02-05T11:04:50Z</time>
      </trkpt>
      <trkpt lat="51.262514228001237" lon="4.8219308629632">
        <ele>1.67</ele>
        <time>2022-02-05T11:04:51Z</time>
      </trkpt>
      <trkpt lat="51.262523028999567" lon="4.821875374764204">
        <ele>1.67</ele>
        <time>2022-02-05T11:04:52Z</time>
      </trkpt>
      <trkpt lat="51.262531410902739" lon="4.821816701442003">
        <ele>1.67</ele>
        <time>2022-02-05T11:04:53Z</time>
      </trkpt>
      <trkpt lat="51.262594442814589" lon="4.821124188601971">
        <ele>1.72</ele>
        <time>2022-02-05T11:05:05Z</time>
      </trkpt>
      <trkpt lat="51.262469217181206" lon="4.820455396547914">
        <ele>1.63</ele>
        <time>2022-02-05T11:05:17Z</time>
      </trkpt>
      <trkpt lat="51.262386152520776" lon="4.820028087124229">
        <ele>1.62</ele>
        <time>2022-02-05T11:05:26Z</time>
      </trkpt>
      <trkpt lat="51.262256233021617" lon="4.819665905088186">
        <ele>2.66</ele>
        <time>2022-02-05T11:05:31Z</time>
      </trkpt>
      <trkpt lat="51.26278119161725" lon="4.819113202393055">
        <ele>4.99</ele>
        <time>2022-02-05T11:05:55Z</time>
      </trkpt>
      <trkpt lat="51.262787310406566" lon="4.819093504920602">
        <ele>4.99</ele>
        <time>2022-02-05T11:05:56Z</time>
      </trkpt>
      <trkpt lat="51.262795524671674" lon="4.819074645638466">
        <ele>4.98</ele>
        <time>2022-02-05T11:05:57Z</time>
      </trkpt>
      <trkpt lat="51.262810612097383" lon="4.819050254300237">
        <ele>4.98</ele>
        <time>2022-02-05T11:05:58Z</time>
      </trkpt>
      <trkpt lat="51.262824693694711" lon="4.819031897932291">
        <ele>4.98</ele>
        <time>2022-02-05T11:05:59Z</time>
      </trkpt>
      <trkpt lat="51.262836931273341" lon="4.81901622377336">
        <ele>4.97</ele>
        <time>2022-02-05T11:06:00Z</time>
      </trkpt>
      <trkpt lat="51.262996857985854" lon="4.818733418360353">
        <ele>5.73</ele>
        <time>2022-02-05T11:06:14Z</time>
      </trkpt>
      <trkpt lat="51.26316231675446" lon="4.818418677896261">
        <ele>7.4</ele>
        <time>2022-02-05T11:06:30Z</time>
      </trkpt>
      <trkpt lat="51.26317597925663" lon="4.818402333185077">
        <ele>7.38</ele>
        <time>2022-02-05T11:06:31Z</time>
      </trkpt>
      <trkpt lat="51.263188552111387" lon="4.818389927968383">
        <ele>7.4</ele>
        <time>2022-02-05T11:06:32Z</time>
      </trkpt>
      <trkpt lat="51.263246387243271" lon="4.818264115601778">
        <ele>7.33</ele>
        <time>2022-02-05T11:06:41Z</time>
      </trkpt>
      <trkpt lat="51.263271532952785" lon="4.818219356238842">
        <ele>8.67</ele>
        <time>2022-02-05T11:06:44Z</time>
      </trkpt>
      <trkpt lat="51.263452414423227" lon="4.817946944385767">
        <ele>9.310000000000001</ele>
        <time>2022-02-05T11:07:02Z</time>
      </trkpt>
      <trkpt lat="51.263619046658278" lon="4.817755920812488">
        <ele>9.33</ele>
        <time>2022-02-05T11:07:15Z</time>
      </trkpt>
      <trkpt lat="51.263786684721708" lon="4.817482167854905">
        <ele>9.34</ele>
        <time>2022-02-05T11:07:32Z</time>
      </trkpt>
      <trkpt lat="51.26396513544023" lon="4.817225011065602">
        <ele>10.15</ele>
        <time>2022-02-05T11:07:48Z</time>
      </trkpt>
      <trkpt lat="51.26407066360116" lon="4.817048739641905">
        <ele>10.15</ele>
        <time>2022-02-05T11:07:58Z</time>
      </trkpt>
      <trkpt lat="51.264084912836552" lon="4.817035412415862">
        <ele>10.130000000000001</ele>
        <time>2022-02-05T11:07:59Z</time>
      </trkpt>
      <trkpt lat="51.264097737148404" lon="4.817024013027549">
        <ele>10.140000000000001</ele>
        <time>2022-02-05T11:08:00Z</time>
      </trkpt>
      <trkpt lat="51.264110477641225" lon="4.81701135635376">
        <ele>10.15</ele>
        <time>2022-02-05T11:08:01Z</time>
      </trkpt>
      <trkpt lat="51.264124978333712" lon="4.816992832347751">
        <ele>10.16</ele>
        <time>2022-02-05T11:08:02Z</time>
      </trkpt>
      <trkpt lat="51.264232937246561" lon="4.816849082708359">
        <ele>5.46</ele>
        <time>2022-02-05T11:08:11Z</time>
      </trkpt>
      <trkpt lat="51.264242073521018" lon="4.816833073273301">
        <ele>8.58</ele>
        <time>2022-02-05T11:08:12Z</time>
      </trkpt>
      <trkpt lat="51.264450363814831" lon="4.816639116033912">
        <ele>8.630000000000001</ele>
        <time>2022-02-05T11:08:29Z</time>
      </trkpt>
      <trkpt lat="51.264567794278264" lon="4.816572647541761">
        <ele>8.66</ele>
        <time>2022-02-05T11:08:38Z</time>
      </trkpt>
      <trkpt lat="51.264579696580768" lon="4.816563175991178">
        <ele>8.65</ele>
        <time>2022-02-05T11:08:39Z</time>
      </trkpt>
      <trkpt lat="51.26459545455873" lon="4.816557224839926">
        <ele>8.640000000000001</ele>
        <time>2022-02-05T11:08:40Z</time>
      </trkpt>
      <trkpt lat="51.264689667150378" lon="4.816522020846605">
        <ele>6.3</ele>
        <time>2022-02-05T11:08:47Z</time>
      </trkpt>
      <trkpt lat="51.264920923858881" lon="4.816521015018225">
        <ele>5.61</ele>
        <time>2022-02-05T11:09:05Z</time>
      </trkpt>
      <trkpt lat="51.265086801722646" lon="4.81656082905829">
        <ele>4.83</ele>
        <time>2022-02-05T11:09:18Z</time>
      </trkpt>
      <trkpt lat="51.265278998762369" lon="4.816667446866632">
        <ele>4.1</ele>
        <time>2022-02-05T11:09:32Z</time>
      </trkpt>
      <trkpt lat="51.265499442815781" lon="4.816809184849262">
        <ele>3.43</ele>
        <time>2022-02-05T11:09:49Z</time>
      </trkpt>
      <trkpt lat="51.265698429197073" lon="4.816951090469956">
        <ele>2.71</ele>
        <time>2022-02-05T11:10:04Z</time>
      </trkpt>
      <trkpt lat="51.265871599316597" lon="4.817077908664942">
        <ele>2.01</ele>
        <time>2022-02-05T11:10:19Z</time>
      </trkpt>
      <trkpt lat="51.266044517979026" lon="4.817186119034886">
        <ele>2.12</ele>
        <time>2022-02-05T11:10:34Z</time>
      </trkpt>
      <trkpt lat="51.266214167699218" lon="4.817316457629204">
        <ele>1.34</ele>
        <time>2022-02-05T11:10:47Z</time>
      </trkpt>
      <trkpt lat="51.266415333375335" lon="4.817454339936376">
        <ele>1.37</ele>
        <time>2022-02-05T11:11:02Z</time>
      </trkpt>
      <trkpt lat="51.266498062759638" lon="4.817479318007827">
        <ele>1.37</ele>
        <time>2022-02-05T11:11:08Z</time>
      </trkpt>
      <trkpt lat="51.266513401642442" lon="4.817487113177776">
        <ele>1.37</ele>
        <time>2022-02-05T11:11:09Z</time>
      </trkpt>
      <trkpt lat="51.266529746353626" lon="4.817500524222851">
        <ele>1.37</ele>
        <time>2022-02-05T11:11:10Z</time>
      </trkpt>
      <trkpt lat="51.266547348350286" lon="4.817510079592466">
        <ele>1.37</ele>
        <time>2022-02-05T11:11:11Z</time>
      </trkpt>
      <trkpt lat="51.266564531251788" lon="4.817517204210162">
        <ele>1.37</ele>
        <time>2022-02-05T11:11:12Z</time>
      </trkpt>
      <trkpt lat="51.266740886494517" lon="4.817599598318338">
        <ele>1.36</ele>
        <time>2022-02-05T11:11:22Z</time>
      </trkpt>
      <trkpt lat="51.2667849753052" lon="4.817646201699972">
        <ele>1.36</ele>
        <time>2022-02-05T11:11:25Z</time>
      </trkpt>
      <trkpt lat="51.266803164035082" lon="4.81765927746892">
        <ele>1.36</ele>
        <time>2022-02-05T11:11:26Z</time>
      </trkpt>
      <trkpt lat="51.266993936151266" lon="4.817830603569746">
        <ele>1.41</ele>
        <time>2022-02-05T11:11:39Z</time>
      </trkpt>
      <trkpt lat="51.26720130443573" lon="4.817962618544698">
        <ele>1.39</ele>
        <time>2022-02-05T11:11:53Z</time>
      </trkpt>
      <trkpt lat="51.267341114580631" lon="4.818033697083592">
        <ele>1.42</ele>
        <time>2022-02-05T11:12:02Z</time>
      </trkpt>
      <trkpt lat="51.267502885311842" lon="4.818199491128326">
        <ele>1.46</ele>
        <time>2022-02-05T11:12:14Z</time>
      </trkpt>
      <trkpt lat="51.267542783170938" lon="4.818251878023148">
        <ele>1.46</ele>
        <time>2022-02-05T11:12:17Z</time>
      </trkpt>
      <trkpt lat="51.267688125371933" lon="4.818297643214464">
        <ele>4.13</ele>
        <time>2022-02-05T11:12:27Z</time>
      </trkpt>
      <trkpt lat="51.267683934420347" lon="4.818589752539992">
        <ele>4.14</ele>
        <time>2022-02-05T11:12:36Z</time>
      </trkpt>
      <trkpt lat="51.267694998532534" lon="4.818697711452842">
        <ele>4.14</ele>
        <time>2022-02-05T11:12:41Z</time>
      </trkpt>
      <trkpt lat="51.267703045159578" lon="4.818842299282551">
        <ele>4.12</ele>
        <time>2022-02-05T11:12:47Z</time>
      </trkpt>
      <trkpt lat="51.267702961340547" lon="4.81886325404048">
        <ele>4.12</ele>
        <time>2022-02-05T11:12:48Z</time>
      </trkpt>
      <trkpt lat="51.267734309658408" lon="4.819096522405744">
        <ele>4.06</ele>
        <time>2022-02-05T11:12:59Z</time>
      </trkpt>
      <trkpt lat="51.267730034887791" lon="4.819128708913922">
        <ele>4.05</ele>
        <time>2022-02-05T11:13:00Z</time>
      </trkpt>
      <trkpt lat="51.267730370163918" lon="4.819172965362668">
        <ele>4.05</ele>
        <time>2022-02-05T11:13:02Z</time>
      </trkpt>
      <trkpt lat="51.267733639106154" lon="4.819194339215756">
        <ele>4.03</ele>
        <time>2022-02-05T11:13:03Z</time>
      </trkpt>
      <trkpt lat="51.267759455367923" lon="4.819426098838449">
        <ele>3.95</ele>
        <time>2022-02-05T11:13:14Z</time>
      </trkpt>
      <trkpt lat="51.267762640491128" lon="4.81951754540205">
        <ele>3.92</ele>
        <time>2022-02-05T11:13:18Z</time>
      </trkpt>
      <trkpt lat="51.267766244709492" lon="4.819540092721582">
        <ele>3.91</ele>
        <time>2022-02-05T11:13:19Z</time>
      </trkpt>
      <trkpt lat="51.267781164497137" lon="4.819614691659808">
        <ele>3.87</ele>
        <time>2022-02-05T11:13:23Z</time>
      </trkpt>
      <trkpt lat="51.267797676846385" lon="4.819720387458801">
        <ele>3.81</ele>
        <time>2022-02-05T11:13:28Z</time>
      </trkpt>
      <trkpt lat="51.267801616340876" lon="4.819745616987348">
        <ele>3.8</ele>
        <time>2022-02-05T11:13:29Z</time>
      </trkpt>
      <trkpt lat="51.267803963273764" lon="4.819765817373991">
        <ele>3.78</ele>
        <time>2022-02-05T11:13:30Z</time>
      </trkpt>
      <trkpt lat="51.267803460359573" lon="4.819791130721569">
        <ele>3.77</ele>
        <time>2022-02-05T11:13:31Z</time>
      </trkpt>
      <trkpt lat="51.267810668796301" lon="4.820082820951939">
        <ele>3.59</ele>
        <time>2022-02-05T11:13:43Z</time>
      </trkpt>
      <trkpt lat="51.26781402155757" lon="4.820105452090502">
        <ele>3.58</ele>
        <time>2022-02-05T11:13:44Z</time>
      </trkpt>
      <trkpt lat="51.267823493108153" lon="4.820149121806026">
        <ele>3.55</ele>
        <time>2022-02-05T11:13:46Z</time>
      </trkpt>
      <trkpt lat="51.267821816727519" lon="4.820170914754272">
        <ele>3.53</ele>
        <time>2022-02-05T11:13:47Z</time>
      </trkpt>
      <trkpt lat="51.267819385975599" lon="4.820195389911532">
        <ele>3.52</ele>
        <time>2022-02-05T11:13:48Z</time>
      </trkpt>
      <trkpt lat="51.267819302156568" lon="4.820221122354269">
        <ele>3.51</ele>
        <time>2022-02-05T11:13:49Z</time>
      </trkpt>
      <trkpt lat="51.267820475623012" lon="4.820251297205687">
        <ele>3.49</ele>
        <time>2022-02-05T11:13:50Z</time>
      </trkpt>
      <trkpt lat="51.267823157832026" lon="4.820270827040076">
        <ele>3.48</ele>
        <time>2022-02-05T11:13:51Z</time>
      </trkpt>
      <trkpt lat="51.267825923860073" lon="4.820502167567611">
        <ele>3.34</ele>
        <time>2022-02-05T11:14:01Z</time>
      </trkpt>
      <trkpt lat="51.267814608290792" lon="4.820550782606006">
        <ele>3.33</ele>
        <time>2022-02-05T11:14:02Z</time>
      </trkpt>
      <trkpt lat="51.267809411510825" lon="4.820595541968942">
        <ele>3.3</ele>
        <time>2022-02-05T11:14:03Z</time>
      </trkpt>
      <trkpt lat="51.267806477844715" lon="4.820633679628372">
        <ele>3.29</ele>
        <time>2022-02-05T11:14:04Z</time>
      </trkpt>
      <trkpt lat="51.267810584977269" lon="4.820652035996318">
        <ele>3.29</ele>
        <time>2022-02-05T11:14:05Z</time>
      </trkpt>
      <trkpt lat="51.267807148396969" lon="4.820669805631042">
        <ele>3.28</ele>
        <time>2022-02-05T11:14:06Z</time>
      </trkpt>
      <trkpt lat="51.267802957445383" lon="4.820708446204662">
        <ele>3.26</ele>
        <time>2022-02-05T11:14:07Z</time>
      </trkpt>
      <trkpt lat="51.267806394025683" lon="4.820766029879451">
        <ele>3.23</ele>
        <time>2022-02-05T11:14:10Z</time>
      </trkpt>
      <trkpt lat="51.267850482836366" lon="4.820936098694801">
        <ele>0.9</ele>
        <time>2022-02-05T11:14:20Z</time>
      </trkpt>
      <trkpt lat="51.267858361825347" lon="4.820955460891128">
        <ele>0.9</ele>
        <time>2022-02-05T11:14:21Z</time>
      </trkpt>
      <trkpt lat="51.267893984913826" lon="4.821142042055726">
        <ele>0.83</ele>
        <time>2022-02-05T11:14:31Z</time>
      </trkpt>
      <trkpt lat="51.26793572679162" lon="4.821452088654041">
        <ele>0.76</ele>
        <time>2022-02-05T11:14:43Z</time>
      </trkpt>
      <trkpt lat="51.268024910241365" lon="4.822171088308096">
        <ele>3.32</ele>
        <time>2022-02-05T11:15:15Z</time>
      </trkpt>
      <trkpt lat="51.268022479489446" lon="4.822303019464016">
        <ele>3.29</ele>
        <time>2022-02-05T11:15:21Z</time>
      </trkpt>
      <trkpt lat="51.267975708469748" lon="4.822798389941454">
        <ele>3.18</ele>
        <time>2022-02-05T11:15:41Z</time>
      </trkpt>
      <trkpt lat="51.26797772012651" lon="4.823652505874634">
        <ele>2.98</ele>
        <time>2022-02-05T11:16:18Z</time>
      </trkpt>
      <trkpt lat="51.267986353486776" lon="4.823671029880643">
        <ele>2.97</ele>
        <time>2022-02-05T11:16:19Z</time>
      </trkpt>
      <trkpt lat="51.268009068444371" lon="4.823742611333728">
        <ele>2.94</ele>
        <time>2022-02-05T11:16:23Z</time>
      </trkpt>
      <trkpt lat="51.268019713461399" lon="4.823760548606515">
        <ele>2.94</ele>
        <time>2022-02-05T11:16:24Z</time>
      </trkpt>
      <trkpt lat="51.268032789230347" lon="4.823772115632892">
        <ele>2.93</ele>
        <time>2022-02-05T11:16:25Z</time>
      </trkpt>
      <trkpt lat="51.268089367076755" lon="4.823824418708682">
        <ele>2.9</ele>
        <time>2022-02-05T11:16:30Z</time>
      </trkpt>
      <trkpt lat="51.268099928274751" lon="4.823842858895659">
        <ele>2.89</ele>
        <time>2022-02-05T11:16:31Z</time>
      </trkpt>
      <trkpt lat="51.26825382001698" lon="4.823947297409177">
        <ele>2.81</ele>
        <time>2022-02-05T11:16:44Z</time>
      </trkpt>
      <trkpt lat="51.268490944057703" lon="4.824122311547399">
        <ele>2.7</ele>
        <time>2022-02-05T11:17:02Z</time>
      </trkpt>
      <trkpt lat="51.268674843013287" lon="4.824220966547728">
        <ele>2.66</ele>
        <time>2022-02-05T11:17:14Z</time>
      </trkpt>
      <trkpt lat="51.268859496340156" lon="4.824342923238874">
        <ele>2.63</ele>
        <time>2022-02-05T11:17:30Z</time>
      </trkpt>
      <trkpt lat="51.269069714471698" lon="4.824464879930019">
        <ele>2.58</ele>
        <time>2022-02-05T11:17:46Z</time>
      </trkpt>
      <trkpt lat="51.269307341426611" lon="4.824588261544704">
        <ele>2.56</ele>
        <time>2022-02-05T11:17:58Z</time>
      </trkpt>
      <trkpt lat="51.269384035840631" lon="4.824630757793784">
        <ele>2.56</ele>
        <time>2022-02-05T11:18:03Z</time>
      </trkpt>
      <trkpt lat="51.269507501274347" lon="4.824712397530675">
        <ele>2.57</ele>
        <time>2022-02-05T11:18:13Z</time>
      </trkpt>
      <trkpt lat="51.269697602838278" lon="4.82483921572566">
        <ele>2.52</ele>
        <time>2022-02-05T11:18:27Z</time>
      </trkpt>
      <trkpt lat="51.269918885082006" lon="4.824946504086256">
        <ele>2.45</ele>
        <time>2022-02-05T11:18:45Z</time>
      </trkpt>
      <trkpt lat="51.270183753222227" lon="4.825134174898267">
        <ele>2.36</ele>
        <time>2022-02-05T11:18:59Z</time>
      </trkpt>
      <trkpt lat="51.27043604850769" lon="4.825253700837493">
        <ele>2.32</ele>
        <time>2022-02-05T11:19:09Z</time>
      </trkpt>
      <trkpt lat="51.270774593576789" lon="4.825486382469535">
        <ele>2.25</ele>
        <time>2022-02-05T11:19:23Z</time>
      </trkpt>
      <trkpt lat="51.271969098597765" lon="4.826062805950642">
        <ele>1.98</ele>
        <time>2022-02-05T11:19:52Z</time>
      </trkpt>
      <trkpt lat="51.272395569831133" lon="4.826138662174344">
        <ele>1.81</ele>
        <time>2022-02-05T11:20:11Z</time>
      </trkpt>
      <trkpt lat="51.272450052201748" lon="4.826142182573676">
        <ele>1.72</ele>
        <time>2022-02-05T11:20:21Z</time>
      </trkpt>
      <trkpt lat="51.272523561492562" lon="4.826115863397718">
        <ele>1.56</ele>
        <time>2022-02-05T11:20:42Z</time>
      </trkpt>
      <trkpt lat="51.272508390247822" lon="4.826126005500555">
        <ele>2.35</ele>
        <time>2022-02-05T11:21:07Z</time>
      </trkpt>
      <trkpt lat="51.27249707467854" lon="4.826141176745296">
        <ele>2.21</ele>
        <time>2022-02-05T11:21:36Z</time>
      </trkpt>
      <trkpt lat="51.272506127133965" lon="4.826160790398717">
        <ele>2.14</ele>
        <time>2022-02-05T11:22:03Z</time>
      </trkpt>
      <trkpt lat="51.272524232044816" lon="4.826136818155646">
        <ele>-0.16</ele>
        <time>2022-02-05T11:22:10Z</time>
      </trkpt>
      <trkpt lat="51.272524986416101" lon="4.826137321069837">
        <ele>2.9</ele>
        <time>2022-02-05T11:22:11Z</time>
      </trkpt>
      <trkpt lat="51.272524986416101" lon="4.826137321069837">
        <ele>2.89</ele>
        <time>2022-02-05T11:22:12Z</time>
      </trkpt>
      <trkpt lat="51.272524315863848" lon="4.826131202280521">
        <ele>0.32</ele>
        <time>2022-02-05T11:22:15Z</time>
      </trkpt>
      <trkpt lat="51.272529093548656" lon="4.826147379353643">
        <ele>0.3</ele>
        <time>2022-02-05T11:22:42Z</time>
      </trkpt>
      <trkpt lat="51.272552730515599" lon="4.826118210330606">
        <ele>0.31</ele>
        <time>2022-02-05T11:22:53Z</time>
      </trkpt>
      <trkpt lat="51.27257133834064" lon="4.826100440695882">
        <ele>0.31</ele>
        <time>2022-02-05T11:22:56Z</time>
      </trkpt>
      <trkpt lat="51.27258064225316" lon="4.826092477887869">
        <ele>2.87</ele>
        <time>2022-02-05T11:23:01Z</time>
      </trkpt>
      <trkpt lat="51.272583911195397" lon="4.82613505795598">
        <ele>2.9</ele>
        <time>2022-02-05T11:23:27Z</time>
      </trkpt>
      <trkpt lat="51.272579804062843" lon="4.826116031035781">
        <ele>2.98</ele>
        <time>2022-02-05T11:23:53Z</time>
      </trkpt>
      <trkpt lat="51.272547030821443" lon="4.826096752658486">
        <ele>3.01</ele>
        <time>2022-02-05T11:24:16Z</time>
      </trkpt>
      <trkpt lat="51.272545354440808" lon="4.826074875891209">
        <ele>0.76</ele>
        <time>2022-02-05T11:24:24Z</time>
      </trkpt>
      <trkpt lat="51.27254200167954" lon="4.82602609321475">
        <ele>0.83</ele>
        <time>2022-02-05T11:24:49Z</time>
      </trkpt>
      <trkpt lat="51.272507216781378" lon="4.826011089608073">
        <ele>0.87</ele>
        <time>2022-02-05T11:25:09Z</time>
      </trkpt>
      <trkpt lat="51.272477963939309" lon="4.826036402955651">
        <ele>0.91</ele>
        <time>2022-02-05T11:25:31Z</time>
      </trkpt>
      <trkpt lat="51.272485256195068" lon="4.826104380190373">
        <ele>0.96</ele>
        <time>2022-02-05T11:25:55Z</time>
      </trkpt>
      <trkpt lat="51.272552562877536" lon="4.826067248359323">
        <ele>1.03</ele>
        <time>2022-02-05T11:26:16Z</time>
      </trkpt>
      <trkpt lat="51.272654235363007" lon="4.82597135938704">
        <ele>-0.03</ele>
        <time>2022-02-05T11:26:26Z</time>
      </trkpt>
      <trkpt lat="51.272665718570352" lon="4.825962223112583">
        <ele>2.47</ele>
        <time>2022-02-05T11:26:27Z</time>
      </trkpt>
      <trkpt lat="51.272677117958665" lon="4.825949482619762">
        <ele>2.48</ele>
        <time>2022-02-05T11:26:28Z</time>
      </trkpt>
      <trkpt lat="51.272736797109246" lon="4.825897011905909">
        <ele>4.14</ele>
        <time>2022-02-05T11:26:34Z</time>
      </trkpt>
      <trkpt lat="51.272779377177358" lon="4.825874464586377">
        <ele>0.79</ele>
        <time>2022-02-05T11:26:38Z</time>
      </trkpt>
      <trkpt lat="51.272787423804402" lon="4.825865244492889">
        <ele>0.8</ele>
        <time>2022-02-05T11:26:39Z</time>
      </trkpt>
      <trkpt lat="51.272817347198725" lon="4.825824592262507">
        <ele>2.49</ele>
        <time>2022-02-05T11:26:44Z</time>
      </trkpt>
      <trkpt lat="51.273107444867492" lon="4.825590988621116">
        <ele>2.53</ele>
        <time>2022-02-05T11:27:03Z</time>
      </trkpt>
      <trkpt lat="51.273281034082174" lon="4.825439527630806">
        <ele>3.68</ele>
        <time>2022-02-05T11:27:16Z</time>
      </trkpt>
      <trkpt lat="51.273369798436761" lon="4.825308937579393">
        <ele>3.67</ele>
        <time>2022-02-05T11:27:25Z</time>
      </trkpt>
      <trkpt lat="51.273373737931252" lon="4.825275661423802">
        <ele>3.68</ele>
        <time>2022-02-05T11:27:26Z</time>
      </trkpt>
      <trkpt lat="51.273419670760632" lon="4.825074495747685">
        <ele>1.28</ele>
        <time>2022-02-05T11:27:35Z</time>
      </trkpt>
      <trkpt lat="51.273431992158294" lon="4.8247473500669">
        <ele>1.26</ele>
        <time>2022-02-05T11:27:51Z</time>
      </trkpt>
      <trkpt lat="51.27342788502574" lon="4.824622124433518">
        <ele>1.25</ele>
        <time>2022-02-05T11:27:56Z</time>
      </trkpt>
      <trkpt lat="51.273421095684171" lon="4.82445071451366">
        <ele>1.22</ele>
        <time>2022-02-05T11:28:05Z</time>
      </trkpt>
      <trkpt lat="51.273399721831083" lon="4.824154078960419">
        <ele>1.19</ele>
        <time>2022-02-05T11:28:15Z</time>
      </trkpt>
      <trkpt lat="51.27338488586247" lon="4.823949644342065">
        <ele>1.14</ele>
        <time>2022-02-05T11:28:22Z</time>
      </trkpt>
      <trkpt lat="51.273381784558296" lon="4.823879906907678">
        <ele>1.13</ele>
        <time>2022-02-05T11:28:24Z</time>
      </trkpt>
      <trkpt lat="51.273379689082503" lon="4.823842942714691">
        <ele>1.12</ele>
        <time>2022-02-05T11:28:25Z</time>
      </trkpt>
      <trkpt lat="51.273349011316895" lon="4.823629790917039">
        <ele>1.06</ele>
        <time>2022-02-05T11:28:36Z</time>
      </trkpt>
      <trkpt lat="51.273318585008383" lon="4.823421752080321">
        <ele>1.02</ele>
        <time>2022-02-05T11:28:45Z</time>
      </trkpt>
      <trkpt lat="51.273320177569985" lon="4.823117321357131">
        <ele>0.97</ele>
        <time>2022-02-05T11:28:57Z</time>
      </trkpt>
      <trkpt lat="51.273299474269152" lon="4.822776429355145">
        <ele>0.9</ele>
        <time>2022-02-05T11:29:12Z</time>
      </trkpt>
      <trkpt lat="51.273270640522242" lon="4.822346940636635">
        <ele>0.77</ele>
        <time>2022-02-05T11:29:31Z</time>
      </trkpt>
      <trkpt lat="51.273266030475497" lon="4.822094980627298">
        <ele>0.75</ele>
        <time>2022-02-05T11:29:42Z</time>
      </trkpt>
      <trkpt lat="51.273203585296869" lon="4.821739085018635">
        <ele>0.7</ele>
        <time>2022-02-05T11:29:55Z</time>
      </trkpt>
      <trkpt lat="51.273166453465819" lon="4.821406323462725">
        <ele>0.61</ele>
        <time>2022-02-05T11:30:11Z</time>
      </trkpt>
      <trkpt lat="51.273132422938943" lon="4.821257460862398">
        <ele>0.57</ele>
        <time>2022-02-05T11:30:18Z</time>
      </trkpt>
      <trkpt lat="51.273108283057809" lon="4.820956718176603">
        <ele>0.48</ele>
        <time>2022-02-05T11:30:29Z</time>
      </trkpt>
      <trkpt lat="51.273104092106223" lon="4.820873234421015">
        <ele>-0.55</ele>
        <time>2022-02-05T11:30:33Z</time>
      </trkpt>
      <trkpt lat="51.273106941953301" lon="4.82085001654923">
        <ele>-0.56</ele>
        <time>2022-02-05T11:30:34Z</time>
      </trkpt>
      <trkpt lat="51.273082718253136" lon="4.820447098463774">
        <ele>1</ele>
        <time>2022-02-05T11:30:47Z</time>
      </trkpt>
      <trkpt lat="51.273047011345625" lon="4.819879895076156">
        <ele>0.96</ele>
        <time>2022-02-05T11:30:58Z</time>
      </trkpt>
      <trkpt lat="51.273004598915577" lon="4.819278661161661">
        <ele>0.87</ele>
        <time>2022-02-05T11:31:09Z</time>
      </trkpt>
      <trkpt lat="51.272973921149969" lon="4.818654377013445">
        <ele>0.84</ele>
        <time>2022-02-05T11:31:20Z</time>
      </trkpt>
      <trkpt lat="51.272993534803391" lon="4.818079294636846">
        <ele>0.65</ele>
        <time>2022-02-05T11:31:32Z</time>
      </trkpt>
      <trkpt lat="51.273003090173006" lon="4.817989189177752">
        <ele>-2.44</ele>
        <time>2022-02-05T11:31:34Z</time>
      </trkpt>
      <trkpt lat="51.27300476655364" lon="4.81792951002717">
        <ele>-2.44</ele>
        <time>2022-02-05T11:31:35Z</time>
      </trkpt>
      <trkpt lat="51.273008957505226" lon="4.81784007512033">
        <ele>-0.17</ele>
        <time>2022-02-05T11:31:37Z</time>
      </trkpt>
      <trkpt lat="51.272968221455812" lon="4.817230040207505">
        <ele>-0.33</ele>
        <time>2022-02-05T11:31:50Z</time>
      </trkpt>
      <trkpt lat="51.272945255041122" lon="4.816569127142429">
        <ele>-0.54</ele>
        <time>2022-02-05T11:32:02Z</time>
      </trkpt>
      <trkpt lat="51.272853724658489" lon="4.815883655101061">
        <ele>-0.69</ele>
        <time>2022-02-05T11:32:11Z</time>
      </trkpt>
      <trkpt lat="51.272785747423768" lon="4.815140012651682">
        <ele>-0.75</ele>
        <time>2022-02-05T11:32:23Z</time>
      </trkpt>
      <trkpt lat="51.272711735218763" lon="4.81445143930614">
        <ele>-0.99</ele>
        <time>2022-02-05T11:32:34Z</time>
      </trkpt>
      <trkpt lat="51.272657001391053" lon="4.813852468505502">
        <ele>-1.13</ele>
        <time>2022-02-05T11:32:45Z</time>
      </trkpt>
      <trkpt lat="51.272604446858168" lon="4.813085859641433">
        <ele>-1.4</ele>
        <time>2022-02-05T11:32:58Z</time>
      </trkpt>
      <trkpt lat="51.27256253734231" lon="4.812609348446131">
        <ele>-1.48</ele>
        <time>2022-02-05T11:33:04Z</time>
      </trkpt>
      <trkpt lat="51.272521130740643" lon="4.812222104519606">
        <ele>-1.59</ele>
        <time>2022-02-05T11:33:14Z</time>
      </trkpt>
      <trkpt lat="51.272542085498571" lon="4.812171896919608">
        <ele>-1.62</ele>
        <time>2022-02-05T11:33:18Z</time>
      </trkpt>
      <trkpt lat="51.272254334762692" lon="4.808489978313446">
        <ele>-1.45</ele>
        <time>2022-02-05T11:37:23Z</time>
      </trkpt>
      <trkpt lat="51.27247896976769" lon="4.807756394147873">
        <ele>-1.46</ele>
        <time>2022-02-05T11:37:24Z</time>
      </trkpt>
      <trkpt lat="51.27342545427382" lon="4.809720357879996">
        <ele>-2.43</ele>
        <time>2022-02-05T11:38:38Z</time>
      </trkpt>
      <trkpt lat="51.273447833955288" lon="4.80972102843225">
        <ele>-2.45</ele>
        <time>2022-02-05T11:38:39Z</time>
      </trkpt>
      <trkpt lat="51.273466860875487" lon="4.809734355658293">
        <ele>-2.45</ele>
        <time>2022-02-05T11:38:40Z</time>
      </trkpt>
      <trkpt lat="51.273573646321893" lon="4.809862179681659">
        <ele>-2.57</ele>
        <time>2022-02-05T11:38:48Z</time>
      </trkpt>
      <trkpt lat="51.273800041526556" lon="4.810254955664277">
        <ele>-3.16</ele>
        <time>2022-02-05T11:39:14Z</time>
      </trkpt>
      <trkpt lat="51.273846141993999" lon="4.810430305078626">
        <ele>-3.55</ele>
        <time>2022-02-05T11:39:27Z</time>
      </trkpt>
      <trkpt lat="51.274000117555261" lon="4.810741944238544">
        <ele>-4.25</ele>
        <time>2022-02-05T11:39:46Z</time>
      </trkpt>
      <trkpt lat="51.274163983762264" lon="4.810864487662911">
        <ele>-4.47</ele>
        <time>2022-02-05T11:39:52Z</time>
      </trkpt>
      <trkpt lat="51.274245791137218" lon="4.811074119061232">
        <ele>-5.01</ele>
        <time>2022-02-05T11:40:05Z</time>
      </trkpt>
      <trkpt lat="51.274533206596971" lon="4.811726147308946">
        <ele>-5.95</ele>
        <time>2022-02-05T11:40:27Z</time>
      </trkpt>
      <trkpt lat="51.27686345949769" lon="4.811616847291589">
        <ele>-11.960000000000001</ele>
        <time>2022-02-05T11:42:40Z</time>
      </trkpt>
      <trkpt lat="51.276998240500689" lon="4.811831759288907">
        <ele>-12.380000000000001</ele>
        <time>2022-02-05T11:42:52Z</time>
      </trkpt>
      <trkpt lat="51.277013411745429" lon="4.811872830614448">
        <ele>-12.44</ele>
        <time>2022-02-05T11:42:54Z</time>
      </trkpt>
      <trkpt lat="51.277883956208825" lon="4.812876814976335">
        <ele>-11.630000000000001</ele>
        <time>2022-02-05T11:46:02Z</time>
      </trkpt>
      <trkpt lat="51.278273798525333" lon="4.812721414491534">
        <ele>-11.640000000000001</ele>
        <time>2022-02-05T11:46:17Z</time>
      </trkpt>
      <trkpt lat="51.278506480157375" lon="4.812420001253486">
        <ele>-11.67</ele>
        <time>2022-02-05T11:46:26Z</time>
      </trkpt>
      <trkpt lat="51.278761960566044" lon="4.812121270224452">
        <ele>-11.67</ele>
        <time>2022-02-05T11:46:35Z</time>
      </trkpt>
      <trkpt lat="51.27908525057137" lon="4.811754897236824">
        <ele>-11.619999999999999</ele>
        <time>2022-02-05T11:46:46Z</time>
      </trkpt>
      <trkpt lat="51.279221959412098" lon="4.811585331335664">
        <ele>-13.949999999999999</ele>
        <time>2022-02-05T11:46:50Z</time>
      </trkpt>
      <trkpt lat="51.279533095657825" lon="4.811141761019826">
        <ele>-13.83</ele>
        <time>2022-02-05T11:46:58Z</time>
      </trkpt>
      <trkpt lat="51.279579363763332" lon="4.811078058555722">
        <ele>-13.84</ele>
        <time>2022-02-05T11:46:59Z</time>
      </trkpt>
      <trkpt lat="51.280067190527916" lon="4.810359142720699">
        <ele>-13.789999999999999</ele>
        <time>2022-02-05T11:47:09Z</time>
      </trkpt>
      <trkpt lat="51.280517801642418" lon="4.809764781966806">
        <ele>-13.75</ele>
        <time>2022-02-05T11:47:18Z</time>
      </trkpt>
      <trkpt lat="51.280561136081815" lon="4.809699403122068">
        <ele>-13.73</ele>
        <time>2022-02-05T11:47:19Z</time>
      </trkpt>
      <trkpt lat="51.280600279569626" lon="4.809637377038598">
        <ele>-13.699999999999999</ele>
        <time>2022-02-05T11:47:20Z</time>
      </trkpt>
      <trkpt lat="51.280634729191661" lon="4.809582224115729">
        <ele>-13.720000000000001</ele>
        <time>2022-02-05T11:47:21Z</time>
      </trkpt>
      <trkpt lat="51.280666580423713" lon="4.809528579935432">
        <ele>-13.74</ele>
        <time>2022-02-05T11:47:22Z</time>
      </trkpt>
      <trkpt lat="51.280696587637067" lon="4.809472421184182">
        <ele>-13.73</ele>
        <time>2022-02-05T11:47:23Z</time>
      </trkpt>
      <trkpt lat="51.281072851270437" lon="4.80896757915616">
        <ele>-13.609999999999999</ele>
        <time>2022-02-05T11:47:33Z</time>
      </trkpt>
      <trkpt lat="51.281106546521187" lon="4.808927178382874">
        <ele>-13.609999999999999</ele>
        <time>2022-02-05T11:47:34Z</time>
      </trkpt>
      <trkpt lat="51.281134206801653" lon="4.808890800923109">
        <ele>-13.6</ele>
        <time>2022-02-05T11:47:35Z</time>
      </trkpt>
      <trkpt lat="51.281245686113834" lon="4.808763731271029">
        <ele>-13.58</ele>
        <time>2022-02-05T11:47:40Z</time>
      </trkpt>
      <trkpt lat="51.281411144882441" lon="4.808475561439991">
        <ele>-13.58</ele>
        <time>2022-02-05T11:47:41Z</time>
      </trkpt>
      <trkpt lat="51.281608790159225" lon="4.808849478140473">
        <ele>-13.58</ele>
        <time>2022-02-05T11:47:42Z</time>
      </trkpt>
      <trkpt lat="51.282309517264366" lon="4.810043312609196">
        <ele>-11.800000000000001</ele>
        <time>2022-02-05T11:48:32Z</time>
      </trkpt>
      <trkpt lat="51.282578995451331" lon="4.810575479641557">
        <ele>-11.82</ele>
        <time>2022-02-05T11:48:33Z</time>
      </trkpt>
      <trkpt lat="51.282363412901759" lon="4.810848813503981">
        <ele>-11.859999999999999</ele>
        <time>2022-02-05T11:48:34Z</time>
      </trkpt>
      <trkpt lat="51.282245814800262" lon="4.810992814600468">
        <ele>-11.970000000000001</ele>
        <time>2022-02-05T11:48:41Z</time>
      </trkpt>
      <trkpt lat="51.283284584060311" lon="4.814542466774583">
        <ele>-12.92</ele>
        <time>2022-02-05T11:49:49Z</time>
      </trkpt>
      <trkpt lat="51.283295061439276" lon="4.814552944153547">
        <ele>-12.94</ele>
        <time>2022-02-05T11:49:50Z</time>
      </trkpt>
      <trkpt lat="51.28342917189002" lon="4.814710607752204">
        <ele>-13.210000000000001</ele>
        <time>2022-02-05T11:50:04Z</time>
      </trkpt>
      <trkpt lat="51.283727567642927" lon="4.814877156168222">
        <ele>-13.619999999999999</ele>
        <time>2022-02-05T11:50:23Z</time>
      </trkpt>
      <trkpt lat="51.283735865727067" lon="4.814891489222646">
        <ele>-13.630000000000001</ele>
        <time>2022-02-05T11:50:24Z</time>
      </trkpt>
      <trkpt lat="51.283773584291339" lon="4.814906660467386">
        <ele>-13.699999999999999</ele>
        <time>2022-02-05T11:50:27Z</time>
      </trkpt>
      <trkpt lat="51.283983215689659" lon="4.815011518076062">
        <ele>-14.220000000000001</ele>
        <time>2022-02-05T11:50:41Z</time>
      </trkpt>
      <trkpt lat="51.284278174862266" lon="4.815160296857357">
        <ele>-14.49</ele>
        <time>2022-02-05T11:50:54Z</time>
      </trkpt>
      <trkpt lat="51.284645302221179" lon="4.815373700112104">
        <ele>-14.85</ele>
        <time>2022-02-05T11:51:18Z</time>
      </trkpt>
      <trkpt lat="51.284800283610821" lon="4.815527256578207">
        <ele>-15.1</ele>
        <time>2022-02-05T11:51:36Z</time>
      </trkpt>
      <trkpt lat="51.284990888088942" lon="4.815642843022943">
        <ele>-15.34</ele>
        <time>2022-02-05T11:51:53Z</time>
      </trkpt>
      <trkpt lat="51.28522926941514" lon="4.815766643732786">
        <ele>-15.59</ele>
        <time>2022-02-05T11:52:08Z</time>
      </trkpt>
      <trkpt lat="51.285451389849186" lon="4.815886588767171">
        <ele>-15.949999999999999</ele>
        <time>2022-02-05T11:52:27Z</time>
      </trkpt>
      <trkpt lat="51.285464633256197" lon="4.815897149965167">
        <ele>-15.960000000000001</ele>
        <time>2022-02-05T11:52:28Z</time>
      </trkpt>
      <trkpt lat="51.285485420376062" lon="4.815907124429941">
        <ele>-15.970000000000001</ele>
        <time>2022-02-05T11:52:29Z</time>
      </trkpt>
      <trkpt lat="51.285494137555361" lon="4.815918859094381">
        <ele>-15.99</ele>
        <time>2022-02-05T11:52:30Z</time>
      </trkpt>
      <trkpt lat="51.285510649904609" lon="4.815935036167502">
        <ele>-16.02</ele>
        <time>2022-02-05T11:52:31Z</time>
      </trkpt>
      <trkpt lat="51.285521797835827" lon="4.815945765003562">
        <ele>-16.039999999999999</ele>
        <time>2022-02-05T11:52:32Z</time>
      </trkpt>
      <trkpt lat="51.285753473639488" lon="4.816164616495371">
        <ele>-16.300000000000001</ele>
        <time>2022-02-05T11:52:46Z</time>
      </trkpt>
      <trkpt lat="51.285763615742326" lon="4.816193114966154">
        <ele>-16.34</ele>
        <time>2022-02-05T11:52:48Z</time>
      </trkpt>
      <trkpt lat="51.28578188829124" lon="4.816218512132764">
        <ele>-16.359999999999999</ele>
        <time>2022-02-05T11:52:49Z</time>
      </trkpt>
      <trkpt lat="51.285789180546999" lon="4.816239885985851">
        <ele>-16.379999999999999</ele>
        <time>2022-02-05T11:52:50Z</time>
      </trkpt>
      <trkpt lat="51.285789683461189" lon="4.816260756924748">
        <ele>-16.399999999999999</ele>
        <time>2022-02-05T11:52:51Z</time>
      </trkpt>
      <trkpt lat="51.28579462878406" lon="4.816276766359806">
        <ele>-16.420000000000002</ele>
        <time>2022-02-05T11:52:52Z</time>
      </trkpt>
      <trkpt lat="51.285800077021122" lon="4.816296715289354">
        <ele>-16.440000000000001</ele>
        <time>2022-02-05T11:52:53Z</time>
      </trkpt>
      <trkpt lat="51.28581122495234" lon="4.816323621198535">
        <ele>-16.489999999999998</ele>
        <time>2022-02-05T11:52:55Z</time>
      </trkpt>
      <trkpt lat="51.285822372883558" lon="4.816331919282675">
        <ele>-16.510000000000002</ele>
        <time>2022-02-05T11:52:56Z</time>
      </trkpt>
      <trkpt lat="51.286060754209757" lon="4.816391179338098">
        <ele>-16.760000000000002</ele>
        <time>2022-02-05T11:53:09Z</time>
      </trkpt>
      <trkpt lat="51.286359652876854" lon="4.816524283960462">
        <ele>-16.93</ele>
        <time>2022-02-05T11:53:19Z</time>
      </trkpt>
      <trkpt lat="51.286374488845468" lon="4.816531743854284">
        <ele>-16.949999999999999</ele>
        <time>2022-02-05T11:53:20Z</time>
      </trkpt>
      <trkpt lat="51.286399886012077" lon="4.816534761339426">
        <ele>-16.969999999999999</ele>
        <time>2022-02-05T11:53:21Z</time>
      </trkpt>
      <trkpt lat="51.286425283178687" lon="4.816535599529743">
        <ele>-16.98</ele>
        <time>2022-02-05T11:53:22Z</time>
      </trkpt>
      <trkpt lat="51.286719990894198" lon="4.816589830443263">
        <ele>-17.149999999999999</ele>
        <time>2022-02-05T11:53:36Z</time>
      </trkpt>
      <trkpt lat="51.286943955346942" lon="4.816739363595843">
        <ele>-17.239999999999998</ele>
        <time>2022-02-05T11:53:51Z</time>
      </trkpt>
      <trkpt lat="51.287218127399683" lon="4.816900379955769">
        <ele>-17.219999999999999</ele>
        <time>2022-02-05T11:54:08Z</time>
      </trkpt>
      <trkpt lat="51.287370007485151" lon="4.816942289471626">
        <ele>-17.129999999999999</ele>
        <time>2022-02-05T11:54:19Z</time>
      </trkpt>
      <trkpt lat="51.287478636950254" lon="4.816964920610189">
        <ele>-17.07</ele>
        <time>2022-02-05T11:54:26Z</time>
      </trkpt>
      <trkpt lat="51.287491209805012" lon="4.816972883418202">
        <ele>-17.059999999999999</ele>
        <time>2022-02-05T11:54:27Z</time>
      </trkpt>
      <trkpt lat="51.287575531750917" lon="4.816996017470956">
        <ele>-17.010000000000002</ele>
        <time>2022-02-05T11:54:33Z</time>
      </trkpt>
      <trkpt lat="51.287587769329548" lon="4.817002890631557">
        <ele>-16.989999999999998</ele>
        <time>2022-02-05T11:54:34Z</time>
      </trkpt>
      <trkpt lat="51.28760302439332" lon="4.817006997764111">
        <ele>-16.969999999999999</ele>
        <time>2022-02-05T11:54:35Z</time>
      </trkpt>
      <trkpt lat="51.287618195638061" lon="4.817016385495663">
        <ele>-16.960000000000001</ele>
        <time>2022-02-05T11:54:36Z</time>
      </trkpt>
      <trkpt lat="51.287633031606674" lon="4.817021833732724">
        <ele>-16.960000000000001</ele>
        <time>2022-02-05T11:54:37Z</time>
      </trkpt>
      <trkpt lat="51.287855235859752" lon="4.817075142636895">
        <ele>-16.82</ele>
        <time>2022-02-05T11:54:49Z</time>
      </trkpt>
      <trkpt lat="51.288039302453399" lon="4.81711495667696">
        <ele>-15.94</ele>
        <time>2022-02-05T11:55:00Z</time>
      </trkpt>
      <trkpt lat="51.288054389879107" lon="4.817111771553755">
        <ele>-15.92</ele>
        <time>2022-02-05T11:55:01Z</time>
      </trkpt>
      <trkpt lat="51.288069728761911" lon="4.817105904221535">
        <ele>-15.92</ele>
        <time>2022-02-05T11:55:02Z</time>
      </trkpt>
      <trkpt lat="51.288084229454398" lon="4.81710372492671">
        <ele>-15.9</ele>
        <time>2022-02-05T11:55:03Z</time>
      </trkpt>
      <trkpt lat="51.288098897784948" lon="4.81710271909833">
        <ele>-15.890000000000001</ele>
        <time>2022-02-05T11:55:04Z</time>
      </trkpt>
      <trkpt lat="51.288114655762911" lon="4.81710028834641">
        <ele>-15.890000000000001</ele>
        <time>2022-02-05T11:55:05Z</time>
      </trkpt>
      <trkpt lat="51.288152961060405" lon="4.81711152009666">
        <ele>-15.859999999999999</ele>
        <time>2022-02-05T11:55:09Z</time>
      </trkpt>
      <trkpt lat="51.288329483941197" lon="4.817187041044235">
        <ele>-15.76</ele>
        <time>2022-02-05T11:55:23Z</time>
      </trkpt>
      <trkpt lat="51.288482705131173" lon="4.817225597798824">
        <ele>-15.699999999999999</ele>
        <time>2022-02-05T11:55:32Z</time>
      </trkpt>
      <trkpt lat="51.288501732051373" lon="4.81723465025425">
        <ele>-15.69</ele>
        <time>2022-02-05T11:55:33Z</time>
      </trkpt>
      <trkpt lat="51.288515143096447" lon="4.817240601405501">
        <ele>-15.69</ele>
        <time>2022-02-05T11:55:34Z</time>
      </trkpt>
      <trkpt lat="51.28853383474052" lon="4.817242948338389">
        <ele>-15.68</ele>
        <time>2022-02-05T11:55:35Z</time>
      </trkpt>
      <trkpt lat="51.288547748699784" lon="4.817247977480292">
        <ele>-15.68</ele>
        <time>2022-02-05T11:55:36Z</time>
      </trkpt>
      <trkpt lat="51.288567949086428" lon="4.817248899489641">
        <ele>-15.68</ele>
        <time>2022-02-05T11:55:37Z</time>
      </trkpt>
      <trkpt lat="51.288591250777245" lon="4.817247726023197">
        <ele>-15.68</ele>
        <time>2022-02-05T11:55:38Z</time>
      </trkpt>
      <trkpt lat="51.28878747113049" lon="4.817292904481292">
        <ele>-15.66</ele>
        <time>2022-02-05T11:55:48Z</time>
      </trkpt>
      <trkpt lat="51.288970615714788" lon="4.817326012998819">
        <ele>-15.66</ele>
        <time>2022-02-05T11:55:57Z</time>
      </trkpt>
      <trkpt lat="51.289129452779889" lon="4.817335987463594">
        <ele>-12.76</ele>
        <time>2022-02-05T11:56:04Z</time>
      </trkpt>
      <trkpt lat="51.289169015362859" lon="4.817353589460254">
        <ele>-15.050000000000001</ele>
        <time>2022-02-05T11:56:06Z</time>
      </trkpt>
      <trkpt lat="51.289185611531138" lon="4.817365575581789">
        <ele>-15.029999999999999</ele>
        <time>2022-02-05T11:56:07Z</time>
      </trkpt>
      <trkpt lat="51.289205560460687" lon="4.817375298589468">
        <ele>-15.02</ele>
        <time>2022-02-05T11:56:08Z</time>
      </trkpt>
      <trkpt lat="51.289421562105417" lon="4.817420309409499">
        <ele>-15.83</ele>
        <time>2022-02-05T11:56:20Z</time>
      </trkpt>
      <trkpt lat="51.289490964263678" lon="4.817436570301652">
        <ele>-15.789999999999999</ele>
        <time>2022-02-05T11:56:24Z</time>
      </trkpt>
      <trkpt lat="51.289507979527116" lon="4.817438079044223">
        <ele>-15.779999999999999</ele>
        <time>2022-02-05T11:56:25Z</time>
      </trkpt>
      <trkpt lat="51.28958391956985" lon="4.817461967468262">
        <ele>-15.76</ele>
        <time>2022-02-05T11:56:29Z</time>
      </trkpt>
      <trkpt lat="51.289605125784874" lon="4.817463140934706">
        <ele>-15.75</ele>
        <time>2022-02-05T11:56:30Z</time>
      </trkpt>
      <trkpt lat="51.289625326171517" lon="4.817463979125023">
        <ele>-15.720000000000001</ele>
        <time>2022-02-05T11:56:31Z</time>
      </trkpt>
      <trkpt lat="51.289642844349146" lon="4.81746532022953">
        <ele>-15.710000000000001</ele>
        <time>2022-02-05T11:56:32Z</time>
      </trkpt>
      <trkpt lat="51.289663296192884" lon="4.817467499524355">
        <ele>-15.710000000000001</ele>
        <time>2022-02-05T11:56:33Z</time>
      </trkpt>
      <trkpt lat="51.289869826287031" lon="4.817514941096306">
        <ele>-15.619999999999999</ele>
        <time>2022-02-05T11:56:45Z</time>
      </trkpt>
      <trkpt lat="51.290015252307057" lon="4.817551570013166">
        <ele>-15.550000000000001</ele>
        <time>2022-02-05T11:56:55Z</time>
      </trkpt>
      <trkpt lat="51.290147015824914" lon="4.817591048777103">
        <ele>-15.460000000000001</ele>
        <time>2022-02-05T11:57:03Z</time>
      </trkpt>
      <trkpt lat="51.290164031088352" lon="4.817594150081277">
        <ele>-15.449999999999999</ele>
        <time>2022-02-05T11:57:04Z</time>
      </trkpt>
      <trkpt lat="51.290358323603868" lon="4.817662965506315">
        <ele>-15.380000000000001</ele>
        <time>2022-02-05T11:57:16Z</time>
      </trkpt>
      <trkpt lat="51.290560998022556" lon="4.817708311602473">
        <ele>-15.33</ele>
        <time>2022-02-05T11:57:29Z</time>
      </trkpt>
      <trkpt lat="51.290766187012196" lon="4.817731445655227">
        <ele>-15.31</ele>
        <time>2022-02-05T11:57:39Z</time>
      </trkpt>
      <trkpt lat="51.290908427909017" lon="4.817807218059897">
        <ele>-15.33</ele>
        <time>2022-02-05T11:57:49Z</time>
      </trkpt>
      <trkpt lat="51.29102099686861" lon="4.817837392911315">
        <ele>-15.35</ele>
        <time>2022-02-05T11:57:55Z</time>
      </trkpt>
      <trkpt lat="51.291044382378459" lon="4.81784250587225">
        <ele>-15.359999999999999</ele>
        <time>2022-02-05T11:57:56Z</time>
      </trkpt>
      <trkpt lat="51.291064498946071" lon="4.817844517529011">
        <ele>-15.359999999999999</ele>
        <time>2022-02-05T11:57:57Z</time>
      </trkpt>
      <trkpt lat="51.291278405115008" lon="4.817882739007473">
        <ele>-15.390000000000001</ele>
        <time>2022-02-05T11:58:09Z</time>
      </trkpt>
      <trkpt lat="51.291298856958747" lon="4.8178865108639">
        <ele>-15.390000000000001</ele>
        <time>2022-02-05T11:58:10Z</time>
      </trkpt>
      <trkpt lat="51.291414862498641" lon="4.817851977422833">
        <ele>-15.4</ele>
        <time>2022-02-05T11:58:15Z</time>
      </trkpt>
      <trkpt lat="51.291520474478602" lon="4.817853486165404">
        <ele>-15.4</ele>
        <time>2022-02-05T11:58:20Z</time>
      </trkpt>
      <trkpt lat="51.291543189436197" lon="4.817854491993785">
        <ele>-15.4</ele>
        <time>2022-02-05T11:58:21Z</time>
      </trkpt>
      <trkpt lat="51.291565569117665" lon="4.817859269678593">
        <ele>-15.4</ele>
        <time>2022-02-05T11:58:22Z</time>
      </trkpt>
      <trkpt lat="51.291604125872254" lon="4.817853402346373">
        <ele>-15.4</ele>
        <time>2022-02-05T11:58:24Z</time>
      </trkpt>
      <trkpt lat="51.29179934039712" lon="4.817851642146707">
        <ele>-15.42</ele>
        <time>2022-02-05T11:58:34Z</time>
      </trkpt>
      <trkpt lat="51.29185994155705" lon="4.817831860855222">
        <ele>-15.43</ele>
        <time>2022-02-05T11:58:37Z</time>
      </trkpt>
      <trkpt lat="51.291945353150368" lon="4.817862790077925">
        <ele>-15.470000000000001</ele>
        <time>2022-02-05T11:58:42Z</time>
      </trkpt>
      <trkpt lat="51.291960356757045" lon="4.817862622439861">
        <ele>-15.48</ele>
        <time>2022-02-05T11:58:43Z</time>
      </trkpt>
      <trkpt lat="51.292009726166725" lon="4.817859856411815">
        <ele>-13.210000000000001</ele>
        <time>2022-02-05T11:58:46Z</time>
      </trkpt>
      <trkpt lat="51.292245425283909" lon="4.817895647138357">
        <ele>-13.33</ele>
        <time>2022-02-05T11:58:57Z</time>
      </trkpt>
      <trkpt lat="51.292407866567373" lon="4.817918194457889">
        <ele>-12.470000000000001</ele>
        <time>2022-02-05T11:59:07Z</time>
      </trkpt>
      <trkpt lat="51.292436365038157" lon="4.817922804504633">
        <ele>-12.49</ele>
        <time>2022-02-05T11:59:08Z</time>
      </trkpt>
      <trkpt lat="51.292464276775718" lon="4.817944010719657">
        <ele>-12.5</ele>
        <time>2022-02-05T11:59:09Z</time>
      </trkpt>
      <trkpt lat="51.292713638395071" lon="4.818039732053876">
        <ele>-12.6</ele>
        <time>2022-02-05T11:59:23Z</time>
      </trkpt>
      <trkpt lat="51.29287582822144" lon="4.818073678761721">
        <ele>-12.619999999999999</ele>
        <time>2022-02-05T11:59:33Z</time>
      </trkpt>
      <trkpt lat="51.29289242438972" lon="4.818096896633506">
        <ele>-12.630000000000001</ele>
        <time>2022-02-05T11:59:34Z</time>
      </trkpt>
      <trkpt lat="51.292913714423776" lon="4.818109385669231">
        <ele>-12.630000000000001</ele>
        <time>2022-02-05T11:59:35Z</time>
      </trkpt>
      <trkpt lat="51.293132482096553" lon="4.818147355690599">
        <ele>-12.609999999999999</ele>
        <time>2022-02-05T11:59:48Z</time>
      </trkpt>
      <trkpt lat="51.293317219242454" lon="4.81822949834168">
        <ele>-12.539999999999999</ele>
        <time>2022-02-05T12:00:01Z</time>
      </trkpt>
      <trkpt lat="51.293440936133265" lon="4.818279789760709">
        <ele>-12.470000000000001</ele>
        <time>2022-02-05T12:00:08Z</time>
      </trkpt>
      <trkpt lat="51.293594827875495" lon="4.818382132798433">
        <ele>-12.35</ele>
        <time>2022-02-05T12:00:22Z</time>
      </trkpt>
      <trkpt lat="51.293880734592676" lon="4.818470310419798">
        <ele>-12.24</ele>
        <time>2022-02-05T12:00:37Z</time>
      </trkpt>
      <trkpt lat="51.294101011008024" lon="4.818577263504267">
        <ele>-12.16</ele>
        <time>2022-02-05T12:00:52Z</time>
      </trkpt>
      <trkpt lat="51.294161947444081" lon="4.819227196276188">
        <ele>-12.06</ele>
        <time>2022-02-05T12:01:30Z</time>
      </trkpt>
      <trkpt lat="51.294231349602342" lon="4.819534728303552">
        <ele>-12.08</ele>
        <time>2022-02-05T12:01:45Z</time>
      </trkpt>
      <trkpt lat="51.294261356815696" lon="4.819855922833085">
        <ele>-12.15</ele>
        <time>2022-02-05T12:01:57Z</time>
      </trkpt>
      <trkpt lat="51.294403010979295" lon="4.820519518107176">
        <ele>-11.619999999999999</ele>
        <time>2022-02-05T12:02:27Z</time>
      </trkpt>
      <trkpt lat="51.294573247432709" lon="4.821968330070376">
        <ele>-12.5</ele>
        <time>2022-02-05T12:03:27Z</time>
      </trkpt>
      <trkpt lat="51.294020712375641" lon="4.822276113554835">
        <ele>-12.960000000000001</ele>
        <time>2022-02-05T12:04:03Z</time>
      </trkpt>
      <trkpt lat="51.294131940230727" lon="4.823112711310387">
        <ele>-13.23</ele>
        <time>2022-02-05T12:04:30Z</time>
      </trkpt>
      <trkpt lat="51.29422003403306" lon="4.823716040700674">
        <ele>-13.449999999999999</ele>
        <time>2022-02-05T12:04:53Z</time>
      </trkpt>
      <trkpt lat="51.294219112023711" lon="4.823745125904679">
        <ele>-13.449999999999999</ele>
        <time>2022-02-05T12:04:54Z</time>
      </trkpt>
      <trkpt lat="51.294318605214357" lon="4.824224738404155">
        <ele>-13.56</ele>
        <time>2022-02-05T12:05:18Z</time>
      </trkpt>
      <trkpt lat="51.294327322393656" lon="4.82424552552402">
        <ele>-13.56</ele>
        <time>2022-02-05T12:05:19Z</time>
      </trkpt>
      <trkpt lat="51.294333189725876" lon="4.824264720082283">
        <ele>-13.56</ele>
        <time>2022-02-05T12:05:20Z</time>
      </trkpt>
      <trkpt lat="51.294351378455758" lon="4.824532186612487">
        <ele>-13.57</ele>
        <time>2022-02-05T12:05:32Z</time>
      </trkpt>
      <trkpt lat="51.294354647397995" lon="4.824554985389113">
        <ele>-13.57</ele>
        <time>2022-02-05T12:05:33Z</time>
      </trkpt>
      <trkpt lat="51.294359927996993" lon="4.824585495516658">
        <ele>-13.57</ele>
        <time>2022-02-05T12:05:34Z</time>
      </trkpt>
      <trkpt lat="51.294429078698158" lon="4.825288318097591">
        <ele>-13.58</ele>
        <time>2022-02-05T12:05:47Z</time>
      </trkpt>
      <trkpt lat="51.294498397037387" lon="4.82613162137568">
        <ele>-13.57</ele>
        <time>2022-02-05T12:06:00Z</time>
      </trkpt>
      <trkpt lat="51.29456352442503" lon="4.826415432617068">
        <ele>-13.539999999999999</ele>
        <time>2022-02-05T12:06:05Z</time>
      </trkpt>
      <trkpt lat="51.294634770601988" lon="4.826585585251451">
        <ele>-13.529999999999999</ele>
        <time>2022-02-05T12:06:08Z</time>
      </trkpt>
      <trkpt lat="51.294915983453393" lon="4.826999818906188">
        <ele>-13.48</ele>
        <time>2022-02-05T12:06:19Z</time>
      </trkpt>
      <trkpt lat="51.295041376724839" lon="4.827101491391659">
        <ele>-13.470000000000001</ele>
        <time>2022-02-05T12:06:24Z</time>
      </trkpt>
      <trkpt lat="51.295068617910147" lon="4.827126637101173">
        <ele>-13.460000000000001</ele>
        <time>2022-02-05T12:06:25Z</time>
      </trkpt>
      <trkpt lat="51.295092925429344" lon="4.827153123915196">
        <ele>-13.460000000000001</ele>
        <time>2022-02-05T12:06:26Z</time>
      </trkpt>
      <trkpt lat="51.295374389737844" lon="4.827442970126867">
        <ele>-13.48</ele>
        <time>2022-02-05T12:06:37Z</time>
      </trkpt>
      <trkpt lat="51.295433649793267" lon="4.827500972896814">
        <ele>-13.49</ele>
        <time>2022-02-05T12:06:39Z</time>
      </trkpt>
      <trkpt lat="51.295452509075403" lon="4.827524358406663">
        <ele>-13.5</ele>
        <time>2022-02-05T12:06:40Z</time>
      </trkpt>
      <trkpt lat="51.295475475490093" lon="4.827558388933539">
        <ele>-13.5</ele>
        <time>2022-02-05T12:06:41Z</time>
      </trkpt>
      <trkpt lat="51.295648142695427" lon="4.827797524631023">
        <ele>-13.58</ele>
        <time>2022-02-05T12:06:49Z</time>
      </trkpt>
      <trkpt lat="51.296667633578181" lon="4.828609982505441">
        <ele>-14.19</ele>
        <time>2022-02-05T12:07:29Z</time>
      </trkpt>
      <trkpt lat="51.296672327443957" lon="4.828631104901433">
        <ele>-14.18</ele>
        <time>2022-02-05T12:07:30Z</time>
      </trkpt>
      <trkpt lat="51.296680038794875" lon="4.828650215640664">
        <ele>-14.199999999999999</ele>
        <time>2022-02-05T12:07:31Z</time>
      </trkpt>
      <trkpt lat="51.296792775392532" lon="4.828942576423287">
        <ele>-14.31</ele>
        <time>2022-02-05T12:07:43Z</time>
      </trkpt>
      <trkpt lat="51.296951863914728" lon="4.830059632658958">
        <ele>-14.550000000000001</ele>
        <time>2022-02-05T12:08:26Z</time>
      </trkpt>
      <trkpt lat="51.296945409849286" lon="4.83062407001853">
        <ele>-14.56</ele>
        <time>2022-02-05T12:08:43Z</time>
      </trkpt>
      <trkpt lat="51.296976255252957" lon="4.830930009484291">
        <ele>-14.52</ele>
        <time>2022-02-05T12:08:55Z</time>
      </trkpt>
      <trkpt lat="51.296906266361475" lon="4.831163780763745">
        <ele>-14.48</ele>
        <time>2022-02-05T12:09:05Z</time>
      </trkpt>
      <trkpt lat="51.296842312440276" lon="4.831284312531352">
        <ele>-14.43</ele>
        <time>2022-02-05T12:09:11Z</time>
      </trkpt>
      <trkpt lat="51.296822028234601" lon="4.831294286996126">
        <ele>-14.43</ele>
        <time>2022-02-05T12:09:12Z</time>
      </trkpt>
      <trkpt lat="51.296802330762148" lon="4.831319181248546">
        <ele>-14.42</ele>
        <time>2022-02-05T12:09:13Z</time>
      </trkpt>
      <trkpt lat="51.296791769564152" lon="4.83134038746357">
        <ele>-14.35</ele>
        <time>2022-02-05T12:09:14Z</time>
      </trkpt>
      <trkpt lat="51.296775843948126" lon="4.831352373585105">
        <ele>-14.4</ele>
        <time>2022-02-05T12:09:15Z</time>
      </trkpt>
      <trkpt lat="51.296758744865656" lon="4.831364108249545">
        <ele>-14.4</ele>
        <time>2022-02-05T12:09:16Z</time>
      </trkpt>
      <trkpt lat="51.296744411811233" lon="4.831382716074586">
        <ele>-14.300000000000001</ele>
        <time>2022-02-05T12:09:17Z</time>
      </trkpt>
      <trkpt lat="51.296734353527427" lon="4.831403587013483">
        <ele>-14.380000000000001</ele>
        <time>2022-02-05T12:09:18Z</time>
      </trkpt>
      <trkpt lat="51.296721780672669" lon="4.831425631418824">
        <ele>-14.380000000000001</ele>
        <time>2022-02-05T12:09:19Z</time>
      </trkpt>
      <trkpt lat="51.296526398509741" lon="4.831662252545357">
        <ele>-14.24</ele>
        <time>2022-02-05T12:09:32Z</time>
      </trkpt>
      <trkpt lat="51.296286256983876" lon="4.831912033259869">
        <ele>-14.07</ele>
        <time>2022-02-05T12:09:47Z</time>
      </trkpt>
      <trkpt lat="51.296030692756176" lon="4.832152174785733">
        <ele>-13.85</ele>
        <time>2022-02-05T12:10:04Z</time>
      </trkpt>
      <trkpt lat="51.29601820372045" lon="4.832166591659188">
        <ele>-13.85</ele>
        <time>2022-02-05T12:10:05Z</time>
      </trkpt>
      <trkpt lat="51.296003703027964" lon="4.832183942198753">
        <ele>-13.82</ele>
        <time>2022-02-05T12:10:06Z</time>
      </trkpt>
      <trkpt lat="51.295767836272717" lon="4.832456856966019">
        <ele>-13.68</ele>
        <time>2022-02-05T12:10:16Z</time>
      </trkpt>
      <trkpt lat="51.295764986425638" lon="4.83249306678772">
        <ele>-13.67</ele>
        <time>2022-02-05T12:10:17Z</time>
      </trkpt>
      <trkpt lat="51.295767333358526" lon="4.83253019861877">
        <ele>-13.65</ele>
        <time>2022-02-05T12:10:18Z</time>
      </trkpt>
      <trkpt lat="51.295765992254019" lon="4.83258149586618">
        <ele>-13.640000000000001</ele>
        <time>2022-02-05T12:10:19Z</time>
      </trkpt>
      <trkpt lat="51.295769512653351" lon="4.83263136819005">
        <ele>-13.619999999999999</ele>
        <time>2022-02-05T12:10:20Z</time>
      </trkpt>
      <trkpt lat="51.295790718868375" lon="4.832739578559995">
        <ele>-13.619999999999999</ele>
        <time>2022-02-05T12:10:22Z</time>
      </trkpt>
      <trkpt lat="51.2958032079041" lon="4.832805627956986">
        <ele>-13.66</ele>
        <time>2022-02-05T12:10:23Z</time>
      </trkpt>
      <trkpt lat="51.295813098549843" lon="4.832881400361657">
        <ele>-13.59</ele>
        <time>2022-02-05T12:10:24Z</time>
      </trkpt>
      <trkpt lat="51.295813517645001" lon="4.832969326525927">
        <ele>-10.710000000000001</ele>
        <time>2022-02-05T12:10:25Z</time>
      </trkpt>
      <trkpt lat="51.29581100307405" lon="4.833063539117575">
        <ele>-14.630000000000001</ele>
        <time>2022-02-05T12:10:26Z</time>
      </trkpt>
      <trkpt lat="51.295805219560862" lon="4.833161188289523">
        <ele>-14.6</ele>
        <time>2022-02-05T12:10:27Z</time>
      </trkpt>
      <trkpt lat="51.295874454081059" lon="4.834305318072438">
        <ele>-14.49</ele>
        <time>2022-02-05T12:10:39Z</time>
      </trkpt>
      <trkpt lat="51.295898593962193" lon="4.834341946989298">
        <ele>-14.470000000000001</ele>
        <time>2022-02-05T12:10:40Z</time>
      </trkpt>
      <trkpt lat="51.295921560376883" lon="4.834393411874771">
        <ele>-14.460000000000001</ele>
        <time>2022-02-05T12:10:41Z</time>
      </trkpt>
      <trkpt lat="51.295941593125463" lon="4.834460048004985">
        <ele>-14.5</ele>
        <time>2022-02-05T12:10:42Z</time>
      </trkpt>
      <trkpt lat="51.295950561761856" lon="4.834547974169254">
        <ele>-14.49</ele>
        <time>2022-02-05T12:10:43Z</time>
      </trkpt>
      <trkpt lat="51.296042008325458" lon="4.835212323814631">
        <ele>-14.44</ele>
        <time>2022-02-05T12:10:53Z</time>
      </trkpt>
      <trkpt lat="51.296081654727459" lon="4.835727894678712">
        <ele>-14.380000000000001</ele>
        <time>2022-02-05T12:11:01Z</time>
      </trkpt>
      <trkpt lat="51.296082325279713" lon="4.835803583264351">
        <ele>-14.380000000000001</ele>
        <time>2022-02-05T12:11:02Z</time>
      </trkpt>
      <trkpt lat="51.296085342764854" lon="4.835877008736134">
        <ele>-14.380000000000001</ele>
        <time>2022-02-05T12:11:03Z</time>
      </trkpt>
      <trkpt lat="51.296088863164186" lon="4.835942387580872">
        <ele>-14.390000000000001</ele>
        <time>2022-02-05T12:11:04Z</time>
      </trkpt>
      <trkpt lat="51.296130269765854" lon="4.836841933429241">
        <ele>-12.449999999999999</ele>
        <time>2022-02-05T12:11:48Z</time>
      </trkpt>
      <trkpt lat="51.296113338321447" lon="4.836846543475986">
        <ele>-12.44</ele>
        <time>2022-02-05T12:11:49Z</time>
      </trkpt>
      <trkpt lat="51.296095652505755" lon="4.836851321160793">
        <ele>-12.460000000000001</ele>
        <time>2022-02-05T12:11:50Z</time>
      </trkpt>
      <trkpt lat="51.296079223975539" lon="4.836853751912713">
        <ele>-12.44</ele>
        <time>2022-02-05T12:11:51Z</time>
      </trkpt>
      <trkpt lat="51.296061873435974" lon="4.836854338645935">
        <ele>-12.470000000000001</ele>
        <time>2022-02-05T12:11:52Z</time>
      </trkpt>
      <trkpt lat="51.296043517068028" lon="4.836864061653614">
        <ele>-12.470000000000001</ele>
        <time>2022-02-05T12:11:53Z</time>
      </trkpt>
      <trkpt lat="51.296026166528463" lon="4.83687068335712">
        <ele>-12.48</ele>
        <time>2022-02-05T12:11:54Z</time>
      </trkpt>
      <trkpt lat="51.29595072939992" lon="4.836904378607869">
        <ele>-14.92</ele>
        <time>2022-02-05T12:11:58Z</time>
      </trkpt>
      <trkpt lat="51.295735146850348" lon="4.836951568722725">
        <ele>-14.98</ele>
        <time>2022-02-05T12:12:11Z</time>
      </trkpt>
      <trkpt lat="51.295470278710127" lon="4.836998339742422">
        <ele>-15.17</ele>
        <time>2022-02-05T12:12:26Z</time>
      </trkpt>
      <trkpt lat="51.295452257618308" lon="4.836987946182489">
        <ele>-15.119999999999999</ele>
        <time>2022-02-05T12:12:27Z</time>
      </trkpt>
      <trkpt lat="51.295437254011631" lon="4.836988281458616">
        <ele>-15.130000000000001</ele>
        <time>2022-02-05T12:12:28Z</time>
      </trkpt>
      <trkpt lat="51.295338766649365" lon="4.837011834606528">
        <ele>-15.140000000000001</ele>
        <time>2022-02-05T12:12:39Z</time>
      </trkpt>
      <trkpt lat="51.295164925977588" lon="4.837028598412871">
        <ele>-15.18</ele>
        <time>2022-02-05T12:12:53Z</time>
      </trkpt>
      <trkpt lat="51.295056631788611" lon="4.837053492665291">
        <ele>-15.210000000000001</ele>
        <time>2022-02-05T12:13:01Z</time>
      </trkpt>
      <trkpt lat="51.294852029532194" lon="4.837049301713705">
        <ele>-15.289999999999999</ele>
        <time>2022-02-05T12:13:13Z</time>
      </trkpt>
      <trkpt lat="51.294657485559583" lon="4.83706564642489">
        <ele>-15.369999999999999</ele>
        <time>2022-02-05T12:13:26Z</time>
      </trkpt>
      <trkpt lat="51.294435281306505" lon="4.837097665295005">
        <ele>-15.41</ele>
        <time>2022-02-05T12:13:43Z</time>
      </trkpt>
      <trkpt lat="51.29426253028214" lon="4.837124571204186">
        <ele>-15.6</ele>
        <time>2022-02-05T12:13:56Z</time>
      </trkpt>
      <trkpt lat="51.293995315209031" lon="4.837144184857607">
        <ele>-15.789999999999999</ele>
        <time>2022-02-05T12:14:12Z</time>
      </trkpt>
      <trkpt lat="51.293982239440084" lon="4.83715214766562">
        <ele>-15.800000000000001</ele>
        <time>2022-02-05T12:14:13Z</time>
      </trkpt>
      <trkpt lat="51.293968074023724" lon="4.837156003341079">
        <ele>-15.83</ele>
        <time>2022-02-05T12:14:14Z</time>
      </trkpt>
      <trkpt lat="51.293870592489839" lon="4.837148040533066">
        <ele>-15.9</ele>
        <time>2022-02-05T12:14:22Z</time>
      </trkpt>
      <trkpt lat="51.293855337426066" lon="4.837146447971463">
        <ele>-15.91</ele>
        <time>2022-02-05T12:14:23Z</time>
      </trkpt>
      <trkpt lat="51.293839327991009" lon="4.837153572589159">
        <ele>-15.94</ele>
        <time>2022-02-05T12:14:24Z</time>
      </trkpt>
      <trkpt lat="51.29373874515295" lon="4.837140245363116">
        <ele>-15.970000000000001</ele>
        <time>2022-02-05T12:14:30Z</time>
      </trkpt>
      <trkpt lat="51.293719047680497" lon="4.837134797126055">
        <ele>-15.970000000000001</ele>
        <time>2022-02-05T12:14:31Z</time>
      </trkpt>
      <trkpt lat="51.293463231995702" lon="4.837165893986821">
        <ele>-16.210000000000001</ele>
        <time>2022-02-05T12:14:46Z</time>
      </trkpt>
      <trkpt lat="51.293256618082523" lon="4.837177963927388">
        <ele>-16.390000000000001</ele>
        <time>2022-02-05T12:15:00Z</time>
      </trkpt>
      <trkpt lat="51.293044220656157" lon="4.837169917300344">
        <ele>-16.59</ele>
        <time>2022-02-05T12:15:14Z</time>
      </trkpt>
      <trkpt lat="51.292855879291892" lon="4.837214592844248">
        <ele>-16.789999999999999</ele>
        <time>2022-02-05T12:15:29Z</time>
      </trkpt>
      <trkpt lat="51.292851436883211" lon="4.837202103808522">
        <ele>-16.800000000000001</ele>
        <time>2022-02-05T12:15:30Z</time>
      </trkpt>
      <trkpt lat="51.292875157669187" lon="4.837083667516708">
        <ele>-16.879999999999999</ele>
        <time>2022-02-05T12:15:35Z</time>
      </trkpt>
      <trkpt lat="51.292974315583706" lon="4.837029436603189">
        <ele>-17.07</ele>
        <time>2022-02-05T12:15:44Z</time>
      </trkpt>
      <trkpt lat="51.292984122410417" lon="4.837012169882655">
        <ele>-17.050000000000001</ele>
        <time>2022-02-05T12:15:46Z</time>
      </trkpt>
      <trkpt lat="51.292888820171356" lon="4.837021473795176">
        <ele>-17.440000000000001</ele>
        <time>2022-02-05T12:16:20Z</time>
      </trkpt>
      <trkpt lat="51.29284305498004" lon="4.837026167660952">
        <ele>-17.59</ele>
        <time>2022-02-05T12:16:43Z</time>
      </trkpt>
      <trkpt lat="51.292818998917937" lon="4.837042512372136">
        <ele>-17.699999999999999</ele>
        <time>2022-02-05T12:17:00Z</time>
      </trkpt>
      <trkpt lat="51.292839534580708" lon="4.837025078013539">
        <ele>-17.77</ele>
        <time>2022-02-05T12:17:16Z</time>
      </trkpt>
    </trkseg>
  </trk>

</gpx>